Darstellungsparameter: Aktuell verwendete Einstellungen:
Skalierung der Graphiken ... ?
xyx+y,   Skalierungsfaktor:      Skalierung: Modus: x, Faktor: 1
Darstellungszeitraum ... ?
Vom - - bis: - -   Zeitraum: 25.01.2019 - 24.04.2019
Min/Max/Avg-Anzeige ... ?
Zeige MMA aktuell
Zeige MMA Monat
Zeige MMA alles
Zeige --A aktuell
Zeige --A Monat
Zeige --A alles
Keine MMA-Anzeige
MMA:
Average (ber die Originaldaten)
MMA-Basis: 25.01.2019 - 24.04.2019
Quicknavigation für Darstellung... ?
Tage:      1T, 2T, 3T, 5T -1T -2T -3T -5T +1T +2T +3T +5T
Wochen: 1W, 2W, 3W -1W -2W -3W +1W +2W +3W
Monate: 1M, 3M, 6M -1M -3M -6M +1M +3M +6M
Jahre:    1J, 3J, 5J, 10J -1J -3J -5J -10J +1J +3J +5J +10J
Nutze für die Darstellung ... ?
Originaldaten oder Mittelwerte auf ...
Stundenbasis Tagesbasis Wochenbasis
Monatsbasis Jahresbasis      Datenbasis: Original-Daten
Darstellen als:
Statistik (Auto) Statistik J:M      Darstellung:
Zur Graphik,    zurück zur Übersicht aller Sensoren.
 
Tabellarische Datenbersicht: ?
 
Sensor: Nr:Datum:Temp:Abs-Feuchte:Windchill:Wind:
Aussen-T/F 1 25-01-2019 00:00:00 -2.4 C 3.57 g/m*3 -2.4 C 0 km/h
2 25-01-2019 00:05:00 -2.4 C 3.57 g/m*3 -2.4 C 0 km/h
3 25-01-2019 00:10:00 -2.4 C 3.57 g/m*3 -2.4 C 0 km/h
4 25-01-2019 00:15:00 -2.4 C 3.57 g/m*3 -2.4 C 0 km/h
5 25-01-2019 00:20:00 -2.4 C 3.57 g/m*3 -2.4 C 0 km/h
6 25-01-2019 00:25:00 -2.4 C 3.57 g/m*3 -2.4 C 0 km/h
7 25-01-2019 00:30:00 -2.4 C 3.57 g/m*3 -2.4 C 0 km/h
8 25-01-2019 00:35:00 -2.4 C 3.52 g/m*3 -2.4 C 0 km/h
9 25-01-2019 00:40:00 -2.4 C 3.52 g/m*3 -2.4 C 0 km/h
10 25-01-2019 00:45:00 -2.3 C 3.55 g/m*3 -2.3 C 0 km/h
11 25-01-2019 00:50:00 -2.3 C 3.55 g/m*3 -2.3 C 0 km/h
12 25-01-2019 00:55:00 -2.3 C 3.55 g/m*3 -2.3 C 1.6 km/h
13 25-01-2019 01:00:00 -2.3 C 3.55 g/m*3 -2.3 C 3.2 km/h
14 25-01-2019 01:05:00 -2.3 C 3.55 g/m*3 -2.3 C 0 km/h
15 25-01-2019 01:10:00 -2.2 C 3.57 g/m*3 -2.2 C 1.6 km/h
16 25-01-2019 01:15:00 -2.2 C 3.57 g/m*3 -2.2 C 4.8 km/h
17 25-01-2019 01:20:00 -2.2 C 3.57 g/m*3 -2.2 C 4.8 km/h
18 25-01-2019 01:25:00 -2.2 C 3.57 g/m*3 -2.2 C 1.6 km/h
19 25-01-2019 01:30:00 -2.1 C 3.6 g/m*3 -2.1 C 0 km/h
20 25-01-2019 01:35:00 -2.1 C 3.6 g/m*3 -2.1 C 1.6 km/h
21 25-01-2019 01:40:00 -2.1 C 3.6 g/m*3 -2.1 C 1.6 km/h
22 25-01-2019 01:45:00 -2 C 3.63 g/m*3 -2 C 1.6 km/h
23 25-01-2019 01:50:00 -2 C 3.63 g/m*3 -2 C 3.2 km/h
24 25-01-2019 01:55:00 -1.9 C 3.65 g/m*3 -1.9 C 0 km/h
25 25-01-2019 02:00:00 -1.9 C 3.65 g/m*3 -1.9 C 3.2 km/h
Sensor: Nr:Datum:Temp:Abs-Feuchte:Windchill:Wind:
Aussen-T/F 26 25-01-2019 02:05:00 -1.9 C 3.65 g/m*3 -1.9 C 4.8 km/h
27 25-01-2019 02:10:00 -1.9 C 3.65 g/m*3 -1.9 C 1.6 km/h
28 25-01-2019 02:15:00 -1.8 C 3.68 g/m*3 -1.8 C 1.6 km/h
29 25-01-2019 02:20:00 -1.8 C 3.72 g/m*3 -1.8 C 1.6 km/h
30 25-01-2019 02:25:00 -1.8 C 3.68 g/m*3 -1.8 C 4.8 km/h
31 25-01-2019 02:30:00 -1.8 C 3.72 g/m*3 -1.8 C 0 km/h
32 25-01-2019 02:35:00 -1.8 C 3.68 g/m*3 -1.8 C 1.6 km/h
33 25-01-2019 02:40:00 -1.8 C 3.72 g/m*3 -1.8 C 3.2 km/h
34 25-01-2019 02:45:00 -1.8 C 3.72 g/m*3 -1.8 C 3.2 km/h
35 25-01-2019 02:50:00 -1.7 C 3.75 g/m*3 -1.7 C 3.2 km/h
36 25-01-2019 02:55:00 -1.7 C 3.75 g/m*3 -1.7 C 0 km/h
37 25-01-2019 03:00:00 -1.7 C 3.75 g/m*3 -1.7 C 0 km/h
38 25-01-2019 03:05:00 -1.7 C 3.75 g/m*3 -1.7 C 0 km/h
39 25-01-2019 03:10:00 -1.7 C 3.75 g/m*3 -1.7 C 1.6 km/h
40 25-01-2019 03:15:00 -1.7 C 3.75 g/m*3 -1.7 C 1.6 km/h
41 25-01-2019 03:20:00 -1.7 C 3.79 g/m*3 -1.7 C 0 km/h
42 25-01-2019 03:25:00 -1.7 C 3.79 g/m*3 -1.7 C 0 km/h
43 25-01-2019 03:30:00 -1.7 C 3.79 g/m*3 -1.7 C 0 km/h
44 25-01-2019 03:35:00 -1.7 C 3.79 g/m*3 -1.7 C 1.6 km/h
45 25-01-2019 03:40:00 -1.7 C 3.79 g/m*3 -1.7 C 0 km/h
46 25-01-2019 03:45:00 -1.7 C 3.79 g/m*3 -1.7 C 0 km/h
47 25-01-2019 03:50:00 -1.7 C 3.79 g/m*3 -1.7 C 0 km/h
48 25-01-2019 03:55:00 -1.7 C 3.79 g/m*3 -1.7 C 4.8 km/h
49 25-01-2019 04:00:00 -1.6 C 3.81 g/m*3 -1.6 C 0 km/h
50 25-01-2019 04:05:00 -1.6 C 3.81 g/m*3 -1.6 C 0 km/h
Sensor: Nr:Datum:Temp:Abs-Feuchte:Windchill:Wind:
Aussen-T/F 51 25-01-2019 04:10:00 -1.6 C 3.81 g/m*3 -1.6 C 0 km/h
52 25-01-2019 04:15:00 -1.6 C 3.81 g/m*3 -1.6 C 0 km/h
53 25-01-2019 04:20:00 -1.6 C 3.81 g/m*3 -1.6 C 0 km/h
54 25-01-2019 04:25:00 -1.6 C 3.81 g/m*3 -1.6 C 1.6 km/h
55 25-01-2019 04:30:00 -1.6 C 3.81 g/m*3 -1.6 C 3.2 km/h
56 25-01-2019 04:35:00 -1.6 C 3.86 g/m*3 -1.6 C 4.8 km/h
57 25-01-2019 04:40:00 -1.5 C 3.89 g/m*3 -1.5 C 1.6 km/h
58 25-01-2019 04:45:00 -1.5 C 3.89 g/m*3 -1.5 C 0 km/h
59 25-01-2019 04:50:00 -1.5 C 3.89 g/m*3 -1.5 C 3.2 km/h
60 25-01-2019 04:55:00 -1.5 C 3.89 g/m*3 -1.5 C 3.2 km/h
61 25-01-2019 05:00:00 -1.4 C 3.91 g/m*3 -1.4 C 4.8 km/h
62 25-01-2019 05:05:00 -1.4 C 3.91 g/m*3 -1.4 C 1.6 km/h
63 25-01-2019 05:10:00 -1.4 C 3.91 g/m*3 -1.4 C 0 km/h
64 25-01-2019 05:15:00 -1.4 C 3.91 g/m*3 -1.4 C 0 km/h
65 25-01-2019 05:20:00 -1.4 C 3.91 g/m*3 -1.4 C 1.6 km/h
66 25-01-2019 05:25:00 -1.4 C 3.91 g/m*3 -1.4 C 1.6 km/h
67 25-01-2019 05:30:00 -1.4 C 3.91 g/m*3 -1.4 C 3.2 km/h
68 25-01-2019 05:35:00 -1.4 C 3.91 g/m*3 -1.4 C 1.6 km/h
69 25-01-2019 05:40:00 -1.4 C 3.91 g/m*3 -1.4 C 0 km/h
70 25-01-2019 05:45:00 -1.4 C 3.96 g/m*3 -1.4 C 1.6 km/h
71 25-01-2019 05:50:00 -1.4 C 3.96 g/m*3 -1.4 C 3.2 km/h
72 25-01-2019 05:55:00 -1.4 C 3.96 g/m*3 -1.4 C 3.2 km/h
73 25-01-2019 06:00:00 -1.3 C 3.98 g/m*3 -1.3 C 0 km/h
74 25-01-2019 06:05:00 -1.3 C 3.98 g/m*3 -1.3 C 0 km/h
75 25-01-2019 06:10:00 -1.3 C 3.98 g/m*3 -1.3 C 1.6 km/h
Sensor: Nr:Datum:Temp:Abs-Feuchte:Windchill:Wind:
Aussen-T/F 76 25-01-2019 06:15:00 -1.3 C 3.98 g/m*3 -1.3 C 3.2 km/h
77 25-01-2019 06:20:00 -1.3 C 3.98 g/m*3 -1.3 C 3.2 km/h
78 25-01-2019 06:25:00 -1.3 C 3.98 g/m*3 -1.3 C 1.6 km/h
79 25-01-2019 06:30:00 -1.3 C 3.98 g/m*3 -1.3 C 0 km/h
80 25-01-2019 06:35:00 -1.3 C 3.98 g/m*3 -1.3 C 0 km/h
81 25-01-2019 06:40:00 -1.3 C 3.98 g/m*3 -1.3 C 0 km/h
82 25-01-2019 06:45:00 -1.3 C 3.98 g/m*3 -1.3 C 0 km/h
83 25-01-2019 06:50:00 -1.3 C 3.98 g/m*3 -1.3 C 0 km/h
84 25-01-2019 06:55:00 -1.3 C 3.98 g/m*3 -1.3 C 0 km/h
85 25-01-2019 07:00:00 -1.3 C 3.98 g/m*3 -1.3 C 0 km/h
86 25-01-2019 07:05:00 -1.3 C 3.98 g/m*3 -1.3 C 0 km/h
87 25-01-2019 07:10:00 -1.3 C 3.98 g/m*3 -1.3 C 0 km/h
88 25-01-2019 07:15:00 -1.3 C 3.98 g/m*3 -1.3 C 0 km/h
89 25-01-2019 07:20:00 -1.3 C 3.98 g/m*3 -1.3 C 0 km/h
90 25-01-2019 07:25:00 -1.2 C 4.01 g/m*3 -1.2 C 0 km/h
91 25-01-2019 07:30:00 -1.2 C 4.01 g/m*3 -1.2 C 0 km/h
92 25-01-2019 07:35:00 -1.2 C 4.01 g/m*3 -1.2 C 0 km/h
93 25-01-2019 07:40:00 -1.2 C 4.01 g/m*3 -1.2 C 0 km/h
94 25-01-2019 07:45:00 -1.2 C 4.06 g/m*3 -1.2 C 3.2 km/h
95 25-01-2019 07:50:00 -1.2 C 4.06 g/m*3 -1.2 C 0 km/h
96 25-01-2019 07:55:00 -1.2 C 4.06 g/m*3 -1.2 C 0 km/h
97 25-01-2019 08:00:00 -1.2 C 4.06 g/m*3 -1.2 C 0 km/h
98 25-01-2019 08:05:00 -1.2 C 4.06 g/m*3 -1.2 C 1.6 km/h
99 25-01-2019 08:10:00 -1.2 C 4.06 g/m*3 -1.2 C 0 km/h
100 25-01-2019 08:15:00 -1.2 C 4.06 g/m*3 -1.2 C 0 km/h
Sensor: Nr:Datum:Temp:Abs-Feuchte:Windchill:Wind:
Aussen-T/F 101 25-01-2019 08:20:00 -1.2 C 4.06 g/m*3 -1.2 C 0 km/h
102 25-01-2019 08:25:00 -1.1 C 4.09 g/m*3 -1.1 C 0 km/h
103 25-01-2019 08:30:00 -1.1 C 4.09 g/m*3 -1.1 C 0 km/h
104 25-01-2019 08:35:00 -1.1 C 4.09 g/m*3 -1.1 C 3.2 km/h
105 25-01-2019 08:40:00 -1 C 4.11 g/m*3 -1 C 3.2 km/h
106 25-01-2019 08:45:00 -1 C 4.11 g/m*3 -1 C 0 km/h
107 25-01-2019 08:50:00 -1 C 4.11 g/m*3 -1 C 0 km/h
108 25-01-2019 08:55:00 -0.9 C 4.14 g/m*3 -0.9 C 0 km/h
109 25-01-2019 09:00:00 -0.9 C 4.14 g/m*3 -0.9 C 0 km/h
110 25-01-2019 09:05:00 -0.9 C 4.14 g/m*3 -0.9 C 0 km/h
111 25-01-2019 09:10:00 -0.9 C 4.14 g/m*3 -0.9 C 0 km/h
112 25-01-2019 09:15:00 -0.8 C 4.17 g/m*3 -0.8 C 0 km/h
113 25-01-2019 09:20:00 -0.8 C 4.17 g/m*3 -0.8 C 0 km/h
114 25-01-2019 09:25:00 -0.8 C 4.17 g/m*3 -0.8 C 0 km/h
115 25-01-2019 09:30:00 -0.8 C 4.17 g/m*3 -0.8 C 0 km/h
116 25-01-2019 09:35:00 -0.7 C 4.2 g/m*3 -0.7 C 1.6 km/h
117 25-01-2019 09:40:00 -0.7 C 4.2 g/m*3 -0.7 C 1.6 km/h
118 25-01-2019 09:45:00 -0.6 C 4.23 g/m*3 -0.6 C 3.2 km/h
119 25-01-2019 09:50:00 -0.6 C 4.23 g/m*3 -0.6 C 4.8 km/h
120 25-01-2019 09:55:00 -0.5 C 4.26 g/m*3 -0.5 C 4.8 km/h
121 25-01-2019 10:00:00 -0.5 C 4.26 g/m*3 -0.5 C 4.8 km/h
122 25-01-2019 10:05:00 -0.4 C 4.29 g/m*3 -3.24 C 8.1 km/h
123 25-01-2019 10:10:00 -0.4 C 4.29 g/m*3 -2.64 C 6.4 km/h
124 25-01-2019 10:15:00 -0.3 C 4.32 g/m*3 -3.12 C 8.1 km/h
125 25-01-2019 10:20:00 -0.3 C 4.32 g/m*3 -2.53 C 6.4 km/h
Sensor: Nr:Datum:Temp:Abs-Feuchte:Windchill:Wind:
Aussen-T/F 126 25-01-2019 10:25:00 -0.2 C 4.35 g/m*3 -2.41 C 6.4 km/h
127 25-01-2019 10:30:00 -0.2 C 4.35 g/m*3 -3.88 C 11.3 km/h
128 25-01-2019 10:35:00 -0.1 C 4.38 g/m*3 -2.3 C 6.4 km/h
129 25-01-2019 10:40:00 -0.1 C 4.38 g/m*3 -2.3 C 6.4 km/h
130 25-01-2019 10:45:00 0 C 4.46 g/m*3 -2.77 C 8.1 km/h
131 25-01-2019 10:50:00 0 C 4.41 g/m*3 -2.77 C 8.1 km/h
132 25-01-2019 10:55:00 0.1 C 4.44 g/m*3 -2.07 C 6.4 km/h
133 25-01-2019 11:00:00 0.1 C 4.44 g/m*3 0.1 C 4.8 km/h
134 25-01-2019 11:05:00 0.2 C 4.47 g/m*3 -2.53 C 8.1 km/h
135 25-01-2019 11:10:00 0.3 C 4.5 g/m*3 -1.84 C 6.4 km/h
136 25-01-2019 11:15:00 0.4 C 4.53 g/m*3 -2.3 C 8.1 km/h
137 25-01-2019 11:20:00 0.4 C 4.48 g/m*3 -2.3 C 8.1 km/h
138 25-01-2019 11:25:00 0.5 C 4.51 g/m*3 -1.6 C 6.4 km/h
139 25-01-2019 11:30:00 0.7 C 4.58 g/m*3 -2.4 C 9.7 km/h
140 25-01-2019 11:35:00 0.8 C 4.61 g/m*3 -1.83 C 8.1 km/h
141 25-01-2019 11:40:00 0.9 C 4.64 g/m*3 -1.71 C 8.1 km/h
142 25-01-2019 11:45:00 1 C 4.62 g/m*3 -1.59 C 8.1 km/h
143 25-01-2019 11:50:00 1.1 C 4.65 g/m*3 -1.48 C 8.1 km/h
144 25-01-2019 11:55:00 1.2 C 4.63 g/m*3 -1.36 C 8.1 km/h
145 25-01-2019 12:00:00 1.2 C 4.63 g/m*3 -1.8 C 9.7 km/h
146 25-01-2019 12:05:00 1.2 C 4.63 g/m*3 -1.8 C 9.7 km/h
147 25-01-2019 12:10:00 1.3 C 4.66 g/m*3 -1.69 C 9.7 km/h
148 25-01-2019 12:15:00 1.4 C 4.69 g/m*3 -1.12 C 8.1 km/h
149 25-01-2019 12:20:00 1.5 C 4.67 g/m*3 -0.45 C 6.4 km/h
150 25-01-2019 12:25:00 1.6 C 4.7 g/m*3 -1.33 C 9.7 km/h
Sensor: Nr:Datum:Temp:Abs-Feuchte:Windchill:Wind:
Aussen-T/F 151 25-01-2019 12:30:00 1.7 C 4.68 g/m*3 -1.21 C 9.7 km/h
152 25-01-2019 12:35:00 1.7 C 4.68 g/m*3 -0.77 C 8.1 km/h
153 25-01-2019 12:40:00 1.8 C 4.71 g/m*3 1.8 C 3.2 km/h
154 25-01-2019 12:45:00 1.9 C 4.75 g/m*3 1.9 C 4.8 km/h
155 25-01-2019 12:50:00 2.1 C 4.76 g/m*3 -0.3 C 8.1 km/h
156 25-01-2019 12:55:00 2.2 C 4.73 g/m*3 -0.18 C 8.1 km/h
157 25-01-2019 13:00:00 2.3 C 4.76 g/m*3 -0.49 C 9.7 km/h
158 25-01-2019 13:05:00 2.3 C 4.71 g/m*3 -0.87 C 11.3 km/h
159 25-01-2019 13:10:00 2.4 C 4.68 g/m*3 -1.37 C 14.5 km/h
160 25-01-2019 13:15:00 2.5 C 4.66 g/m*3 -1.25 C 14.5 km/h
161 25-01-2019 13:20:00 2.6 C 4.69 g/m*3 -0.5 C 11.3 km/h
162 25-01-2019 13:25:00 2.6 C 4.63 g/m*3 -0.83 C 12.9 km/h
163 25-01-2019 13:30:00 2.6 C 4.69 g/m*3 2.6 C 4.8 km/h
164 25-01-2019 13:35:00 2.6 C 4.63 g/m*3 -1.87 C 19.3 km/h
165 25-01-2019 13:40:00 2.4 C 4.62 g/m*3 -2.12 C 19.3 km/h
166 25-01-2019 13:45:00 2.4 C 4.62 g/m*3 -0.37 C 9.7 km/h
167 25-01-2019 13:50:00 2.4 C 4.62 g/m*3 -0.37 C 9.7 km/h
168 25-01-2019 13:55:00 2.4 C 4.57 g/m*3 -1.89 C 17.7 km/h
169 25-01-2019 14:00:00 2.3 C 4.54 g/m*3 -0.87 C 11.3 km/h
170 25-01-2019 14:05:00 2.3 C 4.59 g/m*3 -0.49 C 9.7 km/h
171 25-01-2019 14:10:00 2.3 C 4.59 g/m*3 -0.49 C 9.7 km/h
172 25-01-2019 14:15:00 2.3 C 4.59 g/m*3 -0.49 C 9.7 km/h
173 25-01-2019 14:20:00 2.3 C 4.59 g/m*3 -0.87 C 11.3 km/h
174 25-01-2019 14:25:00 2.2 C 4.56 g/m*3 -0.61 C 9.7 km/h
175 25-01-2019 14:30:00 2.2 C 4.56 g/m*3 -0.61 C 9.7 km/h
Sensor: Nr:Datum:Temp:Abs-Feuchte:Windchill:Wind:
Aussen-T/F 176 25-01-2019 14:35:00 2.2 C 4.56 g/m*3 -1.32 C 12.9 km/h
177 25-01-2019 14:40:00 2.2 C 4.56 g/m*3 -1.89 C 16.1 km/h
178 25-01-2019 14:45:00 2.2 C 4.62 g/m*3 -0.99 C 11.3 km/h
179 25-01-2019 14:50:00 2.2 C 4.56 g/m*3 -1.32 C 12.9 km/h
180 25-01-2019 14:55:00 2.2 C 4.56 g/m*3 -1.89 C 16.1 km/h
181 25-01-2019 15:00:00 2.2 C 4.62 g/m*3 -2.14 C 17.7 km/h
182 25-01-2019 15:05:00 2.2 C 4.62 g/m*3 -1.89 C 16.1 km/h
183 25-01-2019 15:10:00 2.2 C 4.62 g/m*3 -1.32 C 12.9 km/h
184 25-01-2019 15:15:00 2.1 C 4.59 g/m*3 -1.11 C 11.3 km/h
185 25-01-2019 15:20:00 2 C 4.56 g/m*3 -3.24 C 24.1 km/h
186 25-01-2019 15:25:00 1.9 C 4.58 g/m*3 -0.97 C 9.7 km/h
187 25-01-2019 15:30:00 1.9 C 4.58 g/m*3 -1.68 C 12.9 km/h
188 25-01-2019 15:35:00 1.9 C 4.58 g/m*3 -0.97 C 9.7 km/h
189 25-01-2019 15:40:00 1.8 C 4.55 g/m*3 -1.47 C 11.3 km/h
190 25-01-2019 15:45:00 1.8 C 4.55 g/m*3 -2.38 C 16.1 km/h
191 25-01-2019 15:50:00 1.8 C 4.55 g/m*3 -1.47 C 11.3 km/h
192 25-01-2019 15:55:00 1.8 C 4.6 g/m*3 -1.47 C 11.3 km/h
193 25-01-2019 16:00:00 1.8 C 4.6 g/m*3 -1.8 C 12.9 km/h
194 25-01-2019 16:05:00 1.8 C 4.6 g/m*3 -1.47 C 11.3 km/h
195 25-01-2019 16:10:00 1.8 C 4.6 g/m*3 -1.09 C 9.7 km/h
196 25-01-2019 16:15:00 1.8 C 4.66 g/m*3 -1.8 C 12.9 km/h
197 25-01-2019 16:20:00 1.7 C 4.63 g/m*3 -1.59 C 11.3 km/h
198 25-01-2019 16:25:00 1.7 C 4.63 g/m*3 -0.77 C 8.1 km/h
199 25-01-2019 16:30:00 1.7 C 4.63 g/m*3 -2.51 C 16.1 km/h
200 25-01-2019 16:35:00 1.7 C 4.68 g/m*3 -2.76 C 17.7 km/h
Sensor: Nr:Datum:Temp:Abs-Feuchte:Windchill:Wind:
Aussen-T/F 201 25-01-2019 16:40:00 1.7 C 4.68 g/m*3 -2.23 C 14.5 km/h
202 25-01-2019 16:45:00 1.6 C 4.65 g/m*3 -1.33 C 9.7 km/h
203 25-01-2019 16:50:00 1.7 C 4.68 g/m*3 -2.23 C 14.5 km/h
204 25-01-2019 16:55:00 1.7 C 4.68 g/m*3 -2.51 C 16.1 km/h
205 25-01-2019 17:00:00 1.7 C 4.68 g/m*3 -2.23 C 14.5 km/h
206 25-01-2019 17:05:00 1.7 C 4.74 g/m*3 -1.59 C 11.3 km/h
207 25-01-2019 17:10:00 1.7 C 4.74 g/m*3 -1.21 C 9.7 km/h
208 25-01-2019 17:15:00 1.7 C 4.74 g/m*3 -2.23 C 14.5 km/h
209 25-01-2019 17:20:00 1.7 C 4.74 g/m*3 -3 C 19.3 km/h
210 25-01-2019 17:25:00 1.7 C 4.74 g/m*3 -1.59 C 11.3 km/h
211 25-01-2019 17:30:00 1.7 C 4.74 g/m*3 -2.23 C 14.5 km/h
212 25-01-2019 17:35:00 1.7 C 4.74 g/m*3 -2.23 C 14.5 km/h
213 25-01-2019 17:40:00 1.7 C 4.74 g/m*3 -2.23 C 14.5 km/h
214 25-01-2019 17:45:00 1.7 C 4.74 g/m*3 -0.22 C 6.4 km/h
215 25-01-2019 17:50:00 1.7 C 4.74 g/m*3 -0.77 C 8.1 km/h
216 25-01-2019 17:55:00 1.7 C 4.74 g/m*3 -0.22 C 6.4 km/h
217 25-01-2019 18:00:00 1.7 C 4.74 g/m*3 -0.22 C 6.4 km/h
218 25-01-2019 18:05:00 1.7 C 4.74 g/m*3 -0.22 C 6.4 km/h
219 25-01-2019 18:10:00 1.7 C 4.74 g/m*3 -0.22 C 6.4 km/h
220 25-01-2019 18:15:00 1.7 C 4.74 g/m*3 -3 C 19.3 km/h
221 25-01-2019 18:20:00 1.8 C 4.77 g/m*3 -2.64 C 17.7 km/h
222 25-01-2019 18:25:00 1.8 C 4.77 g/m*3 -1.09 C 9.7 km/h
223 25-01-2019 18:30:00 1.8 C 4.77 g/m*3 -1.47 C 11.3 km/h
224 25-01-2019 18:35:00 1.8 C 4.77 g/m*3 -2.11 C 14.5 km/h
225 25-01-2019 18:40:00 1.8 C 4.77 g/m*3 -1.09 C 9.7 km/h
Sensor: Nr:Datum:Temp:Abs-Feuchte:Windchill:Wind:
Aussen-T/F 226 25-01-2019 18:45:00 1.8 C 4.77 g/m*3 -1.8 C 12.9 km/h
227 25-01-2019 18:50:00 1.8 C 4.77 g/m*3 -1.47 C 11.3 km/h
228 25-01-2019 18:55:00 1.8 C 4.77 g/m*3 -0.65 C 8.1 km/h
229 25-01-2019 19:00:00 1.8 C 4.77 g/m*3 -1.09 C 9.7 km/h
230 25-01-2019 19:05:00 1.8 C 4.82 g/m*3 -1.09 C 9.7 km/h
231 25-01-2019 19:10:00 1.7 C 4.79 g/m*3 -1.93 C 12.9 km/h
232 25-01-2019 19:15:00 1.7 C 4.85 g/m*3 -0.22 C 6.4 km/h
233 25-01-2019 19:20:00 1.6 C 4.81 g/m*3 -1.33 C 9.7 km/h
234 25-01-2019 19:25:00 1.6 C 4.87 g/m*3 -2.35 C 14.5 km/h
235 25-01-2019 19:30:00 1.4 C 4.8 g/m*3 -1.95 C 11.3 km/h
236 25-01-2019 19:35:00 1.4 C 4.85 g/m*3 -2.6 C 14.5 km/h
237 25-01-2019 19:40:00 1.3 C 4.82 g/m*3 -3.5 C 19.3 km/h
238 25-01-2019 19:45:00 1.3 C 4.82 g/m*3 -2.07 C 11.3 km/h
239 25-01-2019 19:50:00 1.3 C 4.82 g/m*3 -1.24 C 8.1 km/h
240 25-01-2019 19:55:00 1.3 C 4.87 g/m*3 -2.41 C 12.9 km/h
241 25-01-2019 20:00:00 1.4 C 4.91 g/m*3 -1.57 C 9.7 km/h
242 25-01-2019 20:05:00 1.4 C 4.91 g/m*3 -1.57 C 9.7 km/h
243 25-01-2019 20:10:00 1.4 C 4.85 g/m*3 -1.57 C 9.7 km/h
244 25-01-2019 20:15:00 1.4 C 4.85 g/m*3 -2.88 C 16.1 km/h
245 25-01-2019 20:20:00 1.5 C 4.89 g/m*3 -1.45 C 9.7 km/h
246 25-01-2019 20:25:00 1.6 C 4.92 g/m*3 -3.12 C 19.3 km/h
247 25-01-2019 20:30:00 1.6 C 4.92 g/m*3 -1.33 C 9.7 km/h
248 25-01-2019 20:35:00 1.6 C 4.92 g/m*3 -2.63 C 16.1 km/h
249 25-01-2019 20:40:00 1.6 C 4.92 g/m*3 -2.05 C 12.9 km/h
250 25-01-2019 20:45:00 1.5 C 4.89 g/m*3 -1.45 C 9.7 km/h
Sensor: Nr:Datum:Temp:Abs-Feuchte:Windchill:Wind:
Aussen-T/F 251 25-01-2019 20:50:00 1.5 C 4.89 g/m*3 -2.48 C 14.5 km/h
252 25-01-2019 20:55:00 1.5 C 4.89 g/m*3 -2.17 C 12.9 km/h
253 25-01-2019 21:00:00 1.6 C 4.92 g/m*3 -3.35 C 20.9 km/h
254 25-01-2019 21:05:00 1.6 C 4.92 g/m*3 -2.05 C 12.9 km/h
255 25-01-2019 21:10:00 1.6 C 4.92 g/m*3 -3.12 C 19.3 km/h
256 25-01-2019 21:15:00 1.6 C 4.92 g/m*3 -2.35 C 14.5 km/h
257 25-01-2019 21:20:00 1.7 C 4.95 g/m*3 -3 C 19.3 km/h
258 25-01-2019 21:25:00 1.7 C 4.95 g/m*3 -3 C 19.3 km/h
259 25-01-2019 21:30:00 1.7 C 4.95 g/m*3 -2.23 C 14.5 km/h
260 25-01-2019 21:35:00 1.7 C 4.95 g/m*3 -2.51 C 16.1 km/h
261 25-01-2019 21:40:00 1.7 C 4.95 g/m*3 -2.23 C 14.5 km/h
262 25-01-2019 21:45:00 1.7 C 4.95 g/m*3 -2.76 C 17.7 km/h
263 25-01-2019 21:50:00 1.7 C 4.95 g/m*3 -2.23 C 14.5 km/h
264 25-01-2019 21:55:00 1.7 C 4.95 g/m*3 -2.76 C 17.7 km/h
265 25-01-2019 22:00:00 1.7 C 4.95 g/m*3 -2.76 C 17.7 km/h
266 25-01-2019 22:05:00 1.7 C 4.95 g/m*3 -2.23 C 14.5 km/h
267 25-01-2019 22:10:00 1.8 C 4.99 g/m*3 -2.11 C 14.5 km/h
268 25-01-2019 22:15:00 1.8 C 4.99 g/m*3 -2.64 C 17.7 km/h
269 25-01-2019 22:20:00 1.8 C 4.99 g/m*3 -1.8 C 12.9 km/h
270 25-01-2019 22:25:00 1.8 C 4.99 g/m*3 -2.64 C 17.7 km/h
271 25-01-2019 22:30:00 1.8 C 5.04 g/m*3 -1.8 C 12.9 km/h
272 25-01-2019 22:35:00 1.8 C 5.04 g/m*3 -2.38 C 16.1 km/h
273 25-01-2019 22:40:00 1.8 C 5.04 g/m*3 -2.87 C 19.3 km/h
274 25-01-2019 22:45:00 1.8 C 5.04 g/m*3 -2.38 C 16.1 km/h
275 25-01-2019 22:50:00 1.8 C 5.04 g/m*3 -1.8 C 12.9 km/h
Sensor: Nr:Datum:Temp:Abs-Feuchte:Windchill:Wind:
Aussen-T/F 276 25-01-2019 22:55:00 1.8 C 5.1 g/m*3 -2.87 C 19.3 km/h
277 25-01-2019 23:00:00 1.8 C 5.1 g/m*3 -2.11 C 14.5 km/h
278 25-01-2019 23:05:00 1.8 C 5.1 g/m*3 -2.11 C 14.5 km/h
279 25-01-2019 23:10:00 1.8 C 5.1 g/m*3 -2.11 C 14.5 km/h
280 25-01-2019 23:15:00 1.8 C 5.1 g/m*3 -2.11 C 14.5 km/h
281 25-01-2019 23:20:00 1.8 C 5.1 g/m*3 -1.8 C 12.9 km/h
282 25-01-2019 23:25:00 1.8 C 5.1 g/m*3 -2.11 C 14.5 km/h
283 25-01-2019 23:30:00 1.8 C 5.1 g/m*3 -1.47 C 11.3 km/h
284 25-01-2019 23:35:00 1.8 C 5.15 g/m*3 -1.8 C 12.9 km/h
285 25-01-2019 23:40:00 1.8 C 5.15 g/m*3 -2.87 C 19.3 km/h
286 25-01-2019 23:45:00 1.8 C 5.15 g/m*3 -2.38 C 16.1 km/h
287 25-01-2019 23:50:00 1.8 C 5.15 g/m*3 -2.11 C 14.5 km/h
288 25-01-2019 23:55:00 1.8 C 5.15 g/m*3 -2.64 C 17.7 km/h
289 26-01-2019 00:00:00 1.8 C 5.15 g/m*3 -2.11 C 14.5 km/h
290 26-01-2019 00:05:00 1.8 C 5.15 g/m*3 -2.64 C 17.7 km/h
291 26-01-2019 00:10:00 1.8 C 5.15 g/m*3 -3.09 C 20.9 km/h
292 26-01-2019 00:15:00 1.8 C 5.15 g/m*3 -2.38 C 16.1 km/h
293 26-01-2019 00:20:00 1.8 C 5.15 g/m*3 -2.38 C 16.1 km/h
294 26-01-2019 00:25:00 1.8 C 5.15 g/m*3 -4.03 C 29 km/h
295 26-01-2019 00:30:00 1.9 C 5.19 g/m*3 -3.17 C 22.5 km/h
296 26-01-2019 00:35:00 1.9 C 5.19 g/m*3 -2.75 C 19.3 km/h
297 26-01-2019 00:40:00 1.9 C 5.19 g/m*3 -1.35 C 11.3 km/h
298 26-01-2019 00:45:00 1.9 C 5.24 g/m*3 -2.51 C 17.7 km/h
299 26-01-2019 00:50:00 1.9 C 5.24 g/m*3 -1.98 C 14.5 km/h
300 26-01-2019 00:55:00 1.9 C 5.24 g/m*3 -3.17 C 22.5 km/h
Sensor: Nr:Datum:Temp:Abs-Feuchte:Windchill:Wind:
Aussen-T/F 301 26-01-2019 01:00:00 1.9 C 5.24 g/m*3 -2.97 C 20.9 km/h
302 26-01-2019 01:05:00 1.9 C 5.24 g/m*3 -1.98 C 14.5 km/h
303 26-01-2019 01:10:00 1.9 C 5.24 g/m*3 -1.68 C 12.9 km/h
304 26-01-2019 01:15:00 2 C 5.28 g/m*3 -2.14 C 16.1 km/h
305 26-01-2019 01:20:00 2 C 5.28 g/m*3 -1.86 C 14.5 km/h
306 26-01-2019 01:25:00 2.1 C 5.31 g/m*3 -2.26 C 17.7 km/h
307 26-01-2019 01:30:00 2.1 C 5.31 g/m*3 -1.11 C 11.3 km/h
308 26-01-2019 01:35:00 2.1 C 5.31 g/m*3 -2.26 C 17.7 km/h
309 26-01-2019 01:40:00 2.1 C 5.26 g/m*3 -2.5 C 19.3 km/h
310 26-01-2019 01:45:00 2.1 C 5.26 g/m*3 -2.01 C 16.1 km/h
311 26-01-2019 01:50:00 2.1 C 5.26 g/m*3 -2.01 C 16.1 km/h
312 26-01-2019 01:55:00 2.2 C 5.29 g/m*3 -2.14 C 17.7 km/h
313 26-01-2019 02:00:00 2.2 C 5.29 g/m*3 -2.37 C 19.3 km/h
314 26-01-2019 02:05:00 2.2 C 5.29 g/m*3 -2.14 C 17.7 km/h
315 26-01-2019 02:10:00 2.3 C 5.33 g/m*3 -2.24 C 19.3 km/h
316 26-01-2019 02:15:00 2.3 C 5.33 g/m*3 -1.76 C 16.1 km/h
317 26-01-2019 02:20:00 2.3 C 5.33 g/m*3 -2.66 C 22.5 km/h
318 26-01-2019 02:25:00 2.3 C 5.33 g/m*3 -1.2 C 12.9 km/h
319 26-01-2019 02:30:00 2.3 C 5.33 g/m*3 -3.03 C 25.7 km/h
320 26-01-2019 02:35:00 2.4 C 5.37 g/m*3 -2.12 C 19.3 km/h
321 26-01-2019 02:40:00 2.4 C 5.37 g/m*3 -1.64 C 16.1 km/h
322 26-01-2019 02:45:00 2.4 C 5.37 g/m*3 -1.64 C 16.1 km/h
323 26-01-2019 02:50:00 2.4 C 5.37 g/m*3 -1.64 C 16.1 km/h
324 26-01-2019 02:55:00 2.4 C 5.37 g/m*3 -1.07 C 12.9 km/h
325 26-01-2019 03:00:00 2.5 C 5.4 g/m*3 -1.25 C 14.5 km/h
Sensor: Nr:Datum:Temp:Abs-Feuchte:Windchill:Wind:
Aussen-T/F 326 26-01-2019 03:05:00 2.5 C 5.4 g/m*3 -1.52 C 16.1 km/h
327 26-01-2019 03:10:00 2.5 C 5.4 g/m*3 -2.41 C 22.5 km/h
328 26-01-2019 03:15:00 2.5 C 5.35 g/m*3 -1.99 C 19.3 km/h
329 26-01-2019 03:20:00 2.6 C 5.38 g/m*3 -1.64 C 17.7 km/h
330 26-01-2019 03:25:00 2.6 C 5.44 g/m*3 -1.39 C 16.1 km/h
331 26-01-2019 03:30:00 2.6 C 5.44 g/m*3 -1.39 C 16.1 km/h
332 26-01-2019 03:35:00 2.7 C 5.42 g/m*3 -1.51 C 17.7 km/h
333 26-01-2019 03:40:00 2.7 C 5.42 g/m*3 -1.74 C 19.3 km/h
334 26-01-2019 03:45:00 2.7 C 5.42 g/m*3 -1.74 C 19.3 km/h
335 26-01-2019 03:50:00 2.8 C 5.46 g/m*3 -1.14 C 16.1 km/h
336 26-01-2019 03:55:00 2.8 C 5.46 g/m*3 -0.26 C 11.3 km/h
337 26-01-2019 04:00:00 2.8 C 5.46 g/m*3 -1.83 C 20.9 km/h
338 26-01-2019 04:05:00 2.8 C 5.46 g/m*3 -1.83 C 20.9 km/h
339 26-01-2019 04:10:00 2.8 C 5.46 g/m*3 -1.39 C 17.7 km/h
340 26-01-2019 04:15:00 2.9 C 5.49 g/m*3 -1.02 C 16.1 km/h
341 26-01-2019 04:20:00 2.9 C 5.49 g/m*3 -0.46 C 12.9 km/h
342 26-01-2019 04:25:00 2.9 C 5.49 g/m*3 -1.7 C 20.9 km/h
343 26-01-2019 04:30:00 3 C 5.53 g/m*3 -0.63 C 14.5 km/h
344 26-01-2019 04:35:00 3 C 5.53 g/m*3 -0.63 C 14.5 km/h
345 26-01-2019 04:40:00 3.1 C 5.57 g/m*3 -1.64 C 22.5 km/h
346 26-01-2019 04:45:00 3.1 C 5.51 g/m*3 -0.51 C 14.5 km/h
347 26-01-2019 04:50:00 3.2 C 5.6 g/m*3 -0.65 C 16.1 km/h
348 26-01-2019 04:55:00 3.2 C 5.54 g/m*3 -0.89 C 17.7 km/h
349 26-01-2019 05:00:00 3.3 C 5.58 g/m*3 -0.26 C 14.5 km/h
350 26-01-2019 05:05:00 3.3 C 5.58 g/m*3 -1.19 C 20.9 km/h
Sensor: Nr:Datum:Temp:Abs-Feuchte:Windchill:Wind:
Aussen-T/F 351 26-01-2019 05:10:00 3.3 C 5.58 g/m*3 0.34 C 11.3 km/h
352 26-01-2019 05:15:00 3.4 C 5.62 g/m*3 -1.07 C 20.9 km/h
353 26-01-2019 05:20:00 3.4 C 5.62 g/m*3 -0.14 C 14.5 km/h
354 26-01-2019 05:25:00 3.4 C 5.62 g/m*3 0.14 C 12.9 km/h
355 26-01-2019 05:30:00 3.4 C 5.62 g/m*3 -0.64 C 17.7 km/h
356 26-01-2019 05:35:00 3.4 C 5.62 g/m*3 0.14 C 12.9 km/h
357 26-01-2019 05:40:00 3.4 C 5.62 g/m*3 -0.4 C 16.1 km/h
358 26-01-2019 05:45:00 3.4 C 5.62 g/m*3 -0.14 C 14.5 km/h
359 26-01-2019 05:50:00 3.3 C 5.58 g/m*3 -0.99 C 19.3 km/h
360 26-01-2019 05:55:00 3.3 C 5.58 g/m*3 -0.52 C 16.1 km/h
361 26-01-2019 06:00:00 3.3 C 5.58 g/m*3 -0.26 C 14.5 km/h
362 26-01-2019 06:05:00 3.3 C 5.58 g/m*3 0.34 C 11.3 km/h
363 26-01-2019 06:10:00 3.3 C 5.58 g/m*3 -0.26 C 14.5 km/h
364 26-01-2019 06:15:00 3.3 C 5.58 g/m*3 0.02 C 12.9 km/h
365 26-01-2019 06:20:00 3.2 C 5.54 g/m*3 -0.89 C 17.7 km/h
366 26-01-2019 06:25:00 3.2 C 5.6 g/m*3 -0.65 C 16.1 km/h
367 26-01-2019 06:30:00 3.2 C 5.6 g/m*3 -0.89 C 17.7 km/h
368 26-01-2019 06:35:00 3.2 C 5.6 g/m*3 0.22 C 11.3 km/h
369 26-01-2019 06:40:00 3.2 C 5.6 g/m*3 -0.65 C 16.1 km/h
370 26-01-2019 06:45:00 3.2 C 5.6 g/m*3 -0.89 C 17.7 km/h
371 26-01-2019 06:50:00 3.3 C 5.64 g/m*3 0.34 C 11.3 km/h
372 26-01-2019 06:55:00 3.2 C 5.6 g/m*3 -0.1 C 12.9 km/h
373 26-01-2019 07:00:00 3.2 C 5.6 g/m*3 -0.39 C 14.5 km/h
374 26-01-2019 07:05:00 3.2 C 5.6 g/m*3 -0.65 C 16.1 km/h
375 26-01-2019 07:10:00 3.2 C 5.6 g/m*3 -0.39 C 14.5 km/h
Sensor: Nr:Datum:Temp:Abs-Feuchte:Windchill:Wind:
Aussen-T/F 376 26-01-2019 07:15:00 3.2 C 5.6 g/m*3 -0.1 C 12.9 km/h
377 26-01-2019 07:20:00 3.2 C 5.6 g/m*3 -0.65 C 16.1 km/h
378 26-01-2019 07:25:00 3.2 C 5.66 g/m*3 -0.1 C 12.9 km/h
379 26-01-2019 07:30:00 3.3 C 5.7 g/m*3 0.02 C 12.9 km/h
380 26-01-2019 07:35:00 3.3 C 5.7 g/m*3 0.34 C 11.3 km/h
381 26-01-2019 07:40:00 3.3 C 5.7 g/m*3 -0.26 C 14.5 km/h
382 26-01-2019 07:45:00 3.3 C 5.7 g/m*3 0.02 C 12.9 km/h
383 26-01-2019 07:50:00 3.3 C 5.7 g/m*3 -0.52 C 16.1 km/h
384 26-01-2019 07:55:00 3.4 C 5.74 g/m*3 -0.4 C 16.1 km/h
385 26-01-2019 08:00:00 3.4 C 5.74 g/m*3 0.14 C 12.9 km/h
386 26-01-2019 08:05:00 3.6 C 5.82 g/m*3 -0.61 C 19.3 km/h
387 26-01-2019 08:10:00 3.7 C 5.86 g/m*3 -0.48 C 19.3 km/h
388 26-01-2019 08:15:00 3.7 C 5.86 g/m*3 -0.48 C 19.3 km/h
389 26-01-2019 08:20:00 3.7 C 5.86 g/m*3 0.23 C 14.5 km/h
390 26-01-2019 08:25:00 3.8 C 5.9 g/m*3 0.63 C 12.9 km/h
391 26-01-2019 08:30:00 3.8 C 5.9 g/m*3 0.1 C 16.1 km/h
392 26-01-2019 08:35:00 3.8 C 5.9 g/m*3 -0.56 C 20.9 km/h
393 26-01-2019 08:40:00 3.8 C 5.9 g/m*3 0.1 C 16.1 km/h
394 26-01-2019 08:45:00 3.9 C 5.94 g/m*3 0.75 C 12.9 km/h
395 26-01-2019 08:50:00 3.9 C 5.94 g/m*3 0.47 C 14.5 km/h
396 26-01-2019 08:55:00 4 C 5.91 g/m*3 0.34 C 16.1 km/h
397 26-01-2019 09:00:00 4.1 C 5.95 g/m*3 0.24 C 17.7 km/h
398 26-01-2019 09:05:00 4.1 C 5.95 g/m*3 0.02 C 19.3 km/h
399 26-01-2019 09:10:00 4.1 C 5.95 g/m*3 1 C 12.9 km/h
400 26-01-2019 09:15:00 4.2 C 5.99 g/m*3 1.12 C 12.9 km/h
Sensor: Nr:Datum:Temp:Abs-Feuchte:Windchill:Wind:
Aussen-T/F 401 26-01-2019 09:20:00 4.2 C 5.99 g/m*3 0.36 C 17.7 km/h
402 26-01-2019 09:25:00 4.2 C 5.99 g/m*3 0.59 C 16.1 km/h
403 26-01-2019 09:30:00 4.2 C 5.99 g/m*3 0.36 C 17.7 km/h
404 26-01-2019 09:35:00 4.3 C 6.03 g/m*3 -0.62 C 27.4 km/h
405 26-01-2019 09:40:00 4.4 C 6.07 g/m*3 0.4 C 19.3 km/h
406 26-01-2019 09:45:00 4.6 C 6.15 g/m*3 1.09 C 16.1 km/h
407 26-01-2019 09:50:00 4.7 C 6.19 g/m*3 0.06 C 25.7 km/h
408 26-01-2019 09:55:00 4.8 C 6.17 g/m*3 0.9 C 19.3 km/h
409 26-01-2019 10:00:00 4.9 C 6.21 g/m*3 1.7 C 14.5 km/h
410 26-01-2019 10:05:00 4.9 C 6.21 g/m*3 0.32 C 25.7 km/h
411 26-01-2019 10:10:00 4.9 C 6.14 g/m*3 1.46 C 16.1 km/h
412 26-01-2019 10:15:00 4.9 C 6.21 g/m*3 2.99 C 8.1 km/h
413 26-01-2019 10:20:00 4.9 C 6.21 g/m*3 2.27 C 11.3 km/h
414 26-01-2019 10:25:00 4.8 C 6.17 g/m*3 0.9 C 19.3 km/h
415 26-01-2019 10:30:00 4.8 C 6.17 g/m*3 1.58 C 14.5 km/h
416 26-01-2019 10:35:00 4.8 C 6.17 g/m*3 1.58 C 14.5 km/h
417 26-01-2019 10:40:00 4.8 C 6.17 g/m*3 1.85 C 12.9 km/h
418 26-01-2019 10:45:00 4.7 C 6.13 g/m*3 2.76 C 8.1 km/h
419 26-01-2019 10:50:00 4.8 C 6.17 g/m*3 2.49 C 9.7 km/h
420 26-01-2019 10:55:00 4.8 C 6.17 g/m*3 1.34 C 16.1 km/h
421 26-01-2019 11:00:00 4.9 C 6.21 g/m*3 1.7 C 14.5 km/h
422 26-01-2019 11:05:00 4.9 C 6.21 g/m*3 0.83 C 20.9 km/h
423 26-01-2019 11:10:00 5 C 6.25 g/m*3 2.09 C 12.9 km/h
424 26-01-2019 11:15:00 5.1 C 6.29 g/m*3 1.71 C 16.1 km/h
425 26-01-2019 11:20:00 5.1 C 6.29 g/m*3 2.22 C 12.9 km/h
Sensor: Nr:Datum:Temp:Abs-Feuchte:Windchill:Wind:
Aussen-T/F 426 26-01-2019 11:25:00 5.2 C 6.33 g/m*3 2.07 C 14.5 km/h
427 26-01-2019 11:30:00 5.2 C 6.33 g/m*3 2.07 C 14.5 km/h
428 26-01-2019 11:35:00 5.2 C 6.33 g/m*3 1.61 C 17.7 km/h
429 26-01-2019 11:40:00 5.3 C 6.38 g/m*3 1.53 C 19.3 km/h
430 26-01-2019 11:45:00 5.3 C 6.38 g/m*3 2.2 C 14.5 km/h
431 26-01-2019 11:50:00 5.4 C 6.42 g/m*3 2.87 C 11.3 km/h
432 26-01-2019 11:55:00 5.4 C 6.42 g/m*3 1.86 C 17.7 km/h
433 26-01-2019 12:00:00 5.4 C 6.42 g/m*3 1.86 C 17.7 km/h
434 26-01-2019 12:05:00 5.5 C 6.46 g/m*3 2.7 C 12.9 km/h
435 26-01-2019 12:10:00 5.6 C 6.43 g/m*3 2.33 C 16.1 km/h
436 26-01-2019 12:15:00 5.6 C 6.43 g/m*3 2.11 C 17.7 km/h
437 26-01-2019 12:20:00 5.7 C 6.48 g/m*3 2.95 C 12.9 km/h
438 26-01-2019 12:25:00 5.8 C 6.52 g/m*3 3.68 C 9.7 km/h
439 26-01-2019 12:30:00 5.9 C 6.56 g/m*3 3.48 C 11.3 km/h
440 26-01-2019 12:35:00 5.9 C 6.49 g/m*3 2.93 C 14.5 km/h
441 26-01-2019 12:40:00 6 C 6.53 g/m*3 1.89 C 24.1 km/h
442 26-01-2019 12:45:00 6 C 6.53 g/m*3 2.82 C 16.1 km/h
443 26-01-2019 12:50:00 6.1 C 6.58 g/m*3 2.95 C 16.1 km/h
444 26-01-2019 12:55:00 6.2 C 6.62 g/m*3 3.3 C 14.5 km/h
445 26-01-2019 13:00:00 6.2 C 6.62 g/m*3 2.66 C 19.3 km/h
446 26-01-2019 13:05:00 6.1 C 6.58 g/m*3 3.43 C 12.9 km/h
447 26-01-2019 13:10:00 6.1 C 6.58 g/m*3 3.18 C 14.5 km/h
448 26-01-2019 13:15:00 6 C 6.53 g/m*3 2.23 C 20.9 km/h
449 26-01-2019 13:20:00 5.9 C 6.49 g/m*3 3.19 C 12.9 km/h
450 26-01-2019 13:25:00 5.9 C 6.49 g/m*3 2.7 C 16.1 km/h
Sensor: Nr:Datum:Temp:Abs-Feuchte:Windchill:Wind:
Aussen-T/F 451 26-01-2019 13:30:00 5.9 C 6.49 g/m*3 2.29 C 19.3 km/h
452 26-01-2019 13:35:00 5.9 C 6.49 g/m*3 3.48 C 11.3 km/h
453 26-01-2019 13:40:00 5.9 C 6.49 g/m*3 2.93 C 14.5 km/h
454 26-01-2019 13:45:00 5.9 C 6.49 g/m*3 3.19 C 12.9 km/h
455 26-01-2019 13:50:00 5.8 C 6.45 g/m*3 3.07 C 12.9 km/h
456 26-01-2019 13:55:00 5.8 C 6.45 g/m*3 3.68 C 9.7 km/h
457 26-01-2019 14:00:00 5.8 C 6.45 g/m*3 3.07 C 12.9 km/h
458 26-01-2019 14:05:00 5.8 C 6.45 g/m*3 3.07 C 12.9 km/h
459 26-01-2019 14:10:00 5.8 C 6.52 g/m*3 3.36 C 11.3 km/h
460 26-01-2019 14:15:00 5.8 C 6.52 g/m*3 2.36 C 17.7 km/h
461 26-01-2019 14:20:00 5.9 C 6.56 g/m*3 4.63 C 6.4 km/h
462 26-01-2019 14:25:00 5.9 C 6.56 g/m*3 4.17 C 8.1 km/h
463 26-01-2019 14:30:00 5.9 C 6.56 g/m*3 2.93 C 14.5 km/h
464 26-01-2019 14:35:00 6 C 6.6 g/m*3 3.06 C 14.5 km/h
465 26-01-2019 14:40:00 6.1 C 6.65 g/m*3 3.43 C 12.9 km/h
466 26-01-2019 14:45:00 6.1 C 6.58 g/m*3 3.72 C 11.3 km/h
467 26-01-2019 14:50:00 6.2 C 6.69 g/m*3 4.15 C 9.7 km/h
468 26-01-2019 14:55:00 6.2 C 6.62 g/m*3 3.56 C 12.9 km/h
469 26-01-2019 15:00:00 6.3 C 6.66 g/m*3 4.27 C 9.7 km/h
470 26-01-2019 15:05:00 6.3 C 6.66 g/m*3 4.27 C 9.7 km/h
471 26-01-2019 15:10:00 6.3 C 6.59 g/m*3 3.43 C 14.5 km/h
472 26-01-2019 15:15:00 6.3 C 6.59 g/m*3 4.27 C 9.7 km/h
473 26-01-2019 15:20:00 6.3 C 6.59 g/m*3 3.43 C 14.5 km/h
474 26-01-2019 15:25:00 6.2 C 6.55 g/m*3 3.56 C 12.9 km/h
475 26-01-2019 15:30:00 6.2 C 6.55 g/m*3 4.52 C 8.1 km/h
Sensor: Nr:Datum:Temp:Abs-Feuchte:Windchill:Wind:
Aussen-T/F 476 26-01-2019 15:35:00 6.2 C 6.55 g/m*3 3.3 C 14.5 km/h
477 26-01-2019 15:40:00 6.2 C 6.55 g/m*3 4.15 C 9.7 km/h
478 26-01-2019 15:45:00 6.1 C 6.5 g/m*3 4.04 C 9.7 km/h
479 26-01-2019 15:50:00 6.1 C 6.5 g/m*3 4.4 C 8.1 km/h
480 26-01-2019 15:55:00 6.1 C 6.58 g/m*3 4.86 C 6.4 km/h
481 26-01-2019 16:00:00 6.1 C 6.58 g/m*3 4.86 C 6.4 km/h
482 26-01-2019 16:05:00 6.1 C 6.58 g/m*3 3.72 C 11.3 km/h
483 26-01-2019 16:10:00 6 C 6.53 g/m*3 6 C 4.8 km/h
484 26-01-2019 16:15:00 6 C 6.53 g/m*3 4.75 C 6.4 km/h
485 26-01-2019 16:20:00 6 C 6.53 g/m*3 6 C 4.8 km/h
486 26-01-2019 16:25:00 5.9 C 6.49 g/m*3 4.17 C 8.1 km/h
487 26-01-2019 16:30:00 5.9 C 6.49 g/m*3 4.17 C 8.1 km/h
488 26-01-2019 16:35:00 5.9 C 6.49 g/m*3 5.9 C 3.2 km/h
489 26-01-2019 16:40:00 5.9 C 6.49 g/m*3 4.63 C 6.4 km/h
490 26-01-2019 16:45:00 5.9 C 6.49 g/m*3 3.48 C 11.3 km/h
491 26-01-2019 16:50:00 5.9 C 6.49 g/m*3 5.9 C 4.8 km/h
492 26-01-2019 16:55:00 5.9 C 6.49 g/m*3 5.9 C 4.8 km/h
493 26-01-2019 17:00:00 5.9 C 6.49 g/m*3 5.9 C 4.8 km/h
494 26-01-2019 17:05:00 5.9 C 6.49 g/m*3 4.17 C 8.1 km/h
495 26-01-2019 17:10:00 5.8 C 6.38 g/m*3 4.05 C 8.1 km/h
496 26-01-2019 17:15:00 5.7 C 6.4 g/m*3 5.7 C 1.6 km/h
497 26-01-2019 17:20:00 5.7 C 6.4 g/m*3 5.7 C 4.8 km/h
498 26-01-2019 17:25:00 5.6 C 6.36 g/m*3 5.6 C 3.2 km/h
499 26-01-2019 17:30:00 5.6 C 6.36 g/m*3 5.6 C 4.8 km/h
500 26-01-2019 17:35:00 5.6 C 6.36 g/m*3 4.29 C 6.4 km/h
Sensor: Nr:Datum:Temp:Abs-Feuchte:Windchill:Wind:
Aussen-T/F 501 26-01-2019 17:40:00 5.4 C 6.28 g/m*3 5.4 C 3.2 km/h
502 26-01-2019 17:45:00 5.3 C 6.24 g/m*3 5.3 C 0 km/h
503 26-01-2019 17:50:00 5.2 C 6.2 g/m*3 5.2 C 3.2 km/h
504 26-01-2019 17:55:00 5.1 C 6.16 g/m*3 5.1 C 1.6 km/h
505 26-01-2019 18:00:00 5.1 C 6.22 g/m*3 5.1 C 0 km/h
506 26-01-2019 18:05:00 5 C 6.18 g/m*3 5 C 1.6 km/h
507 26-01-2019 18:10:00 4.9 C 6.21 g/m*3 4.9 C 1.6 km/h
508 26-01-2019 18:15:00 4.9 C 6.21 g/m*3 4.9 C 0 km/h
509 26-01-2019 18:20:00 4.9 C 6.21 g/m*3 4.9 C 1.6 km/h
510 26-01-2019 18:25:00 4.8 C 6.17 g/m*3 4.8 C 0 km/h
511 26-01-2019 18:30:00 4.8 C 6.17 g/m*3 4.8 C 0 km/h
512 26-01-2019 18:35:00 4.7 C 6.19 g/m*3 4.7 C 0 km/h
513 26-01-2019 18:40:00 4.7 C 6.19 g/m*3 4.7 C 4.8 km/h
514 26-01-2019 18:45:00 4.9 C 6.28 g/m*3 4.9 C 4.8 km/h
515 26-01-2019 18:50:00 5 C 6.39 g/m*3 5 C 1.6 km/h
516 26-01-2019 18:55:00 5 C 6.32 g/m*3 5 C 1.6 km/h
517 26-01-2019 19:00:00 5.1 C 6.36 g/m*3 5.1 C 3.2 km/h
518 26-01-2019 19:05:00 5.1 C 6.43 g/m*3 5.1 C 1.6 km/h
519 26-01-2019 19:10:00 5.1 C 6.43 g/m*3 5.1 C 0 km/h
520 26-01-2019 19:15:00 5.1 C 6.36 g/m*3 5.1 C 1.6 km/h
521 26-01-2019 19:20:00 5 C 6.32 g/m*3 5 C 3.2 km/h
522 26-01-2019 19:25:00 5 C 6.39 g/m*3 5 C 0 km/h
523 26-01-2019 19:30:00 5 C 6.39 g/m*3 5 C 0 km/h
524 26-01-2019 19:35:00 5 C 6.39 g/m*3 5 C 0 km/h
525 26-01-2019 19:40:00 5 C 6.39 g/m*3 5 C 0 km/h
Sensor: Nr:Datum:Temp:Abs-Feuchte:Windchill:Wind:
Aussen-T/F 526 26-01-2019 19:45:00 4.9 C 6.35 g/m*3 4.9 C 0 km/h
527 26-01-2019 19:50:00 4.9 C 6.35 g/m*3 4.9 C 3.2 km/h
528 26-01-2019 19:55:00 4.9 C 6.35 g/m*3 4.9 C 1.6 km/h
529 26-01-2019 20:00:00 5 C 6.39 g/m*3 5 C 1.6 km/h
530 26-01-2019 20:05:00 5.1 C 6.43 g/m*3 2.84 C 9.7 km/h
531 26-01-2019 20:10:00 5.2 C 6.54 g/m*3 3.34 C 8.1 km/h
532 26-01-2019 20:15:00 5.3 C 6.52 g/m*3 3.46 C 8.1 km/h
533 26-01-2019 20:20:00 5.4 C 6.56 g/m*3 5.4 C 4.8 km/h
534 26-01-2019 20:25:00 5.4 C 6.56 g/m*3 5.4 C 0 km/h
535 26-01-2019 20:30:00 5.4 C 6.56 g/m*3 5.4 C 4.8 km/h
536 26-01-2019 20:35:00 5.3 C 6.52 g/m*3 3.94 C 6.4 km/h
537 26-01-2019 20:40:00 5.4 C 6.56 g/m*3 4.06 C 6.4 km/h
538 26-01-2019 20:45:00 5.4 C 6.56 g/m*3 5.4 C 3.2 km/h
539 26-01-2019 20:50:00 5.4 C 6.56 g/m*3 5.4 C 1.6 km/h
540 26-01-2019 20:55:00 5.5 C 6.6 g/m*3 5.5 C 4.8 km/h
541 26-01-2019 21:00:00 5.5 C 6.53 g/m*3 5.5 C 1.6 km/h
542 26-01-2019 21:05:00 5.5 C 6.53 g/m*3 5.5 C 1.6 km/h
543 26-01-2019 21:10:00 5.5 C 6.53 g/m*3 5.5 C 3.2 km/h
544 26-01-2019 21:15:00 5.5 C 6.53 g/m*3 3.32 C 9.7 km/h
545 26-01-2019 21:20:00 5.6 C 6.57 g/m*3 5.6 C 0 km/h
546 26-01-2019 21:25:00 5.6 C 6.57 g/m*3 5.6 C 3.2 km/h
547 26-01-2019 21:30:00 5.7 C 6.62 g/m*3 2.69 C 14.5 km/h
548 26-01-2019 21:35:00 5.7 C 6.62 g/m*3 5.7 C 1.6 km/h
549 26-01-2019 21:40:00 5.7 C 6.62 g/m*3 5.7 C 4.8 km/h
550 26-01-2019 21:45:00 5.7 C 6.62 g/m*3 5.7 C 3.2 km/h
Sensor: Nr:Datum:Temp:Abs-Feuchte:Windchill:Wind:
Aussen-T/F 551 26-01-2019 21:50:00 5.8 C 6.59 g/m*3 4.05 C 8.1 km/h
552 26-01-2019 21:55:00 5.8 C 6.59 g/m*3 4.52 C 6.4 km/h
553 26-01-2019 22:00:00 5.9 C 6.63 g/m*3 4.17 C 8.1 km/h
554 26-01-2019 22:05:00 5.9 C 6.63 g/m*3 5.9 C 0 km/h
555 26-01-2019 22:10:00 5.9 C 6.56 g/m*3 5.9 C 4.8 km/h
556 26-01-2019 22:15:00 5.9 C 6.56 g/m*3 5.9 C 3.2 km/h
557 26-01-2019 22:20:00 5.9 C 6.56 g/m*3 5.9 C 1.6 km/h
558 26-01-2019 22:25:00 6.1 C 6.65 g/m*3 4.86 C 6.4 km/h
559 26-01-2019 22:30:00 6.1 C 6.65 g/m*3 6.1 C 0 km/h
560 26-01-2019 22:35:00 6.1 C 6.65 g/m*3 4.86 C 6.4 km/h
561 26-01-2019 22:40:00 6.1 C 6.65 g/m*3 6.1 C 0 km/h
562 26-01-2019 22:45:00 6 C 6.6 g/m*3 6 C 0 km/h
563 26-01-2019 22:50:00 5.9 C 6.56 g/m*3 5.9 C 0 km/h
564 26-01-2019 22:55:00 5.9 C 6.56 g/m*3 5.9 C 1.6 km/h
565 26-01-2019 23:00:00 5.8 C 6.59 g/m*3 5.8 C 4.8 km/h
566 26-01-2019 23:05:00 5.8 C 6.59 g/m*3 5.8 C 0 km/h
567 26-01-2019 23:10:00 5.7 C 6.55 g/m*3 5.7 C 0 km/h
568 26-01-2019 23:15:00 5.6 C 6.5 g/m*3 5.6 C 0 km/h
569 26-01-2019 23:20:00 5.5 C 6.53 g/m*3 5.5 C 1.6 km/h
570 26-01-2019 23:25:00 5.5 C 6.53 g/m*3 5.5 C 1.6 km/h
571 26-01-2019 23:30:00 5.4 C 6.49 g/m*3 5.4 C 4.8 km/h
572 26-01-2019 23:35:00 5.4 C 6.49 g/m*3 5.4 C 3.2 km/h
573 26-01-2019 23:40:00 5.4 C 6.49 g/m*3 5.4 C 3.2 km/h
574 26-01-2019 23:45:00 5.4 C 6.56 g/m*3 5.4 C 3.2 km/h
575 26-01-2019 23:50:00 5.4 C 6.56 g/m*3 5.4 C 0 km/h
Sensor: Nr:Datum:Temp:Abs-Feuchte:Windchill:Wind:
Aussen-T/F 576 26-01-2019 23:55:00 5.5 C 6.6 g/m*3 5.5 C 1.6 km/h
577 27-01-2019 00:00:00 5.6 C 6.65 g/m*3 3.81 C 8.1 km/h
578 27-01-2019 00:05:00 5.7 C 6.69 g/m*3 2.95 C 12.9 km/h
579 27-01-2019 00:10:00 5.8 C 6.66 g/m*3 3.36 C 11.3 km/h
580 27-01-2019 00:15:00 5.8 C 6.66 g/m*3 5.8 C 3.2 km/h
581 27-01-2019 00:20:00 5.8 C 6.66 g/m*3 4.52 C 6.4 km/h
582 27-01-2019 00:25:00 5.9 C 6.71 g/m*3 3.19 C 12.9 km/h
583 27-01-2019 00:30:00 5.9 C 6.63 g/m*3 4.63 C 6.4 km/h
584 27-01-2019 00:35:00 5.9 C 6.63 g/m*3 5.9 C 0 km/h
585 27-01-2019 00:40:00 5.8 C 6.59 g/m*3 5.8 C 1.6 km/h
586 27-01-2019 00:45:00 5.8 C 6.59 g/m*3 5.8 C 3.2 km/h
587 27-01-2019 00:50:00 5.8 C 6.59 g/m*3 5.8 C 4.8 km/h
588 27-01-2019 00:55:00 5.8 C 6.59 g/m*3 5.8 C 0 km/h
589 27-01-2019 01:00:00 5.7 C 6.62 g/m*3 5.7 C 1.6 km/h
590 27-01-2019 01:05:00 5.7 C 6.62 g/m*3 5.7 C 3.2 km/h
591 27-01-2019 01:10:00 5.7 C 6.62 g/m*3 5.7 C 4.8 km/h
592 27-01-2019 01:15:00 5.8 C 6.66 g/m*3 5.8 C 1.6 km/h
593 27-01-2019 01:20:00 5.7 C 6.62 g/m*3 5.7 C 0 km/h
594 27-01-2019 01:25:00 5.7 C 6.62 g/m*3 5.7 C 0 km/h
595 27-01-2019 01:30:00 5.6 C 6.57 g/m*3 5.6 C 4.8 km/h
596 27-01-2019 01:35:00 5.7 C 6.62 g/m*3 3.56 C 9.7 km/h
597 27-01-2019 01:40:00 5.7 C 6.62 g/m*3 4.4 C 6.4 km/h
598 27-01-2019 01:45:00 5.7 C 6.62 g/m*3 3.93 C 8.1 km/h
599 27-01-2019 01:50:00 5.7 C 6.62 g/m*3 5.7 C 3.2 km/h
600 27-01-2019 01:55:00 5.7 C 6.62 g/m*3 5.7 C 3.2 km/h
Sensor: Nr:Datum:Temp:Abs-Feuchte:Windchill:Wind:
Aussen-T/F 601 27-01-2019 02:00:00 5.7 C 6.62 g/m*3 4.4 C 6.4 km/h
602 27-01-2019 02:05:00 5.8 C 6.66 g/m*3 5.8 C 4.8 km/h
603 27-01-2019 02:10:00 5.8 C 6.66 g/m*3 3.68 C 9.7 km/h
604 27-01-2019 02:15:00 5.8 C 6.66 g/m*3 5.8 C 4.8 km/h
605 27-01-2019 02:20:00 5.9 C 6.63 g/m*3 4.63 C 6.4 km/h
606 27-01-2019 02:25:00 5.9 C 6.63 g/m*3 5.9 C 4.8 km/h
607 27-01-2019 02:30:00 6 C 6.68 g/m*3 4.75 C 6.4 km/h
608 27-01-2019 02:35:00 6.1 C 6.72 g/m*3 4.4 C 8.1 km/h
609 27-01-2019 02:40:00 6.1 C 6.72 g/m*3 4.86 C 6.4 km/h
610 27-01-2019 02:45:00 6.1 C 6.72 g/m*3 6.1 C 4.8 km/h
611 27-01-2019 02:50:00 6.2 C 6.77 g/m*3 6.2 C 3.2 km/h
612 27-01-2019 02:55:00 6.3 C 6.74 g/m*3 6.3 C 4.8 km/h
613 27-01-2019 03:00:00 6.3 C 6.74 g/m*3 6.3 C 3.2 km/h
614 27-01-2019 03:05:00 6.3 C 6.74 g/m*3 4.64 C 8.1 km/h
615 27-01-2019 03:10:00 6.3 C 6.74 g/m*3 6.3 C 4.8 km/h
616 27-01-2019 03:15:00 6.3 C 6.74 g/m*3 3.96 C 11.3 km/h
617 27-01-2019 03:20:00 6.4 C 6.78 g/m*3 4.75 C 8.1 km/h
618 27-01-2019 03:25:00 6.4 C 6.78 g/m*3 5.21 C 6.4 km/h
619 27-01-2019 03:30:00 6.5 C 6.75 g/m*3 6.5 C 4.8 km/h
620 27-01-2019 03:35:00 6.5 C 6.75 g/m*3 6.5 C 4.8 km/h
621 27-01-2019 03:40:00 6.5 C 6.75 g/m*3 5.33 C 6.4 km/h
622 27-01-2019 03:45:00 6.5 C 6.82 g/m*3 6.5 C 3.2 km/h
623 27-01-2019 03:50:00 6.5 C 6.82 g/m*3 6.5 C 1.6 km/h
624 27-01-2019 03:55:00 6.5 C 6.75 g/m*3 5.33 C 6.4 km/h
625 27-01-2019 04:00:00 6.5 C 6.75 g/m*3 6.5 C 1.6 km/h
Sensor: Nr:Datum:Temp:Abs-Feuchte:Windchill:Wind:
Aussen-T/F 626 27-01-2019 04:05:00 6.4 C 6.71 g/m*3 4.39 C 9.7 km/h
627 27-01-2019 04:10:00 6.4 C 6.71 g/m*3 6.4 C 3.2 km/h
628 27-01-2019 04:15:00 6.4 C 6.78 g/m*3 6.4 C 3.2 km/h
629 27-01-2019 04:20:00 6.3 C 6.74 g/m*3 6.3 C 0 km/h
630 27-01-2019 04:25:00 6.2 C 6.69 g/m*3 6.2 C 3.2 km/h
631 27-01-2019 04:30:00 6.2 C 6.77 g/m*3 6.2 C 1.6 km/h
632 27-01-2019 04:35:00 6.1 C 6.65 g/m*3 6.1 C 3.2 km/h
633 27-01-2019 04:40:00 6 C 6.68 g/m*3 4.28 C 8.1 km/h
634 27-01-2019 04:45:00 5.9 C 6.63 g/m*3 4.17 C 8.1 km/h
635 27-01-2019 04:50:00 5.9 C 6.63 g/m*3 5.9 C 4.8 km/h
636 27-01-2019 04:55:00 5.9 C 6.63 g/m*3 4.63 C 6.4 km/h
637 27-01-2019 05:00:00 5.9 C 6.63 g/m*3 3.48 C 11.3 km/h
638 27-01-2019 05:05:00 5.9 C 6.63 g/m*3 5.9 C 3.2 km/h
639 27-01-2019 05:10:00 5.9 C 6.63 g/m*3 5.9 C 3.2 km/h
640 27-01-2019 05:15:00 5.9 C 6.63 g/m*3 5.9 C 4.8 km/h
641 27-01-2019 05:20:00 5.9 C 6.63 g/m*3 5.9 C 3.2 km/h
642 27-01-2019 05:25:00 5.9 C 6.63 g/m*3 4.17 C 8.1 km/h
643 27-01-2019 05:30:00 5.9 C 6.56 g/m*3 4.63 C 6.4 km/h
644 27-01-2019 05:35:00 5.9 C 6.56 g/m*3 5.9 C 4.8 km/h
645 27-01-2019 05:40:00 5.9 C 6.56 g/m*3 4.63 C 6.4 km/h
646 27-01-2019 05:45:00 5.9 C 6.56 g/m*3 5.9 C 1.6 km/h
647 27-01-2019 05:50:00 5.9 C 6.56 g/m*3 5.9 C 3.2 km/h
648 27-01-2019 05:55:00 5.9 C 6.56 g/m*3 4.63 C 6.4 km/h
649 27-01-2019 06:00:00 5.9 C 6.56 g/m*3 3.48 C 11.3 km/h
650 27-01-2019 06:05:00 6 C 6.6 g/m*3 6 C 1.6 km/h
Sensor: Nr:Datum:Temp:Abs-Feuchte:Windchill:Wind:
Aussen-T/F 651 27-01-2019 06:10:00 6.1 C 6.65 g/m*3 3.43 C 12.9 km/h
652 27-01-2019 06:15:00 6.1 C 6.58 g/m*3 6.1 C 1.6 km/h
653 27-01-2019 06:20:00 6.1 C 6.58 g/m*3 6.1 C 4.8 km/h
654 27-01-2019 06:25:00 6.1 C 6.58 g/m*3 3.18 C 14.5 km/h
655 27-01-2019 06:30:00 6.2 C 6.62 g/m*3 3.84 C 11.3 km/h
656 27-01-2019 06:35:00 6.2 C 6.62 g/m*3 6.2 C 3.2 km/h
657 27-01-2019 06:40:00 6.2 C 6.62 g/m*3 6.2 C 1.6 km/h
658 27-01-2019 06:45:00 6.2 C 6.62 g/m*3 6.2 C 3.2 km/h
659 27-01-2019 06:50:00 6.2 C 6.69 g/m*3 4.52 C 8.1 km/h
660 27-01-2019 06:55:00 6.3 C 6.74 g/m*3 5.1 C 6.4 km/h
661 27-01-2019 07:00:00 6.4 C 6.78 g/m*3 4.08 C 11.3 km/h
662 27-01-2019 07:05:00 6.4 C 6.71 g/m*3 6.4 C 4.8 km/h
663 27-01-2019 07:10:00 6.4 C 6.71 g/m*3 6.4 C 1.6 km/h
664 27-01-2019 07:15:00 6.5 C 6.82 g/m*3 6.5 C 4.8 km/h
665 27-01-2019 07:20:00 6.5 C 6.82 g/m*3 6.5 C 3.2 km/h
666 27-01-2019 07:25:00 6.6 C 6.87 g/m*3 5.44 C 6.4 km/h
667 27-01-2019 07:30:00 6.6 C 6.87 g/m*3 5.44 C 6.4 km/h
668 27-01-2019 07:35:00 6.6 C 6.87 g/m*3 6.6 C 3.2 km/h
669 27-01-2019 07:40:00 6.6 C 6.87 g/m*3 4.99 C 8.1 km/h
670 27-01-2019 07:45:00 6.6 C 6.87 g/m*3 6.6 C 1.6 km/h
671 27-01-2019 07:50:00 6.6 C 6.87 g/m*3 6.6 C 4.8 km/h
672 27-01-2019 07:55:00 6.4 C 6.78 g/m*3 6.4 C 3.2 km/h
673 27-01-2019 08:00:00 6.4 C 6.78 g/m*3 5.21 C 6.4 km/h
674 27-01-2019 08:05:00 6.4 C 6.78 g/m*3 6.4 C 3.2 km/h
675 27-01-2019 08:10:00 6.6 C 6.87 g/m*3 4.63 C 9.7 km/h
Sensor: Nr:Datum:Temp:Abs-Feuchte:Windchill:Wind:
Aussen-T/F 676 27-01-2019 08:15:00 6.6 C 6.79 g/m*3 6.6 C 1.6 km/h
677 27-01-2019 08:20:00 6.6 C 6.79 g/m*3 5.44 C 6.4 km/h
678 27-01-2019 08:25:00 6.6 C 6.79 g/m*3 6.6 C 4.8 km/h
679 27-01-2019 08:30:00 6.6 C 6.79 g/m*3 6.6 C 3.2 km/h
680 27-01-2019 08:35:00 6.6 C 6.79 g/m*3 6.6 C 3.2 km/h
681 27-01-2019 08:40:00 6.5 C 6.82 g/m*3 6.5 C 1.6 km/h
682 27-01-2019 08:45:00 6.4 C 6.78 g/m*3 4.75 C 8.1 km/h
683 27-01-2019 08:50:00 6.4 C 6.85 g/m*3 3.8 C 12.9 km/h
684 27-01-2019 08:55:00 6.3 C 6.81 g/m*3 3.96 C 11.3 km/h
685 27-01-2019 09:00:00 6.3 C 6.81 g/m*3 5.1 C 6.4 km/h
686 27-01-2019 09:05:00 6.2 C 6.77 g/m*3 4.98 C 6.4 km/h
687 27-01-2019 09:10:00 6.2 C 6.84 g/m*3 3.07 C 16.1 km/h
688 27-01-2019 09:15:00 6.1 C 6.79 g/m*3 2.95 C 16.1 km/h
689 27-01-2019 09:20:00 6.1 C 6.79 g/m*3 4.86 C 6.4 km/h
690 27-01-2019 09:25:00 6 C 6.75 g/m*3 4.75 C 6.4 km/h
691 27-01-2019 09:30:00 5.9 C 6.71 g/m*3 5.9 C 0 km/h
692 27-01-2019 09:35:00 5.9 C 6.71 g/m*3 5.9 C 1.6 km/h
693 27-01-2019 09:40:00 5.9 C 6.71 g/m*3 5.9 C 0 km/h
694 27-01-2019 09:45:00 5.8 C 6.73 g/m*3 5.8 C 0 km/h
695 27-01-2019 09:50:00 5.8 C 6.73 g/m*3 5.8 C 3.2 km/h
696 27-01-2019 09:55:00 5.7 C 6.69 g/m*3 5.7 C 3.2 km/h
697 27-01-2019 10:00:00 5.7 C 6.69 g/m*3 5.7 C 1.6 km/h
698 27-01-2019 10:05:00 5.7 C 6.69 g/m*3 5.7 C 1.6 km/h
699 27-01-2019 10:10:00 5.7 C 6.69 g/m*3 5.7 C 0 km/h
700 27-01-2019 10:15:00 5.6 C 6.65 g/m*3 5.6 C 4.8 km/h
Sensor: Nr:Datum:Temp:Abs-Feuchte:Windchill:Wind:
Aussen-T/F 701 27-01-2019 10:20:00 5.5 C 6.67 g/m*3 5.5 C 1.6 km/h
702 27-01-2019 10:25:00 5.4 C 6.56 g/m*3 5.4 C 3.2 km/h
703 27-01-2019 10:30:00 5.4 C 6.63 g/m*3 5.4 C 3.2 km/h
704 27-01-2019 10:35:00 5.6 C 6.72 g/m*3 5.6 C 3.2 km/h
705 27-01-2019 10:40:00 5.8 C 6.81 g/m*3 5.8 C 3.2 km/h
706 27-01-2019 10:45:00 6 C 6.97 g/m*3 3.92 C 9.7 km/h
707 27-01-2019 10:50:00 6.2 C 6.99 g/m*3 4.98 C 6.4 km/h
708 27-01-2019 10:55:00 6.3 C 7.03 g/m*3 3.68 C 12.9 km/h
709 27-01-2019 11:00:00 6.4 C 7.08 g/m*3 4.75 C 8.1 km/h
710 27-01-2019 11:05:00 6.6 C 7.1 g/m*3 4.99 C 8.1 km/h
711 27-01-2019 11:10:00 6.7 C 7.14 g/m*3 5.56 C 6.4 km/h
712 27-01-2019 11:15:00 6.8 C 7.11 g/m*3 4.56 C 11.3 km/h
713 27-01-2019 11:20:00 6.9 C 7.08 g/m*3 4.41 C 12.9 km/h
714 27-01-2019 11:25:00 7.1 C 7.18 g/m*3 5.23 C 9.7 km/h
715 27-01-2019 11:30:00 7.2 C 7.14 g/m*3 4.77 C 12.9 km/h
716 27-01-2019 11:35:00 7.2 C 7.06 g/m*3 4.11 C 17.7 km/h
717 27-01-2019 11:40:00 7.3 C 7.11 g/m*3 7.3 C 4.8 km/h
718 27-01-2019 11:45:00 7.3 C 7.11 g/m*3 5.16 C 11.3 km/h
719 27-01-2019 11:50:00 7.4 C 7.16 g/m*3 5.93 C 8.1 km/h
720 27-01-2019 11:55:00 7.4 C 7.16 g/m*3 5.28 C 11.3 km/h
721 27-01-2019 12:00:00 7.6 C 7.25 g/m*3 5.82 C 9.7 km/h
722 27-01-2019 12:05:00 7.6 C 7.17 g/m*3 6.6 C 6.4 km/h
723 27-01-2019 12:10:00 7.7 C 7.22 g/m*3 6.71 C 6.4 km/h
724 27-01-2019 12:15:00 7.7 C 7.14 g/m*3 6.28 C 8.1 km/h
725 27-01-2019 12:20:00 7.7 C 7.14 g/m*3 5.94 C 9.7 km/h
Sensor: Nr:Datum:Temp:Abs-Feuchte:Windchill:Wind:
Aussen-T/F 726 27-01-2019 12:25:00 7.7 C 7.05 g/m*3 5.94 C 9.7 km/h
727 27-01-2019 12:30:00 7.7 C 6.97 g/m*3 5.15 C 14.5 km/h
728 27-01-2019 12:35:00 7.7 C 6.97 g/m*3 5.94 C 9.7 km/h
729 27-01-2019 12:40:00 7.8 C 7.1 g/m*3 7.8 C 1.6 km/h
730 27-01-2019 12:45:00 7.7 C 7.05 g/m*3 7.7 C 4.8 km/h
731 27-01-2019 12:50:00 7.7 C 6.97 g/m*3 5.94 C 9.7 km/h
732 27-01-2019 12:55:00 7.7 C 6.97 g/m*3 5.65 C 11.3 km/h
733 27-01-2019 13:00:00 7.6 C 6.93 g/m*3 5.53 C 11.3 km/h
734 27-01-2019 13:05:00 7.6 C 6.93 g/m*3 5.53 C 11.3 km/h
735 27-01-2019 13:10:00 7.6 C 6.93 g/m*3 6.16 C 8.1 km/h
736 27-01-2019 13:15:00 7.6 C 7.01 g/m*3 5.82 C 9.7 km/h
737 27-01-2019 13:20:00 7.6 C 7.01 g/m*3 5.26 C 12.9 km/h
738 27-01-2019 13:25:00 7.6 C 7.01 g/m*3 5.02 C 14.5 km/h
739 27-01-2019 13:30:00 7.7 C 7.05 g/m*3 5.65 C 11.3 km/h
740 27-01-2019 13:35:00 7.8 C 7.18 g/m*3 6.4 C 8.1 km/h
741 27-01-2019 13:40:00 7.8 C 7.1 g/m*3 6.4 C 8.1 km/h
742 27-01-2019 13:45:00 8 C 7.19 g/m*3 6.3 C 9.7 km/h
743 27-01-2019 13:50:00 8.1 C 7.16 g/m*3 6.42 C 9.7 km/h
744 27-01-2019 13:55:00 8.1 C 7.16 g/m*3 6.42 C 9.7 km/h
745 27-01-2019 14:00:00 8.1 C 7.16 g/m*3 7.17 C 6.4 km/h
746 27-01-2019 14:05:00 8.2 C 7.12 g/m*3 6.87 C 8.1 km/h
747 27-01-2019 14:10:00 8.2 C 7.12 g/m*3 5.55 C 16.1 km/h
748 27-01-2019 14:15:00 8.3 C 7.08 g/m*3 7.41 C 6.4 km/h
749 27-01-2019 14:20:00 8.3 C 7.08 g/m*3 6.66 C 9.7 km/h
750 27-01-2019 14:25:00 8.2 C 7.03 g/m*3 5.55 C 16.1 km/h
Sensor: Nr:Datum:Temp:Abs-Feuchte:Windchill:Wind:
Aussen-T/F 751 27-01-2019 14:30:00 8.1 C 6.99 g/m*3 5.43 C 16.1 km/h
752 27-01-2019 14:35:00 8.1 C 7.07 g/m*3 7.17 C 6.4 km/h
753 27-01-2019 14:40:00 8.2 C 7.12 g/m*3 6.87 C 8.1 km/h
754 27-01-2019 14:45:00 8.2 C 7.12 g/m*3 6.87 C 8.1 km/h
755 27-01-2019 14:50:00 8.1 C 7.07 g/m*3 6.75 C 8.1 km/h
756 27-01-2019 14:55:00 8.1 C 7.07 g/m*3 6.75 C 8.1 km/h
757 27-01-2019 15:00:00 8 C 7.03 g/m*3 6.01 C 11.3 km/h
758 27-01-2019 15:05:00 7.9 C 7.06 g/m*3 5.89 C 11.3 km/h
759 27-01-2019 15:10:00 7.9 C 7.06 g/m*3 7.9 C 4.8 km/h
760 27-01-2019 15:15:00 7.9 C 7.06 g/m*3 6.94 C 6.4 km/h
761 27-01-2019 15:20:00 7.9 C 7.15 g/m*3 6.52 C 8.1 km/h
762 27-01-2019 15:25:00 7.8 C 7.1 g/m*3 6.83 C 6.4 km/h
763 27-01-2019 15:30:00 7.8 C 7.18 g/m*3 7.8 C 3.2 km/h
764 27-01-2019 15:35:00 7.7 C 7.22 g/m*3 6.71 C 6.4 km/h
765 27-01-2019 15:40:00 7.6 C 7.17 g/m*3 7.6 C 1.6 km/h
766 27-01-2019 15:45:00 7.5 C 7.2 g/m*3 7.5 C 0 km/h
767 27-01-2019 15:50:00 7.4 C 7.16 g/m*3 7.4 C 3.2 km/h
768 27-01-2019 15:55:00 7.4 C 7.16 g/m*3 7.4 C 0 km/h
769 27-01-2019 16:00:00 7.4 C 7.16 g/m*3 7.4 C 0 km/h
770 27-01-2019 16:05:00 7.3 C 7.11 g/m*3 7.3 C 1.6 km/h
771 27-01-2019 16:10:00 7.3 C 7.19 g/m*3 7.3 C 3.2 km/h
772 27-01-2019 16:15:00 7.2 C 7.06 g/m*3 5.35 C 9.7 km/h
773 27-01-2019 16:20:00 7.1 C 6.94 g/m*3 4.65 C 12.9 km/h
774 27-01-2019 16:25:00 7.1 C 6.94 g/m*3 4.92 C 11.3 km/h
775 27-01-2019 16:30:00 7 C 6.9 g/m*3 4.29 C 14.5 km/h
Sensor: Nr:Datum:Temp:Abs-Feuchte:Windchill:Wind:
Aussen-T/F 776 27-01-2019 16:35:00 7 C 6.82 g/m*3 4.53 C 12.9 km/h
777 27-01-2019 16:40:00 6.9 C 6.77 g/m*3 5.34 C 8.1 km/h
778 27-01-2019 16:45:00 6.9 C 6.77 g/m*3 3.94 C 16.1 km/h
779 27-01-2019 16:50:00 6.8 C 6.73 g/m*3 4.04 C 14.5 km/h
780 27-01-2019 16:55:00 6.8 C 6.73 g/m*3 4.87 C 9.7 km/h
781 27-01-2019 17:00:00 6.8 C 6.73 g/m*3 6.8 C 4.8 km/h
782 27-01-2019 17:05:00 6.7 C 6.69 g/m*3 5.11 C 8.1 km/h
783 27-01-2019 17:10:00 6.7 C 6.69 g/m*3 4.75 C 9.7 km/h
784 27-01-2019 17:15:00 6.6 C 6.64 g/m*3 4.99 C 8.1 km/h
785 27-01-2019 17:20:00 6.6 C 6.64 g/m*3 3.36 C 17.7 km/h
786 27-01-2019 17:25:00 6.6 C 6.64 g/m*3 4.32 C 11.3 km/h
787 27-01-2019 17:30:00 6.6 C 6.64 g/m*3 3.57 C 16.1 km/h
788 27-01-2019 17:35:00 6.6 C 6.64 g/m*3 3.17 C 19.3 km/h
789 27-01-2019 17:40:00 6.6 C 6.64 g/m*3 3.17 C 19.3 km/h
790 27-01-2019 17:45:00 6.6 C 6.57 g/m*3 3.57 C 16.1 km/h
791 27-01-2019 17:50:00 6.5 C 6.52 g/m*3 2.53 C 24.1 km/h
792 27-01-2019 17:55:00 6.3 C 6.44 g/m*3 2.27 C 24.1 km/h
793 27-01-2019 18:00:00 6.1 C 6.43 g/m*3 3.72 C 11.3 km/h
794 27-01-2019 18:05:00 6 C 6.46 g/m*3 4.28 C 8.1 km/h
795 27-01-2019 18:10:00 5.9 C 6.42 g/m*3 3.8 C 9.7 km/h
796 27-01-2019 18:15:00 5.8 C 6.38 g/m*3 4.05 C 8.1 km/h
797 27-01-2019 18:20:00 5.7 C 6.4 g/m*3 3.23 C 11.3 km/h
798 27-01-2019 18:25:00 5.6 C 6.36 g/m*3 3.81 C 8.1 km/h
799 27-01-2019 18:30:00 5.4 C 6.28 g/m*3 2.32 C 14.5 km/h
800 27-01-2019 18:35:00 5.3 C 6.24 g/m*3 1.53 C 19.3 km/h
Sensor: Nr:Datum:Temp:Abs-Feuchte:Windchill:Wind:
Aussen-T/F 801 27-01-2019 18:40:00 5.2 C 6.2 g/m*3 3.82 C 6.4 km/h
802 27-01-2019 18:45:00 5.1 C 6.16 g/m*3 1.71 C 16.1 km/h
803 27-01-2019 18:50:00 5 C 6.12 g/m*3 3.11 C 8.1 km/h
804 27-01-2019 18:55:00 4.9 C 6.01 g/m*3 2.61 C 9.7 km/h
805 27-01-2019 19:00:00 4.8 C 6.04 g/m*3 3.36 C 6.4 km/h
806 27-01-2019 19:05:00 4.8 C 6.04 g/m*3 2.87 C 8.1 km/h
807 27-01-2019 19:10:00 4.7 C 6 g/m*3 2.03 C 11.3 km/h
808 27-01-2019 19:15:00 4.6 C 5.96 g/m*3 1.61 C 12.9 km/h
809 27-01-2019 19:20:00 4.6 C 5.96 g/m*3 3.13 C 6.4 km/h
810 27-01-2019 19:25:00 4.5 C 5.98 g/m*3 4.5 C 3.2 km/h
811 27-01-2019 19:30:00 4.5 C 5.92 g/m*3 1.79 C 11.3 km/h
812 27-01-2019 19:35:00 4.4 C 5.94 g/m*3 4.4 C 1.6 km/h
813 27-01-2019 19:40:00 4.4 C 5.94 g/m*3 4.4 C 4.8 km/h
814 27-01-2019 19:45:00 4.4 C 5.94 g/m*3 4.4 C 3.2 km/h
815 27-01-2019 19:50:00 4.4 C 5.94 g/m*3 4.4 C 1.6 km/h
816 27-01-2019 19:55:00 4.3 C 5.9 g/m*3 2.78 C 6.4 km/h
817 27-01-2019 20:00:00 4.2 C 5.86 g/m*3 4.2 C 4.8 km/h
818 27-01-2019 20:05:00 4.2 C 5.86 g/m*3 2.17 C 8.1 km/h
819 27-01-2019 20:10:00 4 C 5.79 g/m*3 0.88 C 12.9 km/h
820 27-01-2019 20:15:00 3.9 C 5.68 g/m*3 1.82 C 8.1 km/h
821 27-01-2019 20:20:00 3.9 C 5.68 g/m*3 1.82 C 8.1 km/h
822 27-01-2019 20:25:00 3.8 C 5.65 g/m*3 2.21 C 6.4 km/h
823 27-01-2019 20:30:00 3.8 C 5.58 g/m*3 0.63 C 12.9 km/h
824 27-01-2019 20:35:00 3.8 C 5.52 g/m*3 0.94 C 11.3 km/h
825 27-01-2019 20:40:00 3.8 C 5.46 g/m*3 1.29 C 9.7 km/h
Sensor: Nr:Datum:Temp:Abs-Feuchte:Windchill:Wind:
Aussen-T/F 826 27-01-2019 20:45:00 3.8 C 5.46 g/m*3 2.21 C 6.4 km/h
827 27-01-2019 20:50:00 3.8 C 5.52 g/m*3 3.8 C 3.2 km/h
828 27-01-2019 20:55:00 3.7 C 5.42 g/m*3 1.58 C 8.1 km/h
829 27-01-2019 21:00:00 3.7 C 5.42 g/m*3 3.7 C 3.2 km/h
830 27-01-2019 21:05:00 3.7 C 5.48 g/m*3 3.7 C 3.2 km/h
831 27-01-2019 21:10:00 3.7 C 5.48 g/m*3 3.7 C 3.2 km/h
832 27-01-2019 21:15:00 3.6 C 5.45 g/m*3 3.6 C 1.6 km/h
833 27-01-2019 21:20:00 3.6 C 5.51 g/m*3 3.6 C 1.6 km/h
834 27-01-2019 21:25:00 3.4 C 5.44 g/m*3 3.4 C 0 km/h
835 27-01-2019 21:30:00 3.3 C 5.4 g/m*3 3.3 C 4.8 km/h
836 27-01-2019 21:35:00 3.3 C 5.4 g/m*3 1.11 C 8.1 km/h
837 27-01-2019 21:40:00 3.3 C 5.4 g/m*3 0.7 C 9.7 km/h
838 27-01-2019 21:45:00 3.3 C 5.46 g/m*3 0.7 C 9.7 km/h
839 27-01-2019 21:50:00 3.3 C 5.46 g/m*3 1.11 C 8.1 km/h
840 27-01-2019 21:55:00 3.3 C 5.46 g/m*3 3.3 C 3.2 km/h
841 27-01-2019 22:00:00 3.3 C 5.46 g/m*3 1.63 C 6.4 km/h
842 27-01-2019 22:05:00 3.3 C 5.46 g/m*3 1.63 C 6.4 km/h
843 27-01-2019 22:10:00 3.3 C 5.46 g/m*3 1.63 C 6.4 km/h
844 27-01-2019 22:15:00 3.2 C 5.42 g/m*3 1.51 C 6.4 km/h
845 27-01-2019 22:20:00 3.2 C 5.42 g/m*3 3.2 C 4.8 km/h
846 27-01-2019 22:25:00 3.2 C 5.42 g/m*3 3.2 C 4.8 km/h
847 27-01-2019 22:30:00 3.2 C 5.42 g/m*3 0.99 C 8.1 km/h
848 27-01-2019 22:35:00 3.3 C 5.46 g/m*3 3.3 C 4.8 km/h
849 27-01-2019 22:40:00 3.3 C 5.46 g/m*3 3.3 C 3.2 km/h
850 27-01-2019 22:45:00 3.2 C 5.36 g/m*3 1.51 C 6.4 km/h
Sensor: Nr:Datum:Temp:Abs-Feuchte:Windchill:Wind:
Aussen-T/F 851 27-01-2019 22:50:00 3.3 C 5.4 g/m*3 -0.76 C 17.7 km/h
852 27-01-2019 22:55:00 3.3 C 5.4 g/m*3 0.7 C 9.7 km/h
853 27-01-2019 23:00:00 3.4 C 5.37 g/m*3 0.46 C 11.3 km/h
854 27-01-2019 23:05:00 3.5 C 5.41 g/m*3 0.58 C 11.3 km/h
855 27-01-2019 23:10:00 3.4 C 5.37 g/m*3 0.82 C 9.7 km/h
856 27-01-2019 23:15:00 3.4 C 5.31 g/m*3 0.82 C 9.7 km/h
857 27-01-2019 23:20:00 3.3 C 5.34 g/m*3 0.7 C 9.7 km/h
858 27-01-2019 23:25:00 3.2 C 5.3 g/m*3 3.2 C 4.8 km/h
859 27-01-2019 23:30:00 3.1 C 5.27 g/m*3 1.4 C 6.4 km/h
860 27-01-2019 23:35:00 2.9 C 5.26 g/m*3 -0.14 C 11.3 km/h
861 27-01-2019 23:40:00 2.9 C 5.26 g/m*3 0.64 C 8.1 km/h
862 27-01-2019 23:45:00 3 C 5.29 g/m*3 0.76 C 8.1 km/h
863 27-01-2019 23:50:00 2.9 C 5.26 g/m*3 0.64 C 8.1 km/h
864 27-01-2019 23:55:00 2.8 C 5.22 g/m*3 2.8 C 4.8 km/h
865 28-01-2019 00:00:00 2.8 C 5.28 g/m*3 0.52 C 8.1 km/h
866 28-01-2019 00:05:00 2.8 C 5.28 g/m*3 0.52 C 8.1 km/h
867 28-01-2019 00:10:00 2.8 C 5.28 g/m*3 0.52 C 8.1 km/h
868 28-01-2019 00:15:00 2.8 C 5.28 g/m*3 0.1 C 9.7 km/h
869 28-01-2019 00:20:00 2.9 C 5.32 g/m*3 0.22 C 9.7 km/h
870 28-01-2019 00:25:00 3.1 C 5.39 g/m*3 -0.22 C 12.9 km/h
871 28-01-2019 00:30:00 3.2 C 5.42 g/m*3 -0.1 C 12.9 km/h
872 28-01-2019 00:35:00 3.2 C 5.42 g/m*3 -0.39 C 14.5 km/h
873 28-01-2019 00:40:00 3.2 C 5.42 g/m*3 -0.39 C 14.5 km/h
874 28-01-2019 00:45:00 3.3 C 5.4 g/m*3 -0.76 C 17.7 km/h
875 28-01-2019 00:50:00 3.3 C 5.4 g/m*3 1.11 C 8.1 km/h
Sensor: Nr:Datum:Temp:Abs-Feuchte:Windchill:Wind:
Aussen-T/F 876 28-01-2019 00:55:00 3.4 C 5.44 g/m*3 -0.64 C 17.7 km/h
877 28-01-2019 01:00:00 3.4 C 5.44 g/m*3 -0.4 C 16.1 km/h
878 28-01-2019 01:05:00 3.6 C 5.45 g/m*3 -0.15 C 16.1 km/h
879 28-01-2019 01:10:00 3.6 C 5.45 g/m*3 0.39 C 12.9 km/h
880 28-01-2019 01:15:00 3.6 C 5.45 g/m*3 0.39 C 12.9 km/h
881 28-01-2019 01:20:00 3.5 C 5.41 g/m*3 0.58 C 11.3 km/h
882 28-01-2019 01:25:00 3.4 C 5.37 g/m*3 0.14 C 12.9 km/h
883 28-01-2019 01:30:00 3.3 C 5.34 g/m*3 0.02 C 12.9 km/h
884 28-01-2019 01:35:00 3.3 C 5.34 g/m*3 1.63 C 6.4 km/h
885 28-01-2019 01:40:00 3.3 C 5.4 g/m*3 0.34 C 11.3 km/h
886 28-01-2019 01:45:00 3.3 C 5.4 g/m*3 0.02 C 12.9 km/h
887 28-01-2019 01:50:00 3.3 C 5.4 g/m*3 0.34 C 11.3 km/h
888 28-01-2019 01:55:00 3.3 C 5.4 g/m*3 0.34 C 11.3 km/h
889 28-01-2019 02:00:00 3.3 C 5.4 g/m*3 0.02 C 12.9 km/h
890 28-01-2019 02:05:00 3.4 C 5.44 g/m*3 0.46 C 11.3 km/h
891 28-01-2019 02:10:00 3.4 C 5.44 g/m*3 0.46 C 11.3 km/h
892 28-01-2019 02:15:00 3.3 C 5.4 g/m*3 0.7 C 9.7 km/h
893 28-01-2019 02:20:00 3.3 C 5.4 g/m*3 0.34 C 11.3 km/h
894 28-01-2019 02:25:00 3.2 C 5.36 g/m*3 1.51 C 6.4 km/h
895 28-01-2019 02:30:00 3.2 C 5.36 g/m*3 1.51 C 6.4 km/h
896 28-01-2019 02:35:00 3.1 C 5.39 g/m*3 1.4 C 6.4 km/h
897 28-01-2019 02:40:00 3.1 C 5.39 g/m*3 0.46 C 9.7 km/h
898 28-01-2019 02:45:00 3.1 C 5.39 g/m*3 0.46 C 9.7 km/h
899 28-01-2019 02:50:00 3.1 C 5.39 g/m*3 0.1 C 11.3 km/h
900 28-01-2019 02:55:00 3.1 C 5.33 g/m*3 0.1 C 11.3 km/h
Sensor: Nr:Datum:Temp:Abs-Feuchte:Windchill:Wind:
Aussen-T/F 901 28-01-2019 03:00:00 3.1 C 5.33 g/m*3 0.87 C 8.1 km/h
902 28-01-2019 03:05:00 3.2 C 5.36 g/m*3 0.22 C 11.3 km/h
903 28-01-2019 03:10:00 3.2 C 5.36 g/m*3 -0.1 C 12.9 km/h
904 28-01-2019 03:15:00 3.3 C 5.4 g/m*3 -0.99 C 19.3 km/h
905 28-01-2019 03:20:00 3.3 C 5.4 g/m*3 -0.26 C 14.5 km/h
906 28-01-2019 03:25:00 3.3 C 5.46 g/m*3 0.02 C 12.9 km/h
907 28-01-2019 03:30:00 3.3 C 5.46 g/m*3 -0.26 C 14.5 km/h
908 28-01-2019 03:35:00 3.3 C 5.46 g/m*3 -0.26 C 14.5 km/h
909 28-01-2019 03:40:00 3.3 C 5.46 g/m*3 0.7 C 9.7 km/h
910 28-01-2019 03:45:00 3.2 C 5.48 g/m*3 0.58 C 9.7 km/h
911 28-01-2019 03:50:00 3.2 C 5.48 g/m*3 -0.1 C 12.9 km/h
912 28-01-2019 03:55:00 3.2 C 5.48 g/m*3 -0.39 C 14.5 km/h
913 28-01-2019 04:00:00 3.2 C 5.48 g/m*3 0.22 C 11.3 km/h
914 28-01-2019 04:05:00 3.2 C 5.48 g/m*3 0.99 C 8.1 km/h
915 28-01-2019 04:10:00 3.2 C 5.48 g/m*3 -0.65 C 16.1 km/h
916 28-01-2019 04:15:00 3.1 C 5.45 g/m*3 0.1 C 11.3 km/h
917 28-01-2019 04:20:00 3.2 C 5.48 g/m*3 0.99 C 8.1 km/h
918 28-01-2019 04:25:00 3.2 C 5.48 g/m*3 -0.1 C 12.9 km/h
919 28-01-2019 04:30:00 3.2 C 5.42 g/m*3 -0.1 C 12.9 km/h
920 28-01-2019 04:35:00 3.3 C 5.46 g/m*3 -1.57 C 24.1 km/h
921 28-01-2019 04:40:00 3.3 C 5.46 g/m*3 0.34 C 11.3 km/h
922 28-01-2019 04:45:00 3.3 C 5.46 g/m*3 0.7 C 9.7 km/h
923 28-01-2019 04:50:00 3.3 C 5.46 g/m*3 0.02 C 12.9 km/h
924 28-01-2019 04:55:00 3.3 C 5.46 g/m*3 0.7 C 9.7 km/h
925 28-01-2019 05:00:00 3.2 C 5.42 g/m*3 -0.1 C 12.9 km/h
Sensor: Nr:Datum:Temp:Abs-Feuchte:Windchill:Wind:
Aussen-T/F 926 28-01-2019 05:05:00 3.2 C 5.42 g/m*3 -1.11 C 19.3 km/h
927 28-01-2019 05:10:00 3.2 C 5.42 g/m*3 -0.65 C 16.1 km/h
928 28-01-2019 05:15:00 3.3 C 5.46 g/m*3 -0.26 C 14.5 km/h
929 28-01-2019 05:20:00 3.3 C 5.46 g/m*3 -0.26 C 14.5 km/h
930 28-01-2019 05:25:00 3.3 C 5.46 g/m*3 -0.26 C 14.5 km/h
931 28-01-2019 05:30:00 3.3 C 5.46 g/m*3 0.7 C 9.7 km/h
932 28-01-2019 05:35:00 3.2 C 5.36 g/m*3 -1.32 C 20.9 km/h
933 28-01-2019 05:40:00 3.3 C 5.4 g/m*3 -0.76 C 17.7 km/h
934 28-01-2019 05:45:00 3.3 C 5.4 g/m*3 -0.52 C 16.1 km/h
935 28-01-2019 05:50:00 3.3 C 5.4 g/m*3 0.02 C 12.9 km/h
936 28-01-2019 05:55:00 3.3 C 5.4 g/m*3 -1.39 C 22.5 km/h
937 28-01-2019 06:00:00 3.3 C 5.4 g/m*3 -0.99 C 19.3 km/h
938 28-01-2019 06:05:00 3.3 C 5.4 g/m*3 -0.76 C 17.7 km/h
939 28-01-2019 06:10:00 3.3 C 5.4 g/m*3 -0.99 C 19.3 km/h
940 28-01-2019 06:15:00 3.3 C 5.4 g/m*3 -0.99 C 19.3 km/h
941 28-01-2019 06:20:00 3.3 C 5.4 g/m*3 -0.26 C 14.5 km/h
942 28-01-2019 06:25:00 3.3 C 5.4 g/m*3 -0.76 C 17.7 km/h
943 28-01-2019 06:30:00 3.2 C 5.42 g/m*3 -0.89 C 17.7 km/h
944 28-01-2019 06:35:00 3.1 C 5.39 g/m*3 -1.01 C 17.7 km/h
945 28-01-2019 06:40:00 3.1 C 5.45 g/m*3 -1.83 C 24.1 km/h
946 28-01-2019 06:45:00 3 C 5.41 g/m*3 -1.95 C 24.1 km/h
947 28-01-2019 06:50:00 2.9 C 5.37 g/m*3 -1.49 C 19.3 km/h
948 28-01-2019 06:55:00 2.9 C 5.37 g/m*3 -1.49 C 19.3 km/h
949 28-01-2019 07:00:00 2.9 C 5.43 g/m*3 -2.44 C 27.4 km/h
950 28-01-2019 07:05:00 2.9 C 5.43 g/m*3 -2.26 C 25.7 km/h
Sensor: Nr:Datum:Temp:Abs-Feuchte:Windchill:Wind:
Aussen-T/F 951 28-01-2019 07:10:00 2.8 C 5.4 g/m*3 -1.14 C 16.1 km/h
952 28-01-2019 07:15:00 2.8 C 5.4 g/m*3 -1.14 C 16.1 km/h
953 28-01-2019 07:20:00 2.7 C 5.36 g/m*3 -1.51 C 17.7 km/h
954 28-01-2019 07:25:00 2.7 C 5.42 g/m*3 -1 C 14.5 km/h
955 28-01-2019 07:30:00 2.7 C 5.42 g/m*3 -0.02 C 9.7 km/h
956 28-01-2019 07:35:00 2.7 C 5.42 g/m*3 -0.71 C 12.9 km/h
957 28-01-2019 07:40:00 2.6 C 5.38 g/m*3 -1.39 C 16.1 km/h
958 28-01-2019 07:45:00 2.6 C 5.38 g/m*3 -0.83 C 12.9 km/h
959 28-01-2019 07:50:00 2.6 C 5.44 g/m*3 -1.87 C 19.3 km/h
960 28-01-2019 07:55:00 2.6 C 5.44 g/m*3 -1.64 C 17.7 km/h
961 28-01-2019 08:00:00 2.6 C 5.38 g/m*3 -0.14 C 9.7 km/h
962 28-01-2019 08:05:00 2.5 C 5.35 g/m*3 -0.95 C 12.9 km/h
963 28-01-2019 08:10:00 2.5 C 5.4 g/m*3 -1.99 C 19.3 km/h
964 28-01-2019 08:15:00 2.4 C 5.37 g/m*3 -1.07 C 12.9 km/h
965 28-01-2019 08:20:00 2.5 C 5.4 g/m*3 -1.76 C 17.7 km/h
966 28-01-2019 08:25:00 2.5 C 5.4 g/m*3 -1.99 C 19.3 km/h
967 28-01-2019 08:30:00 2.5 C 5.4 g/m*3 -1.76 C 17.7 km/h
968 28-01-2019 08:35:00 2.5 C 5.35 g/m*3 -1.99 C 19.3 km/h
969 28-01-2019 08:40:00 2.5 C 5.35 g/m*3 -1.76 C 17.7 km/h
970 28-01-2019 08:45:00 2.5 C 5.35 g/m*3 -1.25 C 14.5 km/h
971 28-01-2019 08:50:00 2.5 C 5.4 g/m*3 -1.25 C 14.5 km/h
972 28-01-2019 08:55:00 2.5 C 5.4 g/m*3 -1.52 C 16.1 km/h
973 28-01-2019 09:00:00 2.4 C 5.37 g/m*3 -0.74 C 11.3 km/h
974 28-01-2019 09:05:00 2.4 C 5.37 g/m*3 -1.07 C 12.9 km/h
975 28-01-2019 09:10:00 2.4 C 5.37 g/m*3 -0.37 C 9.7 km/h
Sensor: Nr:Datum:Temp:Abs-Feuchte:Windchill:Wind:
Aussen-T/F 976 28-01-2019 09:15:00 2.3 C 5.33 g/m*3 -0.07 C 8.1 km/h
977 28-01-2019 09:20:00 2.3 C 5.33 g/m*3 -0.07 C 8.1 km/h
978 28-01-2019 09:25:00 2.2 C 5.29 g/m*3 -0.99 C 11.3 km/h
979 28-01-2019 09:30:00 2.1 C 5.26 g/m*3 -1.11 C 11.3 km/h
980 28-01-2019 09:35:00 2.1 C 5.26 g/m*3 -1.44 C 12.9 km/h
981 28-01-2019 09:40:00 2.1 C 5.31 g/m*3 -1.74 C 14.5 km/h
982 28-01-2019 09:45:00 2.2 C 5.35 g/m*3 -0.99 C 11.3 km/h
983 28-01-2019 09:50:00 2.2 C 5.35 g/m*3 -1.62 C 14.5 km/h
984 28-01-2019 09:55:00 2.2 C 5.35 g/m*3 -1.32 C 12.9 km/h
985 28-01-2019 10:00:00 2.2 C 5.35 g/m*3 -0.99 C 11.3 km/h
986 28-01-2019 10:05:00 2.3 C 5.39 g/m*3 -2.01 C 17.7 km/h
987 28-01-2019 10:10:00 2.3 C 5.39 g/m*3 -0.87 C 11.3 km/h
988 28-01-2019 10:15:00 2.3 C 5.39 g/m*3 -1.2 C 12.9 km/h
989 28-01-2019 10:20:00 2.3 C 5.39 g/m*3 -1.49 C 14.5 km/h
990 28-01-2019 10:25:00 2.3 C 5.39 g/m*3 -1.49 C 14.5 km/h
991 28-01-2019 10:30:00 2.4 C 5.42 g/m*3 -0.37 C 9.7 km/h
992 28-01-2019 10:35:00 2.4 C 5.42 g/m*3 -0.37 C 9.7 km/h
993 28-01-2019 10:40:00 2.5 C 5.46 g/m*3 -0.95 C 12.9 km/h
994 28-01-2019 10:45:00 2.6 C 5.5 g/m*3 -0.5 C 11.3 km/h
995 28-01-2019 10:50:00 2.6 C 5.5 g/m*3 -0.5 C 11.3 km/h
996 28-01-2019 10:55:00 2.7 C 5.54 g/m*3 -2.34 C 24.1 km/h
997 28-01-2019 11:00:00 2.7 C 5.54 g/m*3 -1.27 C 16.1 km/h
998 28-01-2019 11:05:00 2.8 C 5.57 g/m*3 0.1 C 9.7 km/h
999 28-01-2019 11:10:00 2.8 C 5.57 g/m*3 -0.88 C 14.5 km/h
1000 28-01-2019 11:15:00 2.9 C 5.61 g/m*3 -0.76 C 14.5 km/h
Sensor: Nr:Datum:Temp:Abs-Feuchte:Windchill:Wind:
Aussen-T/F 1001 28-01-2019 11:20:00 2.9 C 5.61 g/m*3 -0.46 C 12.9 km/h
1002 28-01-2019 11:25:00 2.9 C 5.61 g/m*3 -1.49 C 19.3 km/h
1003 28-01-2019 11:30:00 2.9 C 5.61 g/m*3 -1.26 C 17.7 km/h
1004 28-01-2019 11:35:00 2.9 C 5.61 g/m*3 -0.46 C 12.9 km/h
1005 28-01-2019 11:40:00 3 C 5.65 g/m*3 -0.34 C 12.9 km/h
1006 28-01-2019 11:45:00 3.1 C 5.69 g/m*3 -0.22 C 12.9 km/h
1007 28-01-2019 11:50:00 3.1 C 5.69 g/m*3 0.46 C 9.7 km/h
1008 28-01-2019 11:55:00 3.1 C 5.69 g/m*3 0.46 C 9.7 km/h
1009 28-01-2019 12:00:00 3.1 C 5.69 g/m*3 0.1 C 11.3 km/h
1010 28-01-2019 12:05:00 3.2 C 5.72 g/m*3 -0.65 C 16.1 km/h
1011 28-01-2019 12:10:00 3.2 C 5.72 g/m*3 0.22 C 11.3 km/h
1012 28-01-2019 12:15:00 3.2 C 5.72 g/m*3 0.22 C 11.3 km/h
1013 28-01-2019 12:20:00 3.3 C 5.76 g/m*3 0.7 C 9.7 km/h
1014 28-01-2019 12:25:00 3.3 C 5.76 g/m*3 0.7 C 9.7 km/h
1015 28-01-2019 12:30:00 3.3 C 5.76 g/m*3 0.02 C 12.9 km/h
1016 28-01-2019 12:35:00 3.4 C 5.8 g/m*3 0.46 C 11.3 km/h
1017 28-01-2019 12:40:00 3.4 C 5.74 g/m*3 0.46 C 11.3 km/h
1018 28-01-2019 12:45:00 3.4 C 5.74 g/m*3 0.46 C 11.3 km/h
1019 28-01-2019 12:50:00 3.4 C 5.74 g/m*3 -0.4 C 16.1 km/h
1020 28-01-2019 12:55:00 3.4 C 5.74 g/m*3 1.23 C 8.1 km/h
1021 28-01-2019 13:00:00 3.3 C 5.7 g/m*3 0.7 C 9.7 km/h
1022 28-01-2019 13:05:00 3.3 C 5.7 g/m*3 0.34 C 11.3 km/h
1023 28-01-2019 13:10:00 3.3 C 5.76 g/m*3 1.63 C 6.4 km/h
1024 28-01-2019 13:15:00 3.4 C 5.8 g/m*3 1.75 C 6.4 km/h
1025 28-01-2019 13:20:00 3.4 C 5.8 g/m*3 0.46 C 11.3 km/h
Sensor: Nr:Datum:Temp:Abs-Feuchte:Windchill:Wind:
Aussen-T/F 1026 28-01-2019 13:25:00 3.5 C 5.84 g/m*3 0.27 C 12.9 km/h
1027 28-01-2019 13:30:00 3.6 C 5.88 g/m*3 -0.15 C 16.1 km/h
1028 28-01-2019 13:35:00 3.6 C 5.82 g/m*3 0.39 C 12.9 km/h
1029 28-01-2019 13:40:00 3.7 C 5.86 g/m*3 1.58 C 8.1 km/h
1030 28-01-2019 13:45:00 3.8 C 5.9 g/m*3 0.94 C 11.3 km/h
1031 28-01-2019 13:50:00 3.8 C 5.9 g/m*3 0.63 C 12.9 km/h
1032 28-01-2019 13:55:00 3.9 C 5.87 g/m*3 1.06 C 11.3 km/h
1033 28-01-2019 14:00:00 3.9 C 5.87 g/m*3 0.47 C 14.5 km/h
1034 28-01-2019 14:05:00 4 C 5.85 g/m*3 1.18 C 11.3 km/h
1035 28-01-2019 14:10:00 4.1 C 5.89 g/m*3 0.02 C 19.3 km/h
1036 28-01-2019 14:15:00 4.1 C 5.89 g/m*3 1 C 12.9 km/h
1037 28-01-2019 14:20:00 4.1 C 5.89 g/m*3 1.31 C 11.3 km/h
1038 28-01-2019 14:25:00 4.1 C 5.89 g/m*3 2.05 C 8.1 km/h
1039 28-01-2019 14:30:00 4.1 C 5.89 g/m*3 0.72 C 14.5 km/h
1040 28-01-2019 14:35:00 4 C 5.85 g/m*3 1.18 C 11.3 km/h
1041 28-01-2019 14:40:00 4 C 5.85 g/m*3 1.93 C 8.1 km/h
1042 28-01-2019 14:45:00 4 C 5.85 g/m*3 1.53 C 9.7 km/h
1043 28-01-2019 14:50:00 4 C 5.85 g/m*3 1.18 C 11.3 km/h
1044 28-01-2019 14:55:00 4 C 5.85 g/m*3 0.11 C 17.7 km/h
1045 28-01-2019 15:00:00 4 C 5.79 g/m*3 1.18 C 11.3 km/h
1046 28-01-2019 15:05:00 4.1 C 5.82 g/m*3 -0.37 C 22.5 km/h
1047 28-01-2019 15:10:00 4.1 C 5.82 g/m*3 -0.37 C 22.5 km/h
1048 28-01-2019 15:15:00 4.1 C 5.76 g/m*3 0.47 C 16.1 km/h
1049 28-01-2019 15:20:00 4.1 C 5.76 g/m*3 0.72 C 14.5 km/h
1050 28-01-2019 15:25:00 4.1 C 5.82 g/m*3 1.65 C 9.7 km/h
Sensor: Nr:Datum:Temp:Abs-Feuchte:Windchill:Wind:
Aussen-T/F 1051 28-01-2019 15:30:00 4.1 C 5.82 g/m*3 0.47 C 16.1 km/h
1052 28-01-2019 15:35:00 4 C 5.72 g/m*3 0.6 C 14.5 km/h
1053 28-01-2019 15:40:00 3.9 C 5.75 g/m*3 1.41 C 9.7 km/h
1054 28-01-2019 15:45:00 3.9 C 5.75 g/m*3 1.06 C 11.3 km/h
1055 28-01-2019 15:50:00 3.9 C 5.75 g/m*3 1.82 C 8.1 km/h
1056 28-01-2019 15:55:00 3.9 C 5.68 g/m*3 0.47 C 14.5 km/h
1057 28-01-2019 16:00:00 3.9 C 5.68 g/m*3 0.47 C 14.5 km/h
1058 28-01-2019 16:05:00 3.8 C 5.71 g/m*3 -0.14 C 17.7 km/h
1059 28-01-2019 16:10:00 3.6 C 5.63 g/m*3 -1.36 C 25.7 km/h
1060 28-01-2019 16:15:00 3.5 C 5.6 g/m*3 -0.02 C 14.5 km/h
1061 28-01-2019 16:20:00 3.4 C 5.62 g/m*3 1.23 C 8.1 km/h
1062 28-01-2019 16:25:00 3.3 C 5.58 g/m*3 0.02 C 12.9 km/h
1063 28-01-2019 16:30:00 3.3 C 5.58 g/m*3 1.63 C 6.4 km/h
1064 28-01-2019 16:35:00 3.3 C 5.58 g/m*3 1.63 C 6.4 km/h
1065 28-01-2019 16:40:00 3.3 C 5.58 g/m*3 -0.52 C 16.1 km/h
1066 28-01-2019 16:45:00 3.3 C 5.58 g/m*3 -0.76 C 17.7 km/h
1067 28-01-2019 16:50:00 3.3 C 5.58 g/m*3 0.02 C 12.9 km/h
1068 28-01-2019 16:55:00 3.3 C 5.58 g/m*3 0.02 C 12.9 km/h
1069 28-01-2019 17:00:00 3.2 C 5.54 g/m*3 -0.39 C 14.5 km/h
1070 28-01-2019 17:05:00 3.2 C 5.54 g/m*3 0.22 C 11.3 km/h
1071 28-01-2019 17:10:00 3.1 C 5.51 g/m*3 1.4 C 6.4 km/h
1072 28-01-2019 17:15:00 3.1 C 5.57 g/m*3 0.46 C 9.7 km/h
1073 28-01-2019 17:20:00 3 C 5.53 g/m*3 0.76 C 8.1 km/h
1074 28-01-2019 17:25:00 2.9 C 5.49 g/m*3 0.64 C 8.1 km/h
1075 28-01-2019 17:30:00 2.9 C 5.49 g/m*3 0.64 C 8.1 km/h
Sensor: Nr:Datum:Temp:Abs-Feuchte:Windchill:Wind:
Aussen-T/F 1076 28-01-2019 17:35:00 2.9 C 5.49 g/m*3 2.9 C 3.2 km/h
1077 28-01-2019 17:40:00 2.8 C 5.46 g/m*3 2.8 C 0 km/h
1078 28-01-2019 17:45:00 2.8 C 5.46 g/m*3 -0.59 C 12.9 km/h
1079 28-01-2019 17:50:00 2.9 C 5.49 g/m*3 0.22 C 9.7 km/h
1080 28-01-2019 17:55:00 2.9 C 5.43 g/m*3 2.9 C 3.2 km/h
1081 28-01-2019 18:00:00 2.9 C 5.43 g/m*3 2.9 C 4.8 km/h
1082 28-01-2019 18:05:00 2.8 C 5.46 g/m*3 0.52 C 8.1 km/h
1083 28-01-2019 18:10:00 2.9 C 5.49 g/m*3 0.22 C 9.7 km/h
1084 28-01-2019 18:15:00 2.9 C 5.49 g/m*3 2.9 C 4.8 km/h
1085 28-01-2019 18:20:00 2.9 C 5.49 g/m*3 2.9 C 1.6 km/h
1086 28-01-2019 18:25:00 2.9 C 5.49 g/m*3 2.9 C 1.6 km/h
1087 28-01-2019 18:30:00 2.9 C 5.49 g/m*3 2.9 C 4.8 km/h
1088 28-01-2019 18:35:00 2.8 C 5.46 g/m*3 0.52 C 8.1 km/h
1089 28-01-2019 18:40:00 2.8 C 5.46 g/m*3 0.52 C 8.1 km/h
1090 28-01-2019 18:45:00 2.7 C 5.36 g/m*3 0.4 C 8.1 km/h
1091 28-01-2019 18:50:00 2.6 C 5.32 g/m*3 0.29 C 8.1 km/h
1092 28-01-2019 18:55:00 2.6 C 5.32 g/m*3 2.6 C 4.8 km/h
1093 28-01-2019 19:00:00 2.6 C 5.32 g/m*3 0.29 C 8.1 km/h
1094 28-01-2019 19:05:00 2.6 C 5.32 g/m*3 2.6 C 4.8 km/h
1095 28-01-2019 19:10:00 2.7 C 5.3 g/m*3 -0.02 C 9.7 km/h
1096 28-01-2019 19:15:00 2.8 C 5.28 g/m*3 -0.26 C 11.3 km/h
1097 28-01-2019 19:20:00 2.9 C 5.26 g/m*3 -0.46 C 12.9 km/h
1098 28-01-2019 19:25:00 3 C 5.23 g/m*3 -0.02 C 11.3 km/h
1099 28-01-2019 19:30:00 3.1 C 5.27 g/m*3 -0.51 C 14.5 km/h
1100 28-01-2019 19:35:00 3.2 C 5.24 g/m*3 -0.1 C 12.9 km/h
Sensor: Nr:Datum:Temp:Abs-Feuchte:Windchill:Wind:
Aussen-T/F 1101 28-01-2019 19:40:00 3.2 C 5.18 g/m*3 -0.1 C 12.9 km/h
1102 28-01-2019 19:45:00 3.3 C 5.22 g/m*3 3.3 C 4.8 km/h
1103 28-01-2019 19:50:00 3.3 C 5.34 g/m*3 3.3 C 3.2 km/h
1104 28-01-2019 19:55:00 3.3 C 5.34 g/m*3 1.63 C 6.4 km/h
1105 28-01-2019 20:00:00 3.2 C 5.24 g/m*3 -0.1 C 12.9 km/h
1106 28-01-2019 20:05:00 3.3 C 5.22 g/m*3 0.34 C 11.3 km/h
1107 28-01-2019 20:10:00 3.5 C 5.29 g/m*3 0.58 C 11.3 km/h
1108 28-01-2019 20:15:00 3.6 C 5.32 g/m*3 0.7 C 11.3 km/h
1109 28-01-2019 20:20:00 3.7 C 5.3 g/m*3 1.58 C 8.1 km/h
1110 28-01-2019 20:25:00 3.7 C 5.3 g/m*3 2.09 C 6.4 km/h
1111 28-01-2019 20:30:00 3.6 C 5.26 g/m*3 1.98 C 6.4 km/h
1112 28-01-2019 20:35:00 3.5 C 5.29 g/m*3 -0.51 C 17.7 km/h
1113 28-01-2019 20:40:00 3.4 C 5.25 g/m*3 0.14 C 12.9 km/h
1114 28-01-2019 20:45:00 3.4 C 5.25 g/m*3 1.23 C 8.1 km/h
1115 28-01-2019 20:50:00 3.4 C 5.25 g/m*3 0.46 C 11.3 km/h
1116 28-01-2019 20:55:00 3.3 C 5.22 g/m*3 0.34 C 11.3 km/h
1117 28-01-2019 21:00:00 3.3 C 5.28 g/m*3 3.3 C 4.8 km/h
1118 28-01-2019 21:05:00 3.3 C 5.28 g/m*3 0.34 C 11.3 km/h
1119 28-01-2019 21:10:00 3.3 C 5.28 g/m*3 1.63 C 6.4 km/h
1120 28-01-2019 21:15:00 3.4 C 5.25 g/m*3 1.75 C 6.4 km/h
1121 28-01-2019 21:20:00 3.4 C 5.25 g/m*3 3.4 C 3.2 km/h
1122 28-01-2019 21:25:00 3.4 C 5.31 g/m*3 3.4 C 1.6 km/h
1123 28-01-2019 21:30:00 3.3 C 5.28 g/m*3 3.3 C 4.8 km/h
1124 28-01-2019 21:35:00 3.3 C 5.28 g/m*3 0.02 C 12.9 km/h
1125 28-01-2019 21:40:00 3.3 C 5.28 g/m*3 1.63 C 6.4 km/h
Sensor: Nr:Datum:Temp:Abs-Feuchte:Windchill:Wind:
Aussen-T/F 1126 28-01-2019 21:45:00 3.4 C 5.31 g/m*3 0.82 C 9.7 km/h
1127 28-01-2019 21:50:00 3.4 C 5.31 g/m*3 0.82 C 9.7 km/h
1128 28-01-2019 21:55:00 3.5 C 5.29 g/m*3 0.27 C 12.9 km/h
1129 28-01-2019 22:00:00 3.6 C 5.32 g/m*3 -0.15 C 16.1 km/h
1130 28-01-2019 22:05:00 3.6 C 5.32 g/m*3 1.46 C 8.1 km/h
1131 28-01-2019 22:10:00 3.6 C 5.32 g/m*3 1.98 C 6.4 km/h
1132 28-01-2019 22:15:00 3.6 C 5.32 g/m*3 1.46 C 8.1 km/h
1133 28-01-2019 22:20:00 3.5 C 5.29 g/m*3 0.94 C 9.7 km/h
1134 28-01-2019 22:25:00 3.5 C 5.35 g/m*3 1.86 C 6.4 km/h
1135 28-01-2019 22:30:00 3.4 C 5.31 g/m*3 0.82 C 9.7 km/h
1136 28-01-2019 22:35:00 3.4 C 5.25 g/m*3 0.82 C 9.7 km/h
1137 28-01-2019 22:40:00 3.4 C 5.25 g/m*3 0.14 C 12.9 km/h
1138 28-01-2019 22:45:00 3.4 C 5.25 g/m*3 3.4 C 4.8 km/h
1139 28-01-2019 22:50:00 3.4 C 5.25 g/m*3 0.82 C 9.7 km/h
1140 28-01-2019 22:55:00 3.4 C 5.25 g/m*3 0.14 C 12.9 km/h
1141 28-01-2019 23:00:00 3.5 C 5.29 g/m*3 1.34 C 8.1 km/h
1142 28-01-2019 23:05:00 3.5 C 5.29 g/m*3 1.86 C 6.4 km/h
1143 28-01-2019 23:10:00 3.5 C 5.29 g/m*3 3.5 C 4.8 km/h
1144 28-01-2019 23:15:00 3.4 C 5.25 g/m*3 1.75 C 6.4 km/h
1145 28-01-2019 23:20:00 3.4 C 5.31 g/m*3 1.75 C 6.4 km/h
1146 28-01-2019 23:25:00 3.4 C 5.31 g/m*3 1.23 C 8.1 km/h
1147 28-01-2019 23:30:00 3.3 C 5.34 g/m*3 3.3 C 4.8 km/h
1148 28-01-2019 23:35:00 3.2 C 5.3 g/m*3 3.2 C 4.8 km/h
1149 28-01-2019 23:40:00 3.2 C 5.3 g/m*3 1.51 C 6.4 km/h
1150 28-01-2019 23:45:00 3.1 C 5.27 g/m*3 1.4 C 6.4 km/h
Sensor: Nr:Datum:Temp:Abs-Feuchte:Windchill:Wind:
Aussen-T/F 1151 28-01-2019 23:50:00 3 C 5.23 g/m*3 1.28 C 6.4 km/h
1152 28-01-2019 23:55:00 2.9 C 5.2 g/m*3 0.22 C 9.7 km/h
1153 29-01-2019 00:00:00 2.9 C 5.2 g/m*3 0.64 C 8.1 km/h
1154 29-01-2019 00:05:00 2.9 C 5.2 g/m*3 1.17 C 6.4 km/h
1155 29-01-2019 00:10:00 2.8 C 5.16 g/m*3 2.8 C 3.2 km/h
1156 29-01-2019 00:15:00 2.8 C 5.22 g/m*3 2.8 C 4.8 km/h
1157 29-01-2019 00:20:00 2.8 C 5.22 g/m*3 2.8 C 4.8 km/h
1158 29-01-2019 00:25:00 2.7 C 5.19 g/m*3 2.7 C 3.2 km/h
1159 29-01-2019 00:30:00 2.7 C 5.19 g/m*3 2.7 C 4.8 km/h
1160 29-01-2019 00:35:00 2.7 C 5.19 g/m*3 0.94 C 6.4 km/h
1161 29-01-2019 00:40:00 2.7 C 5.19 g/m*3 0.94 C 6.4 km/h
1162 29-01-2019 00:45:00 2.7 C 5.19 g/m*3 2.7 C 4.8 km/h
1163 29-01-2019 00:50:00 2.7 C 5.19 g/m*3 0.94 C 6.4 km/h
1164 29-01-2019 00:55:00 2.6 C 5.21 g/m*3 2.6 C 4.8 km/h
1165 29-01-2019 01:00:00 2.6 C 5.21 g/m*3 2.6 C 4.8 km/h
1166 29-01-2019 01:05:00 2.6 C 5.21 g/m*3 2.6 C 4.8 km/h
1167 29-01-2019 01:10:00 2.6 C 5.21 g/m*3 0.82 C 6.4 km/h
1168 29-01-2019 01:15:00 2.5 C 5.17 g/m*3 2.5 C 3.2 km/h
1169 29-01-2019 01:20:00 2.6 C 5.21 g/m*3 0.82 C 6.4 km/h
1170 29-01-2019 01:25:00 2.5 C 5.17 g/m*3 2.5 C 4.8 km/h
1171 29-01-2019 01:30:00 2.4 C 5.2 g/m*3 2.4 C 4.8 km/h
1172 29-01-2019 01:35:00 2.3 C 5.16 g/m*3 2.3 C 3.2 km/h
1173 29-01-2019 01:40:00 2.2 C 5.13 g/m*3 2.2 C 4.8 km/h
1174 29-01-2019 01:45:00 2.1 C 5.15 g/m*3 0.24 C 6.4 km/h
1175 29-01-2019 01:50:00 2.1 C 5.15 g/m*3 2.1 C 4.8 km/h
Sensor: Nr:Datum:Temp:Abs-Feuchte:Windchill:Wind:
Aussen-T/F 1176 29-01-2019 01:55:00 2.1 C 5.15 g/m*3 -0.3 C 8.1 km/h
1177 29-01-2019 02:00:00 2.1 C 5.15 g/m*3 0.24 C 6.4 km/h
1178 29-01-2019 02:05:00 2 C 5.11 g/m*3 0.13 C 6.4 km/h
1179 29-01-2019 02:10:00 1.9 C 5.08 g/m*3 -0.54 C 8.1 km/h
1180 29-01-2019 02:15:00 1.9 C 5.13 g/m*3 0.01 C 6.4 km/h
1181 29-01-2019 02:20:00 1.9 C 5.13 g/m*3 -0.54 C 8.1 km/h
1182 29-01-2019 02:25:00 1.9 C 5.13 g/m*3 0.01 C 6.4 km/h
1183 29-01-2019 02:30:00 1.9 C 5.13 g/m*3 1.9 C 4.8 km/h
1184 29-01-2019 02:35:00 1.9 C 5.13 g/m*3 -0.54 C 8.1 km/h
1185 29-01-2019 02:40:00 1.9 C 5.13 g/m*3 -0.97 C 9.7 km/h
1186 29-01-2019 02:45:00 1.9 C 5.13 g/m*3 -0.54 C 8.1 km/h
1187 29-01-2019 02:50:00 1.9 C 5.13 g/m*3 1.9 C 4.8 km/h
1188 29-01-2019 02:55:00 1.8 C 5.1 g/m*3 1.8 C 3.2 km/h
1189 29-01-2019 03:00:00 1.7 C 5.06 g/m*3 1.7 C 3.2 km/h
1190 29-01-2019 03:05:00 1.7 C 5.06 g/m*3 1.7 C 3.2 km/h
1191 29-01-2019 03:10:00 1.7 C 5.12 g/m*3 1.7 C 4.8 km/h
1192 29-01-2019 03:15:00 1.7 C 5.12 g/m*3 1.7 C 4.8 km/h
1193 29-01-2019 03:20:00 1.7 C 5.12 g/m*3 1.7 C 3.2 km/h
1194 29-01-2019 03:25:00 1.6 C 5.08 g/m*3 1.6 C 4.8 km/h
1195 29-01-2019 03:30:00 1.6 C 5.08 g/m*3 -0.33 C 6.4 km/h
1196 29-01-2019 03:35:00 1.6 C 5.08 g/m*3 1.6 C 3.2 km/h
1197 29-01-2019 03:40:00 1.6 C 5.08 g/m*3 -0.89 C 8.1 km/h
1198 29-01-2019 03:45:00 1.5 C 5.05 g/m*3 -0.45 C 6.4 km/h
1199 29-01-2019 03:50:00 1.4 C 5.01 g/m*3 1.4 C 4.8 km/h
1200 29-01-2019 03:55:00 1.3 C 4.98 g/m*3 1.3 C 1.6 km/h
Sensor: Nr:Datum:Temp:Abs-Feuchte:Windchill:Wind:
Aussen-T/F 1201 29-01-2019 04:00:00 1.2 C 4.95 g/m*3 1.2 C 3.2 km/h
1202 29-01-2019 04:05:00 1.2 C 4.95 g/m*3 -1.36 C 8.1 km/h
1203 29-01-2019 04:10:00 1.1 C 4.91 g/m*3 -1.48 C 8.1 km/h
1204 29-01-2019 04:15:00 1.1 C 4.91 g/m*3 1.1 C 4.8 km/h
1205 29-01-2019 04:20:00 1.1 C 4.91 g/m*3 1.1 C 3.2 km/h
1206 29-01-2019 04:25:00 1 C 4.88 g/m*3 1 C 4.8 km/h
1207 29-01-2019 04:30:00 1 C 4.88 g/m*3 -2.04 C 9.7 km/h
1208 29-01-2019 04:35:00 0.9 C 4.85 g/m*3 -2.55 C 11.3 km/h
1209 29-01-2019 04:40:00 0.9 C 4.85 g/m*3 -2.55 C 11.3 km/h
1210 29-01-2019 04:45:00 1 C 4.88 g/m*3 -1.59 C 8.1 km/h
1211 29-01-2019 04:50:00 1.1 C 4.91 g/m*3 1.1 C 4.8 km/h
1212 29-01-2019 04:55:00 0.9 C 4.85 g/m*3 0.9 C 3.2 km/h
1213 29-01-2019 05:00:00 0.8 C 4.81 g/m*3 0.8 C 3.2 km/h
1214 29-01-2019 05:05:00 0.8 C 4.81 g/m*3 0.8 C 1.6 km/h
1215 29-01-2019 05:10:00 0.7 C 4.78 g/m*3 0.7 C 1.6 km/h
1216 29-01-2019 05:15:00 0.7 C 4.78 g/m*3 0.7 C 4.8 km/h
1217 29-01-2019 05:20:00 0.7 C 4.78 g/m*3 0.7 C 3.2 km/h
1218 29-01-2019 05:25:00 0.6 C 4.75 g/m*3 -2.06 C 8.1 km/h
1219 29-01-2019 05:30:00 0.6 C 4.75 g/m*3 0.6 C 3.2 km/h
1220 29-01-2019 05:35:00 0.6 C 4.75 g/m*3 0.6 C 4.8 km/h
1221 29-01-2019 05:40:00 0.6 C 4.75 g/m*3 0.6 C 3.2 km/h
1222 29-01-2019 05:45:00 0.7 C 4.83 g/m*3 -1.37 C 6.4 km/h
1223 29-01-2019 05:50:00 0.7 C 4.83 g/m*3 -1.95 C 8.1 km/h
1224 29-01-2019 05:55:00 0.8 C 4.86 g/m*3 -1.26 C 6.4 km/h
1225 29-01-2019 06:00:00 0.9 C 4.9 g/m*3 0.9 C 4.8 km/h
Sensor: Nr:Datum:Temp:Abs-Feuchte:Windchill:Wind:
Aussen-T/F 1226 29-01-2019 06:05:00 1 C 4.93 g/m*3 1 C 4.8 km/h
1227 29-01-2019 06:10:00 1 C 4.93 g/m*3 1 C 3.2 km/h
1228 29-01-2019 06:15:00 0.9 C 4.9 g/m*3 0.9 C 1.6 km/h
1229 29-01-2019 06:20:00 0.9 C 4.85 g/m*3 0.9 C 3.2 km/h
1230 29-01-2019 06:25:00 0.9 C 4.9 g/m*3 0.9 C 1.6 km/h
1231 29-01-2019 06:30:00 0.9 C 4.9 g/m*3 0.9 C 3.2 km/h
1232 29-01-2019 06:35:00 0.9 C 4.9 g/m*3 0.9 C 3.2 km/h
1233 29-01-2019 06:40:00 0.9 C 4.9 g/m*3 -1.71 C 8.1 km/h
1234 29-01-2019 06:45:00 1 C 4.93 g/m*3 -2.04 C 9.7 km/h
1235 29-01-2019 06:50:00 1 C 4.93 g/m*3 -1.03 C 6.4 km/h
1236 29-01-2019 06:55:00 1.1 C 4.91 g/m*3 -0.91 C 6.4 km/h
1237 29-01-2019 07:00:00 1.1 C 4.91 g/m*3 -0.91 C 6.4 km/h
1238 29-01-2019 07:05:00 1.1 C 4.91 g/m*3 1.1 C 3.2 km/h
1239 29-01-2019 07:10:00 1.1 C 4.91 g/m*3 1.1 C 4.8 km/h
1240 29-01-2019 07:15:00 1.1 C 4.91 g/m*3 1.1 C 3.2 km/h
1241 29-01-2019 07:20:00 1.2 C 4.95 g/m*3 1.2 C 1.6 km/h
1242 29-01-2019 07:25:00 1.1 C 4.91 g/m*3 1.1 C 1.6 km/h
1243 29-01-2019 07:30:00 1.1 C 4.91 g/m*3 1.1 C 3.2 km/h
1244 29-01-2019 07:35:00 1.2 C 4.95 g/m*3 -0.8 C 6.4 km/h
1245 29-01-2019 07:40:00 1.2 C 4.95 g/m*3 -1.36 C 8.1 km/h
1246 29-01-2019 07:45:00 1.2 C 5 g/m*3 1.2 C 1.6 km/h
1247 29-01-2019 07:50:00 1.2 C 4.95 g/m*3 1.2 C 4.8 km/h
1248 29-01-2019 07:55:00 1.2 C 4.95 g/m*3 -0.8 C 6.4 km/h
1249 29-01-2019 08:00:00 1.2 C 4.95 g/m*3 1.2 C 3.2 km/h
1250 29-01-2019 08:05:00 1.2 C 4.95 g/m*3 1.2 C 0 km/h
Sensor: Nr:Datum:Temp:Abs-Feuchte:Windchill:Wind:
Aussen-T/F 1251 29-01-2019 08:10:00 1.2 C 4.95 g/m*3 -0.8 C 6.4 km/h
1252 29-01-2019 08:15:00 1.2 C 4.95 g/m*3 1.2 C 3.2 km/h
1253 29-01-2019 08:20:00 1.2 C 4.95 g/m*3 1.2 C 4.8 km/h
1254 29-01-2019 08:25:00 1.2 C 4.95 g/m*3 1.2 C 3.2 km/h
1255 29-01-2019 08:30:00 1.2 C 4.95 g/m*3 1.2 C 4.8 km/h
1256 29-01-2019 08:35:00 1.2 C 4.95 g/m*3 1.2 C 4.8 km/h
1257 29-01-2019 08:40:00 1.2 C 4.95 g/m*3 1.2 C 3.2 km/h
1258 29-01-2019 08:45:00 1.2 C 4.95 g/m*3 1.2 C 3.2 km/h
1259 29-01-2019 08:50:00 1.1 C 4.91 g/m*3 1.1 C 1.6 km/h
1260 29-01-2019 08:55:00 1.1 C 4.91 g/m*3 1.1 C 4.8 km/h
1261 29-01-2019 09:00:00 1 C 4.88 g/m*3 1 C 3.2 km/h
1262 29-01-2019 09:05:00 0.9 C 4.85 g/m*3 0.9 C 4.8 km/h
1263 29-01-2019 09:10:00 0.9 C 4.85 g/m*3 -1.14 C 6.4 km/h
1264 29-01-2019 09:15:00 0.8 C 4.81 g/m*3 0.8 C 0 km/h
1265 29-01-2019 09:20:00 0.8 C 4.81 g/m*3 0.8 C 3.2 km/h
1266 29-01-2019 09:25:00 0.8 C 4.81 g/m*3 0.8 C 4.8 km/h
1267 29-01-2019 09:30:00 0.9 C 4.85 g/m*3 -1.14 C 6.4 km/h
1268 29-01-2019 09:35:00 0.9 C 4.85 g/m*3 0.9 C 3.2 km/h
1269 29-01-2019 09:40:00 1.1 C 4.91 g/m*3 1.1 C 4.8 km/h
1270 29-01-2019 09:45:00 1.2 C 4.95 g/m*3 -0.8 C 6.4 km/h
1271 29-01-2019 09:50:00 1.3 C 4.98 g/m*3 1.3 C 4.8 km/h
1272 29-01-2019 09:55:00 1.5 C 5.05 g/m*3 -0.45 C 6.4 km/h
1273 29-01-2019 10:00:00 1.6 C 5.03 g/m*3 -0.33 C 6.4 km/h
1274 29-01-2019 10:05:00 1.7 C 5.06 g/m*3 -0.22 C 6.4 km/h
1275 29-01-2019 10:10:00 1.8 C 5.04 g/m*3 -0.65 C 8.1 km/h
Sensor: Nr:Datum:Temp:Abs-Feuchte:Windchill:Wind:
Aussen-T/F 1276 29-01-2019 10:15:00 1.9 C 5.08 g/m*3 1.9 C 4.8 km/h
1277 29-01-2019 10:20:00 2 C 5.11 g/m*3 2 C 3.2 km/h
1278 29-01-2019 10:25:00 2.1 C 5.09 g/m*3 2.1 C 4.8 km/h
1279 29-01-2019 10:30:00 2.2 C 5.13 g/m*3 2.2 C 4.8 km/h
1280 29-01-2019 10:35:00 2.2 C 5.07 g/m*3 -0.61 C 9.7 km/h
1281 29-01-2019 10:40:00 2.3 C 5.1 g/m*3 2.3 C 4.8 km/h
1282 29-01-2019 10:45:00 2.3 C 5.1 g/m*3 2.3 C 1.6 km/h
1283 29-01-2019 10:50:00 2.3 C 5.05 g/m*3 0.47 C 6.4 km/h
1284 29-01-2019 10:55:00 2.4 C 5.08 g/m*3 2.4 C 4.8 km/h
1285 29-01-2019 11:00:00 2.5 C 5.12 g/m*3 0.71 C 6.4 km/h
1286 29-01-2019 11:05:00 2.6 C 5.15 g/m*3 -0.14 C 9.7 km/h
1287 29-01-2019 11:10:00 2.7 C 5.13 g/m*3 0.4 C 8.1 km/h
1288 29-01-2019 11:15:00 2.8 C 5.16 g/m*3 1.05 C 6.4 km/h
1289 29-01-2019 11:20:00 2.8 C 5.16 g/m*3 2.8 C 4.8 km/h
1290 29-01-2019 11:25:00 2.9 C 5.2 g/m*3 1.17 C 6.4 km/h
1291 29-01-2019 11:30:00 2.9 C 5.2 g/m*3 2.9 C 4.8 km/h
1292 29-01-2019 11:35:00 3 C 5.23 g/m*3 3 C 4.8 km/h
1293 29-01-2019 11:40:00 3.1 C 5.21 g/m*3 3.1 C 3.2 km/h
1294 29-01-2019 11:45:00 3.2 C 5.24 g/m*3 3.2 C 1.6 km/h
1295 29-01-2019 11:50:00 3.2 C 5.24 g/m*3 3.2 C 4.8 km/h
1296 29-01-2019 11:55:00 3.3 C 5.28 g/m*3 1.63 C 6.4 km/h
1297 29-01-2019 12:00:00 3.4 C 5.25 g/m*3 1.75 C 6.4 km/h
1298 29-01-2019 12:05:00 3.4 C 5.25 g/m*3 3.4 C 4.8 km/h
1299 29-01-2019 12:10:00 3.5 C 5.29 g/m*3 1.34 C 8.1 km/h
1300 29-01-2019 12:15:00 3.5 C 5.29 g/m*3 1.34 C 8.1 km/h
Sensor: Nr:Datum:Temp:Abs-Feuchte:Windchill:Wind:
Aussen-T/F 1301 29-01-2019 12:20:00 3.6 C 5.32 g/m*3 1.98 C 6.4 km/h
1302 29-01-2019 12:25:00 3.6 C 5.32 g/m*3 3.6 C 4.8 km/h
1303 29-01-2019 12:30:00 3.7 C 5.36 g/m*3 3.7 C 1.6 km/h
1304 29-01-2019 12:35:00 3.7 C 5.3 g/m*3 1.58 C 8.1 km/h
1305 29-01-2019 12:40:00 3.8 C 5.33 g/m*3 3.8 C 4.8 km/h
1306 29-01-2019 12:45:00 3.8 C 5.27 g/m*3 3.8 C 3.2 km/h
1307 29-01-2019 12:50:00 3.8 C 5.27 g/m*3 3.8 C 3.2 km/h
1308 29-01-2019 12:55:00 3.8 C 5.27 g/m*3 3.8 C 0 km/h
1309 29-01-2019 13:00:00 3.8 C 5.27 g/m*3 3.8 C 3.2 km/h
1310 29-01-2019 13:05:00 3.9 C 5.31 g/m*3 3.9 C 4.8 km/h
1311 29-01-2019 13:10:00 3.9 C 5.31 g/m*3 2.32 C 6.4 km/h
1312 29-01-2019 13:15:00 4 C 5.34 g/m*3 1.93 C 8.1 km/h
1313 29-01-2019 13:20:00 4 C 5.34 g/m*3 4 C 4.8 km/h
1314 29-01-2019 13:25:00 3.9 C 5.31 g/m*3 2.32 C 6.4 km/h
1315 29-01-2019 13:30:00 4 C 5.34 g/m*3 4 C 4.8 km/h
1316 29-01-2019 13:35:00 4 C 5.34 g/m*3 2.44 C 6.4 km/h
1317 29-01-2019 13:40:00 4.1 C 5.38 g/m*3 2.55 C 6.4 km/h
1318 29-01-2019 13:45:00 4 C 5.34 g/m*3 2.44 C 6.4 km/h
1319 29-01-2019 13:50:00 4 C 5.28 g/m*3 2.44 C 6.4 km/h
1320 29-01-2019 13:55:00 4 C 5.34 g/m*3 2.44 C 6.4 km/h
1321 29-01-2019 14:00:00 4 C 5.28 g/m*3 2.44 C 6.4 km/h
1322 29-01-2019 14:05:00 4.1 C 5.31 g/m*3 4.1 C 3.2 km/h
1323 29-01-2019 14:10:00 4 C 5.28 g/m*3 2.44 C 6.4 km/h
1324 29-01-2019 14:15:00 4 C 5.28 g/m*3 2.44 C 6.4 km/h
1325 29-01-2019 14:20:00 3.9 C 5.18 g/m*3 1.82 C 8.1 km/h
Sensor: Nr:Datum:Temp:Abs-Feuchte:Windchill:Wind:
Aussen-T/F 1326 29-01-2019 14:25:00 3.9 C 5.24 g/m*3 2.32 C 6.4 km/h
1327 29-01-2019 14:30:00 3.8 C 5.21 g/m*3 3.8 C 3.2 km/h
1328 29-01-2019 14:35:00 3.7 C 5.17 g/m*3 3.7 C 0 km/h
1329 29-01-2019 14:40:00 3.7 C 5.17 g/m*3 3.7 C 1.6 km/h
1330 29-01-2019 14:45:00 3.7 C 5.17 g/m*3 3.7 C 1.6 km/h
1331 29-01-2019 14:50:00 3.7 C 5.11 g/m*3 2.09 C 6.4 km/h
1332 29-01-2019 14:55:00 3.7 C 5.11 g/m*3 3.7 C 1.6 km/h
1333 29-01-2019 15:00:00 3.7 C 5.05 g/m*3 3.7 C 4.8 km/h
1334 29-01-2019 15:05:00 3.7 C 5.11 g/m*3 3.7 C 3.2 km/h
1335 29-01-2019 15:10:00 3.7 C 5.11 g/m*3 3.7 C 1.6 km/h
1336 29-01-2019 15:15:00 3.7 C 5.11 g/m*3 2.09 C 6.4 km/h
1337 29-01-2019 15:20:00 3.8 C 5.08 g/m*3 3.8 C 4.8 km/h
1338 29-01-2019 15:25:00 3.8 C 5.14 g/m*3 3.8 C 0 km/h
1339 29-01-2019 15:30:00 3.8 C 5.14 g/m*3 3.8 C 0 km/h
1340 29-01-2019 15:35:00 3.8 C 5.14 g/m*3 3.8 C 1.6 km/h
1341 29-01-2019 15:40:00 3.9 C 5.12 g/m*3 3.9 C 3.2 km/h
1342 29-01-2019 15:45:00 3.9 C 5.12 g/m*3 3.9 C 1.6 km/h
1343 29-01-2019 15:50:00 3.9 C 5.12 g/m*3 3.9 C 1.6 km/h
1344 29-01-2019 15:55:00 3.9 C 5.12 g/m*3 3.9 C 0 km/h
1345 29-01-2019 16:00:00 4 C 5.15 g/m*3 4 C 0 km/h
1346 29-01-2019 16:05:00 3.9 C 5.05 g/m*3 3.9 C 0 km/h
1347 29-01-2019 16:10:00 3.9 C 5.12 g/m*3 3.9 C 0 km/h
1348 29-01-2019 16:15:00 3.9 C 5.05 g/m*3 3.9 C 0 km/h
1349 29-01-2019 16:20:00 3.9 C 5.05 g/m*3 3.9 C 0 km/h
1350 29-01-2019 16:25:00 3.8 C 5.08 g/m*3 3.8 C 0 km/h
Sensor: Nr:Datum:Temp:Abs-Feuchte:Windchill:Wind:
Aussen-T/F 1351 29-01-2019 16:30:00 3.8 C 5.21 g/m*3 3.8 C 0 km/h
1352 29-01-2019 16:35:00 3.7 C 5.05 g/m*3 3.7 C 1.6 km/h
1353 29-01-2019 16:40:00 3.7 C 5.17 g/m*3 3.7 C 0 km/h
1354 29-01-2019 16:45:00 3.6 C 5.14 g/m*3 3.6 C 0 km/h
1355 29-01-2019 16:50:00 3.6 C 5.14 g/m*3 3.6 C 0 km/h
1356 29-01-2019 16:55:00 3.4 C 5.07 g/m*3 3.4 C 0 km/h
1357 29-01-2019 17:00:00 3.4 C 5.13 g/m*3 3.4 C 0 km/h
1358 29-01-2019 17:05:00 3.2 C 5.06 g/m*3 3.2 C 0 km/h
1359 29-01-2019 17:10:00 3.1 C 4.97 g/m*3 3.1 C 0 km/h
1360 29-01-2019 17:15:00 2.9 C 4.9 g/m*3 2.9 C 0 km/h
1361 29-01-2019 17:20:00 2.9 C 4.96 g/m*3 2.9 C 0 km/h
1362 29-01-2019 17:25:00 2.8 C 4.93 g/m*3 2.8 C 0 km/h
1363 29-01-2019 17:30:00 2.7 C 4.89 g/m*3 2.7 C 0 km/h
1364 29-01-2019 17:35:00 2.7 C 4.95 g/m*3 2.7 C 0 km/h
1365 29-01-2019 17:40:00 2.6 C 4.98 g/m*3 2.6 C 0 km/h
1366 29-01-2019 17:45:00 2.4 C 4.91 g/m*3 2.4 C 0 km/h
1367 29-01-2019 17:50:00 2.4 C 4.91 g/m*3 2.4 C 0 km/h
1368 29-01-2019 17:55:00 2.3 C 4.88 g/m*3 2.3 C 1.6 km/h
1369 29-01-2019 18:00:00 2.2 C 4.84 g/m*3 2.2 C 1.6 km/h
1370 29-01-2019 18:05:00 2 C 4.78 g/m*3 2 C 0 km/h
1371 29-01-2019 18:10:00 1.8 C 4.71 g/m*3 1.8 C 3.2 km/h
1372 29-01-2019 18:15:00 1.7 C 4.68 g/m*3 1.7 C 0 km/h
1373 29-01-2019 18:20:00 1.4 C 4.64 g/m*3 1.4 C 0 km/h
1374 29-01-2019 18:25:00 1.3 C 4.61 g/m*3 1.3 C 0 km/h
1375 29-01-2019 18:30:00 1.1 C 4.55 g/m*3 1.1 C 0 km/h
Sensor: Nr:Datum:Temp:Abs-Feuchte:Windchill:Wind:
Aussen-T/F 1376 29-01-2019 18:35:00 1 C 4.57 g/m*3 1 C 0 km/h
1377 29-01-2019 18:40:00 0.9 C 4.54 g/m*3 0.9 C 0 km/h
1378 29-01-2019 18:45:00 0.8 C 4.51 g/m*3 0.8 C 0 km/h
1379 29-01-2019 18:50:00 0.7 C 4.53 g/m*3 0.7 C 0 km/h
1380 29-01-2019 18:55:00 0.7 C 4.53 g/m*3 0.7 C 0 km/h
1381 29-01-2019 19:00:00 0.6 C 4.49 g/m*3 0.6 C 0 km/h
1382 29-01-2019 19:05:00 0.6 C 4.54 g/m*3 0.6 C 0 km/h
1383 29-01-2019 19:10:00 0.5 C 4.51 g/m*3 0.5 C 0 km/h
1384 29-01-2019 19:15:00 0.5 C 4.51 g/m*3 0.5 C 0 km/h
1385 29-01-2019 19:20:00 0.4 C 4.48 g/m*3 0.4 C 0 km/h
1386 29-01-2019 19:25:00 0.3 C 4.45 g/m*3 0.3 C 0 km/h
1387 29-01-2019 19:30:00 0.2 C 4.42 g/m*3 0.2 C 0 km/h
1388 29-01-2019 19:35:00 0.1 C 4.39 g/m*3 0.1 C 0 km/h
1389 29-01-2019 19:40:00 0.1 C 4.39 g/m*3 0.1 C 0 km/h
1390 29-01-2019 19:45:00 0 C 4.36 g/m*3 0 C 0 km/h
1391 29-01-2019 19:50:00 -0.1 C 4.33 g/m*3 -0.1 C 0 km/h
1392 29-01-2019 19:55:00 -0.1 C 4.33 g/m*3 -0.1 C 0 km/h
1393 29-01-2019 20:00:00 -0.1 C 4.38 g/m*3 -0.1 C 0 km/h
1394 29-01-2019 20:05:00 -0.2 C 4.3 g/m*3 -0.2 C 0 km/h
1395 29-01-2019 20:10:00 -0.2 C 4.35 g/m*3 -0.2 C 0 km/h
1396 29-01-2019 20:15:00 -0.2 C 4.35 g/m*3 -0.2 C 0 km/h
1397 29-01-2019 20:20:00 -0.3 C 4.32 g/m*3 -0.3 C 0 km/h
1398 29-01-2019 20:25:00 -0.3 C 4.32 g/m*3 -0.3 C 0 km/h
1399 29-01-2019 20:30:00 -0.3 C 4.32 g/m*3 -0.3 C 0 km/h
1400 29-01-2019 20:35:00 -0.3 C 4.32 g/m*3 -0.3 C 0 km/h
Sensor: Nr:Datum:Temp:Abs-Feuchte:Windchill:Wind:
Aussen-T/F 1401 29-01-2019 20:40:00 -0.3 C 4.32 g/m*3 -0.3 C 0 km/h
1402 29-01-2019 20:45:00 -0.3 C 4.32 g/m*3 -0.3 C 0 km/h
1403 29-01-2019 20:50:00 -0.3 C 4.32 g/m*3 -0.3 C 0 km/h
1404 29-01-2019 20:55:00 -0.3 C 4.32 g/m*3 -0.3 C 0 km/h
1405 29-01-2019 21:00:00 -0.3 C 4.32 g/m*3 -0.3 C 0 km/h
1406 29-01-2019 21:05:00 -0.3 C 4.32 g/m*3 -0.3 C 0 km/h
1407 29-01-2019 21:10:00 -0.3 C 4.32 g/m*3 -0.3 C 0 km/h
1408 29-01-2019 21:15:00 -0.3 C 4.32 g/m*3 -0.3 C 0 km/h
1409 29-01-2019 21:20:00 -0.3 C 4.32 g/m*3 -0.3 C 0 km/h
1410 29-01-2019 21:25:00 -0.3 C 4.32 g/m*3 -0.3 C 0 km/h
1411 29-01-2019 21:30:00 -0.3 C 4.32 g/m*3 -0.3 C 0 km/h
1412 29-01-2019 21:35:00 -0.3 C 4.32 g/m*3 -0.3 C 0 km/h
1413 29-01-2019 21:40:00 -0.3 C 4.32 g/m*3 -0.3 C 0 km/h
1414 29-01-2019 21:45:00 -0.3 C 4.32 g/m*3 -0.3 C 0 km/h
1415 29-01-2019 21:50:00 -0.3 C 4.32 g/m*3 -0.3 C 0 km/h
1416 29-01-2019 21:55:00 -0.3 C 4.32 g/m*3 -0.3 C 0 km/h
1417 29-01-2019 22:00:00 -0.3 C 4.32 g/m*3 -0.3 C 0 km/h
1418 29-01-2019 22:05:00 -0.3 C 4.32 g/m*3 -0.3 C 0 km/h
1419 29-01-2019 22:10:00 -0.3 C 4.32 g/m*3 -0.3 C 0 km/h
1420 29-01-2019 22:15:00 -0.4 C 4.29 g/m*3 -0.4 C 0 km/h
1421 29-01-2019 22:20:00 -0.4 C 4.29 g/m*3 -0.4 C 0 km/h
1422 29-01-2019 22:25:00 -0.4 C 4.29 g/m*3 -0.4 C 0 km/h
1423 29-01-2019 22:30:00 -0.4 C 4.29 g/m*3 -0.4 C 0 km/h
1424 29-01-2019 22:35:00 -0.4 C 4.29 g/m*3 -0.4 C 0 km/h
1425 29-01-2019 22:40:00 -0.4 C 4.29 g/m*3 -0.4 C 0 km/h
Sensor: Nr:Datum:Temp:Abs-Feuchte:Windchill:Wind:
Aussen-T/F 1426 29-01-2019 22:45:00 -0.4 C 4.34 g/m*3 -0.4 C 0 km/h
1427 29-01-2019 22:50:00 -0.4 C 4.34 g/m*3 -0.4 C 0 km/h
1428 29-01-2019 22:55:00 -0.4 C 4.34 g/m*3 -0.4 C 0 km/h
1429 29-01-2019 23:00:00 -0.4 C 4.34 g/m*3 -0.4 C 0 km/h
1430 29-01-2019 23:05:00 -0.5 C 4.31 g/m*3 -0.5 C 0 km/h
1431 29-01-2019 23:10:00 -0.5 C 4.31 g/m*3 -0.5 C 0 km/h
1432 29-01-2019 23:15:00 -0.5 C 4.31 g/m*3 -0.5 C 0 km/h
1433 29-01-2019 23:20:00 -0.5 C 4.31 g/m*3 -0.5 C 0 km/h
1434 29-01-2019 23:25:00 -0.6 C 4.28 g/m*3 -0.6 C 0 km/h
1435 29-01-2019 23:30:00 -0.6 C 4.28 g/m*3 -0.6 C 0 km/h
1436 29-01-2019 23:35:00 -0.6 C 4.28 g/m*3 -0.6 C 0 km/h
1437 29-01-2019 23:40:00 -0.6 C 4.32 g/m*3 -0.6 C 0 km/h
1438 29-01-2019 23:45:00 -0.6 C 4.32 g/m*3 -0.6 C 0 km/h
1439 29-01-2019 23:50:00 -0.6 C 4.32 g/m*3 -0.6 C 0 km/h
1440 29-01-2019 23:55:00 -0.6 C 4.32 g/m*3 -0.6 C 0 km/h
1441 30-01-2019 00:00:00 -0.6 C 4.32 g/m*3 -0.6 C 0 km/h
1442 30-01-2019 00:05:00 -0.6 C 4.32 g/m*3 -0.6 C 0 km/h
1443 30-01-2019 00:10:00 -0.6 C 4.32 g/m*3 -0.6 C 0 km/h
1444 30-01-2019 00:15:00 -0.6 C 4.32 g/m*3 -0.6 C 0 km/h
1445 30-01-2019 00:20:00 -0.7 C 4.29 g/m*3 -0.7 C 0 km/h
1446 30-01-2019 00:25:00 -0.5 C 4.35 g/m*3 -0.5 C 4.8 km/h
1447 30-01-2019 00:30:00 -0.4 C 4.38 g/m*3 -0.4 C 3.2 km/h
1448 30-01-2019 00:35:00 -0.4 C 4.38 g/m*3 -0.4 C 1.6 km/h
1449 30-01-2019 00:40:00 -0.5 C 4.35 g/m*3 -0.5 C 3.2 km/h
1450 30-01-2019 00:45:00 -0.5 C 4.35 g/m*3 -0.5 C 1.6 km/h
Sensor: Nr:Datum:Temp:Abs-Feuchte:Windchill:Wind:
Aussen-T/F 1451 30-01-2019 00:50:00 -0.6 C 4.32 g/m*3 -0.6 C 1.6 km/h
1452 30-01-2019 00:55:00 -0.6 C 4.32 g/m*3 -0.6 C 4.8 km/h
1453 30-01-2019 01:00:00 -0.6 C 4.32 g/m*3 -0.6 C 0 km/h
1454 30-01-2019 01:05:00 -0.6 C 4.32 g/m*3 -0.6 C 1.6 km/h
1455 30-01-2019 01:10:00 -0.6 C 4.32 g/m*3 -0.6 C 1.6 km/h
1456 30-01-2019 01:15:00 -0.7 C 4.29 g/m*3 -0.7 C 0 km/h
1457 30-01-2019 01:20:00 -0.7 C 4.29 g/m*3 -0.7 C 3.2 km/h
1458 30-01-2019 01:25:00 -0.7 C 4.29 g/m*3 -0.7 C 1.6 km/h
1459 30-01-2019 01:30:00 -0.7 C 4.29 g/m*3 -0.7 C 0 km/h
1460 30-01-2019 01:35:00 -0.7 C 4.29 g/m*3 -0.7 C 0 km/h
1461 30-01-2019 01:40:00 -0.7 C 4.29 g/m*3 -0.7 C 0 km/h
1462 30-01-2019 01:45:00 -0.7 C 4.29 g/m*3 -0.7 C 0 km/h
1463 30-01-2019 01:50:00 -0.7 C 4.29 g/m*3 -0.7 C 0 km/h
1464 30-01-2019 01:55:00 -0.7 C 4.29 g/m*3 -0.7 C 1.6 km/h
1465 30-01-2019 02:00:00 -0.7 C 4.29 g/m*3 -0.7 C 3.2 km/h
1466 30-01-2019 02:05:00 -0.8 C 4.26 g/m*3 -0.8 C 1.6 km/h
1467 30-01-2019 02:10:00 -0.7 C 4.29 g/m*3 -0.7 C 0 km/h
1468 30-01-2019 02:15:00 -0.8 C 4.26 g/m*3 -0.8 C 0 km/h
1469 30-01-2019 02:20:00 -0.7 C 4.29 g/m*3 -0.7 C 0 km/h
1470 30-01-2019 02:25:00 -0.7 C 4.29 g/m*3 -0.7 C 0 km/h
1471 30-01-2019 02:30:00 -0.7 C 4.29 g/m*3 -0.7 C 0 km/h
1472 30-01-2019 02:35:00 -0.7 C 4.29 g/m*3 -0.7 C 1.6 km/h
1473 30-01-2019 02:40:00 -0.6 C 4.32 g/m*3 -0.6 C 0 km/h
1474 30-01-2019 02:45:00 -0.6 C 4.32 g/m*3 -0.6 C 0 km/h
1475 30-01-2019 02:50:00 -0.6 C 4.32 g/m*3 -0.6 C 3.2 km/h
Sensor: Nr:Datum:Temp:Abs-Feuchte:Windchill:Wind:
Aussen-T/F 1476 30-01-2019 02:55:00 -0.6 C 4.32 g/m*3 -0.6 C 0 km/h
1477 30-01-2019 03:00:00 -0.7 C 4.29 g/m*3 -0.7 C 0 km/h
1478 30-01-2019 03:05:00 -0.7 C 4.29 g/m*3 -0.7 C 0 km/h
1479 30-01-2019 03:10:00 -0.7 C 4.29 g/m*3 -0.7 C 0 km/h
1480 30-01-2019 03:15:00 -0.8 C 4.22 g/m*3 -0.8 C 1.6 km/h
1481 30-01-2019 03:20:00 -0.8 C 4.26 g/m*3 -0.8 C 1.6 km/h
1482 30-01-2019 03:25:00 -0.8 C 4.26 g/m*3 -0.8 C 0 km/h
1483 30-01-2019 03:30:00 -0.8 C 4.22 g/m*3 -0.8 C 0 km/h
1484 30-01-2019 03:35:00 -0.8 C 4.22 g/m*3 -0.8 C 0 km/h
1485 30-01-2019 03:40:00 -0.8 C 4.22 g/m*3 -0.8 C 0 km/h
1486 30-01-2019 03:45:00 -0.9 C 4.19 g/m*3 -0.9 C 1.6 km/h
1487 30-01-2019 03:50:00 -0.9 C 4.19 g/m*3 -0.9 C 0 km/h
1488 30-01-2019 03:55:00 -0.9 C 4.19 g/m*3 -0.9 C 0 km/h
1489 30-01-2019 04:00:00 -0.9 C 4.19 g/m*3 -0.9 C 0 km/h
1490 30-01-2019 04:05:00 -0.9 C 4.19 g/m*3 -0.9 C 1.6 km/h
1491 30-01-2019 04:10:00 -0.9 C 4.19 g/m*3 -0.9 C 0 km/h
1492 30-01-2019 04:15:00 -0.9 C 4.19 g/m*3 -0.9 C 1.6 km/h
1493 30-01-2019 04:20:00 -0.9 C 4.23 g/m*3 -0.9 C 0 km/h
1494 30-01-2019 04:25:00 -0.9 C 4.23 g/m*3 -0.9 C 0 km/h
1495 30-01-2019 04:30:00 -0.9 C 4.23 g/m*3 -0.9 C 0 km/h
1496 30-01-2019 04:35:00 -0.9 C 4.23 g/m*3 -0.9 C 3.2 km/h
1497 30-01-2019 04:40:00 -0.9 C 4.23 g/m*3 -0.9 C 3.2 km/h
1498 30-01-2019 04:45:00 -0.8 C 4.26 g/m*3 -0.8 C 1.6 km/h
1499 30-01-2019 04:50:00 -0.8 C 4.26 g/m*3 -0.8 C 1.6 km/h
1500 30-01-2019 04:55:00 -0.8 C 4.26 g/m*3 -0.8 C 0 km/h
Sensor: Nr:Datum:Temp:Abs-Feuchte:Windchill:Wind:
Aussen-T/F 1501 30-01-2019 05:00:00 -0.7 C 4.29 g/m*3 -0.7 C 0 km/h
1502 30-01-2019 05:05:00 -0.7 C 4.25 g/m*3 -0.7 C 0 km/h
1503 30-01-2019 05:10:00 -0.6 C 4.28 g/m*3 -0.6 C 0 km/h
1504 30-01-2019 05:15:00 -0.6 C 4.28 g/m*3 -0.6 C 0 km/h
1505 30-01-2019 05:20:00 -0.6 C 4.28 g/m*3 -0.6 C 0 km/h
1506 30-01-2019 05:25:00 -0.6 C 4.28 g/m*3 -0.6 C 0 km/h
1507 30-01-2019 05:30:00 -0.5 C 4.31 g/m*3 -0.5 C 1.6 km/h
1508 30-01-2019 05:35:00 -0.5 C 4.31 g/m*3 -0.5 C 1.6 km/h
1509 30-01-2019 05:40:00 -0.4 C 4.34 g/m*3 -0.4 C 0 km/h
1510 30-01-2019 05:45:00 -0.4 C 4.34 g/m*3 -0.4 C 1.6 km/h
1511 30-01-2019 05:50:00 -0.3 C 4.37 g/m*3 -0.3 C 0 km/h
1512 30-01-2019 05:55:00 -0.3 C 4.32 g/m*3 -0.3 C 0 km/h
1513 30-01-2019 06:00:00 -0.3 C 4.32 g/m*3 -0.3 C 0 km/h
1514 30-01-2019 06:05:00 -0.2 C 4.35 g/m*3 -0.2 C 0 km/h
1515 30-01-2019 06:10:00 -0.2 C 4.35 g/m*3 -0.2 C 0 km/h
1516 30-01-2019 06:15:00 -0.2 C 4.35 g/m*3 -0.2 C 0 km/h
1517 30-01-2019 06:20:00 -0.2 C 4.35 g/m*3 -0.2 C 0 km/h
1518 30-01-2019 06:25:00 -0.1 C 4.38 g/m*3 -0.1 C 0 km/h
1519 30-01-2019 06:30:00 -0.1 C 4.38 g/m*3 -0.1 C 3.2 km/h
1520 30-01-2019 06:35:00 -0.1 C 4.33 g/m*3 -0.1 C 0 km/h
1521 30-01-2019 06:40:00 -0.1 C 4.33 g/m*3 -0.1 C 0 km/h
1522 30-01-2019 06:45:00 0 C 4.36 g/m*3 0 C 0 km/h
1523 30-01-2019 06:50:00 0.1 C 4.39 g/m*3 0.1 C 0 km/h
1524 30-01-2019 06:55:00 0.1 C 4.39 g/m*3 0.1 C 0 km/h
1525 30-01-2019 07:00:00 0.2 C 4.37 g/m*3 0.2 C 3.2 km/h
Sensor: Nr:Datum:Temp:Abs-Feuchte:Windchill:Wind:
Aussen-T/F 1526 30-01-2019 07:05:00 0.2 C 4.37 g/m*3 0.2 C 4.8 km/h
1527 30-01-2019 07:10:00 0.3 C 4.35 g/m*3 0.3 C 1.6 km/h
1528 30-01-2019 07:15:00 0.3 C 4.35 g/m*3 0.3 C 3.2 km/h
1529 30-01-2019 07:20:00 0.3 C 4.35 g/m*3 0.3 C 3.2 km/h
1530 30-01-2019 07:25:00 0.3 C 4.35 g/m*3 -1.84 C 6.4 km/h
1531 30-01-2019 07:30:00 0.4 C 4.38 g/m*3 -1.72 C 6.4 km/h
1532 30-01-2019 07:35:00 0.3 C 4.35 g/m*3 0.3 C 1.6 km/h
1533 30-01-2019 07:40:00 0.3 C 4.35 g/m*3 0.3 C 0 km/h
1534 30-01-2019 07:45:00 0.4 C 4.43 g/m*3 0.4 C 0 km/h
1535 30-01-2019 07:50:00 0.4 C 4.43 g/m*3 0.4 C 3.2 km/h
1536 30-01-2019 07:55:00 0.3 C 4.45 g/m*3 0.3 C 3.2 km/h
1537 30-01-2019 08:00:00 0.3 C 4.45 g/m*3 0.3 C 0 km/h
1538 30-01-2019 08:05:00 0.3 C 4.45 g/m*3 0.3 C 1.6 km/h
1539 30-01-2019 08:10:00 0.3 C 4.5 g/m*3 0.3 C 0 km/h
1540 30-01-2019 08:15:00 0.2 C 4.47 g/m*3 0.2 C 0 km/h
1541 30-01-2019 08:20:00 0.2 C 4.47 g/m*3 0.2 C 1.6 km/h
1542 30-01-2019 08:25:00 0.2 C 4.52 g/m*3 0.2 C 4.8 km/h
1543 30-01-2019 08:30:00 0.1 C 4.49 g/m*3 0.1 C 0 km/h
1544 30-01-2019 08:35:00 0.1 C 4.49 g/m*3 0.1 C 0 km/h
1545 30-01-2019 08:40:00 0.1 C 4.49 g/m*3 0.1 C 0 km/h
1546 30-01-2019 08:45:00 0.1 C 4.54 g/m*3 0.1 C 1.6 km/h
1547 30-01-2019 08:50:00 0.1 C 4.54 g/m*3 0.1 C 4.8 km/h
1548 30-01-2019 08:55:00 0 C 4.51 g/m*3 0 C 0 km/h
1549 30-01-2019 09:00:00 0 C 4.51 g/m*3 0 C 1.6 km/h
1550 30-01-2019 09:05:00 0 C 4.51 g/m*3 0 C 0 km/h
Sensor: Nr:Datum:Temp:Abs-Feuchte:Windchill:Wind:
Aussen-T/F 1551 30-01-2019 09:10:00 0 C 4.55 g/m*3 0 C 1.6 km/h
1552 30-01-2019 09:15:00 0 C 4.55 g/m*3 0 C 1.6 km/h
1553 30-01-2019 09:20:00 0 C 4.55 g/m*3 0 C 0 km/h
1554 30-01-2019 09:25:00 0 C 4.55 g/m*3 0 C 0 km/h
1555 30-01-2019 09:30:00 0 C 4.55 g/m*3 0 C 0 km/h
1556 30-01-2019 09:35:00 0 C 4.55 g/m*3 0 C 0 km/h
1557 30-01-2019 09:40:00 0 C 4.55 g/m*3 0 C 0 km/h
1558 30-01-2019 09:45:00 0.1 C 4.59 g/m*3 0.1 C 0 km/h
1559 30-01-2019 09:50:00 0.1 C 4.59 g/m*3 0.1 C 0 km/h
1560 30-01-2019 09:55:00 0.1 C 4.59 g/m*3 0.1 C 0 km/h
1561 30-01-2019 10:00:00 0.1 C 4.59 g/m*3 0.1 C 0 km/h
1562 30-01-2019 10:05:00 0.1 C 4.59 g/m*3 0.1 C 0 km/h
1563 30-01-2019 10:10:00 0.1 C 4.59 g/m*3 0.1 C 1.6 km/h
1564 30-01-2019 10:15:00 0.2 C 4.62 g/m*3 0.2 C 0 km/h
1565 30-01-2019 10:20:00 0.2 C 4.62 g/m*3 0.2 C 0 km/h
1566 30-01-2019 10:25:00 0.3 C 4.65 g/m*3 0.3 C 0 km/h
1567 30-01-2019 10:30:00 0.3 C 4.65 g/m*3 0.3 C 1.6 km/h
1568 30-01-2019 10:35:00 0.4 C 4.68 g/m*3 0.4 C 0 km/h
1569 30-01-2019 10:40:00 0.4 C 4.68 g/m*3 0.4 C 0 km/h
1570 30-01-2019 10:45:00 0.4 C 4.68 g/m*3 0.4 C 0 km/h
1571 30-01-2019 10:50:00 0.5 C 4.71 g/m*3 0.5 C 0 km/h
1572 30-01-2019 10:55:00 0.6 C 4.75 g/m*3 0.6 C 0 km/h
1573 30-01-2019 11:00:00 0.6 C 4.75 g/m*3 0.6 C 0 km/h
1574 30-01-2019 11:05:00 0.7 C 4.78 g/m*3 0.7 C 0 km/h
1575 30-01-2019 11:10:00 0.7 C 4.78 g/m*3 0.7 C 0 km/h
Sensor: Nr:Datum:Temp:Abs-Feuchte:Windchill:Wind:
Aussen-T/F 1576 30-01-2019 11:15:00 0.8 C 4.81 g/m*3 0.8 C 0 km/h
1577 30-01-2019 11:20:00 0.8 C 4.81 g/m*3 0.8 C 0 km/h
1578 30-01-2019 11:25:00 0.8 C 4.81 g/m*3 0.8 C 0 km/h
1579 30-01-2019 11:30:00 0.9 C 4.85 g/m*3 0.9 C 0 km/h
1580 30-01-2019 11:35:00 0.9 C 4.85 g/m*3 0.9 C 0 km/h
1581 30-01-2019 11:40:00 0.9 C 4.85 g/m*3 0.9 C 0 km/h
1582 30-01-2019 11:45:00 0.9 C 4.85 g/m*3 0.9 C 1.6 km/h
1583 30-01-2019 11:50:00 0.9 C 4.85 g/m*3 0.9 C 0 km/h
1584 30-01-2019 11:55:00 1 C 4.88 g/m*3 1 C 0 km/h
1585 30-01-2019 12:00:00 1.1 C 4.91 g/m*3 1.1 C 3.2 km/h
1586 30-01-2019 12:05:00 1.1 C 4.91 g/m*3 1.1 C 0 km/h
1587 30-01-2019 12:10:00 1.2 C 4.95 g/m*3 1.2 C 0 km/h
1588 30-01-2019 12:15:00 1.2 C 4.95 g/m*3 1.2 C 0 km/h
1589 30-01-2019 12:20:00 1.3 C 5.03 g/m*3 1.3 C 0 km/h
1590 30-01-2019 12:25:00 1.4 C 5.01 g/m*3 1.4 C 0 km/h
1591 30-01-2019 12:30:00 1.4 C 5.01 g/m*3 1.4 C 0 km/h
1592 30-01-2019 12:35:00 1.5 C 5.05 g/m*3 1.5 C 0 km/h
1593 30-01-2019 12:40:00 1.6 C 5.08 g/m*3 1.6 C 0 km/h
1594 30-01-2019 12:45:00 1.7 C 5.12 g/m*3 1.7 C 0 km/h
1595 30-01-2019 12:50:00 1.7 C 5.12 g/m*3 1.7 C 0 km/h
1596 30-01-2019 12:55:00 1.7 C 5.12 g/m*3 1.7 C 0 km/h
1597 30-01-2019 13:00:00 1.7 C 5.12 g/m*3 1.7 C 1.6 km/h
1598 30-01-2019 13:05:00 1.7 C 5.12 g/m*3 1.7 C 0 km/h
1599 30-01-2019 13:10:00 1.6 C 5.08 g/m*3 1.6 C 1.6 km/h
1600 30-01-2019 13:15:00 1.6 C 5.08 g/m*3 1.6 C 0 km/h
Sensor: Nr:Datum:Temp:Abs-Feuchte:Windchill:Wind:
Aussen-T/F 1601 30-01-2019 13:20:00 1.6 C 5.08 g/m*3 1.6 C 0 km/h
1602 30-01-2019 13:25:00 1.6 C 5.08 g/m*3 1.6 C 0 km/h
1603 30-01-2019 13:30:00 1.7 C 5.12 g/m*3 1.7 C 0 km/h
1604 30-01-2019 13:35:00 1.7 C 5.12 g/m*3 1.7 C 0 km/h
1605 30-01-2019 13:40:00 1.7 C 5.12 g/m*3 1.7 C 0 km/h
1606 30-01-2019 13:45:00 1.7 C 5.12 g/m*3 1.7 C 0 km/h
1607 30-01-2019 13:50:00 1.7 C 5.12 g/m*3 1.7 C 0 km/h
1608 30-01-2019 13:55:00 1.7 C 5.12 g/m*3 1.7 C 0 km/h
1609 30-01-2019 14:00:00 1.7 C 5.12 g/m*3 1.7 C 0 km/h
1610 30-01-2019 14:05:00 1.8 C 5.15 g/m*3 1.8 C 0 km/h
1611 30-01-2019 14:10:00 1.8 C 5.15 g/m*3 1.8 C 0 km/h
1612 30-01-2019 14:15:00 1.8 C 5.1 g/m*3 1.8 C 0 km/h
1613 30-01-2019 14:20:00 1.7 C 5.06 g/m*3 1.7 C 0 km/h
1614 30-01-2019 14:25:00 1.7 C 5.06 g/m*3 1.7 C 0 km/h
1615 30-01-2019 14:30:00 1.7 C 5.12 g/m*3 1.7 C 0 km/h
1616 30-01-2019 14:35:00 1.7 C 5.12 g/m*3 1.7 C 0 km/h
1617 30-01-2019 14:40:00 1.7 C 5.12 g/m*3 1.7 C 0 km/h
1618 30-01-2019 14:45:00 1.7 C 5.12 g/m*3 1.7 C 0 km/h
1619 30-01-2019 14:50:00 1.6 C 5.08 g/m*3 1.6 C 0 km/h
1620 30-01-2019 14:55:00 1.6 C 5.08 g/m*3 1.6 C 0 km/h
1621 30-01-2019 15:00:00 1.6 C 5.08 g/m*3 1.6 C 0 km/h
1622 30-01-2019 15:05:00 1.6 C 5.08 g/m*3 1.6 C 0 km/h
1623 30-01-2019 15:10:00 1.6 C 5.08 g/m*3 1.6 C 1.6 km/h
1624 30-01-2019 15:15:00 1.6 C 5.08 g/m*3 -0.89 C 8.1 km/h
1625 30-01-2019 15:20:00 1.5 C 5.05 g/m*3 -1.01 C 8.1 km/h
Sensor: Nr:Datum:Temp:Abs-Feuchte:Windchill:Wind:
Aussen-T/F 1626 30-01-2019 15:25:00 1.4 C 5.01 g/m*3 1.4 C 3.2 km/h
1627 30-01-2019 15:30:00 1.4 C 5.01 g/m*3 1.4 C 1.6 km/h
1628 30-01-2019 15:35:00 1.4 C 5.01 g/m*3 1.4 C 3.2 km/h
1629 30-01-2019 15:40:00 1.5 C 5.05 g/m*3 1.5 C 1.6 km/h
1630 30-01-2019 15:45:00 1.4 C 5.01 g/m*3 1.4 C 4.8 km/h
1631 30-01-2019 15:50:00 1.4 C 5.01 g/m*3 -0.56 C 6.4 km/h
1632 30-01-2019 15:55:00 1.3 C 4.98 g/m*3 1.3 C 4.8 km/h
1633 30-01-2019 16:00:00 1.3 C 4.98 g/m*3 1.3 C 3.2 km/h
1634 30-01-2019 16:05:00 1.3 C 4.98 g/m*3 1.3 C 1.6 km/h
1635 30-01-2019 16:10:00 1.2 C 4.95 g/m*3 1.2 C 3.2 km/h
1636 30-01-2019 16:15:00 1.2 C 5 g/m*3 1.2 C 4.8 km/h
1637 30-01-2019 16:20:00 1.2 C 5 g/m*3 -0.8 C 6.4 km/h
1638 30-01-2019 16:25:00 1.1 C 4.96 g/m*3 1.1 C 3.2 km/h
1639 30-01-2019 16:30:00 1.1 C 4.96 g/m*3 1.1 C 4.8 km/h
1640 30-01-2019 16:35:00 1.1 C 4.96 g/m*3 -0.91 C 6.4 km/h
1641 30-01-2019 16:40:00 1.1 C 4.96 g/m*3 -0.91 C 6.4 km/h
1642 30-01-2019 16:45:00 1.1 C 4.96 g/m*3 1.1 C 4.8 km/h
1643 30-01-2019 16:50:00 1.1 C 4.96 g/m*3 1.1 C 4.8 km/h
1644 30-01-2019 16:55:00 1.1 C 4.96 g/m*3 1.1 C 4.8 km/h
1645 30-01-2019 17:00:00 1.1 C 4.96 g/m*3 1.1 C 4.8 km/h
1646 30-01-2019 17:05:00 1.1 C 4.96 g/m*3 1.1 C 4.8 km/h
1647 30-01-2019 17:10:00 1.1 C 4.96 g/m*3 1.1 C 0 km/h
1648 30-01-2019 17:15:00 1.1 C 4.96 g/m*3 1.1 C 3.2 km/h
1649 30-01-2019 17:20:00 1.1 C 4.96 g/m*3 -1.92 C 9.7 km/h
1650 30-01-2019 17:25:00 1.1 C 4.96 g/m*3 -2.31 C 11.3 km/h
Sensor: Nr:Datum:Temp:Abs-Feuchte:Windchill:Wind:
Aussen-T/F 1651 30-01-2019 17:30:00 1.1 C 4.96 g/m*3 1.1 C 1.6 km/h
1652 30-01-2019 17:35:00 1.1 C 4.96 g/m*3 1.1 C 3.2 km/h
1653 30-01-2019 17:40:00 1.1 C 4.96 g/m*3 1.1 C 4.8 km/h
1654 30-01-2019 17:45:00 1.1 C 4.96 g/m*3 1.1 C 4.8 km/h
1655 30-01-2019 17:50:00 1.1 C 4.96 g/m*3 1.1 C 4.8 km/h
1656 30-01-2019 17:55:00 1.1 C 4.96 g/m*3 1.1 C 3.2 km/h
1657 30-01-2019 18:00:00 1.1 C 4.96 g/m*3 -0.91 C 6.4 km/h
1658 30-01-2019 18:05:00 1.1 C 4.96 g/m*3 -1.48 C 8.1 km/h
1659 30-01-2019 18:10:00 1.1 C 4.96 g/m*3 -0.91 C 6.4 km/h
1660 30-01-2019 18:15:00 1 C 4.93 g/m*3 1 C 3.2 km/h
1661 30-01-2019 18:20:00 1.1 C 4.96 g/m*3 1.1 C 0 km/h
1662 30-01-2019 18:25:00 1 C 4.93 g/m*3 1 C 3.2 km/h
1663 30-01-2019 18:30:00 1.1 C 4.96 g/m*3 1.1 C 3.2 km/h
1664 30-01-2019 18:35:00 1 C 4.93 g/m*3 1 C 3.2 km/h
1665 30-01-2019 18:40:00 1.1 C 4.96 g/m*3 1.1 C 3.2 km/h
1666 30-01-2019 18:45:00 1.1 C 4.96 g/m*3 1.1 C 4.8 km/h
1667 30-01-2019 18:50:00 1.1 C 4.96 g/m*3 1.1 C 3.2 km/h
1668 30-01-2019 18:55:00 1.1 C 4.96 g/m*3 1.1 C 3.2 km/h
1669 30-01-2019 19:00:00 1.1 C 4.96 g/m*3 1.1 C 3.2 km/h
1670 30-01-2019 19:05:00 1.1 C 4.96 g/m*3 1.1 C 1.6 km/h
1671 30-01-2019 19:10:00 1.1 C 4.96 g/m*3 1.1 C 1.6 km/h
1672 30-01-2019 19:15:00 1.1 C 5.02 g/m*3 1.1 C 3.2 km/h
1673 30-01-2019 19:20:00 1.1 C 5.02 g/m*3 1.1 C 3.2 km/h
1674 30-01-2019 19:25:00 1.1 C 5.02 g/m*3 1.1 C 3.2 km/h
1675 30-01-2019 19:30:00 1.1 C 5.02 g/m*3 1.1 C 3.2 km/h
Sensor: Nr:Datum:Temp:Abs-Feuchte:Windchill:Wind:
Aussen-T/F 1676 30-01-2019 19:35:00 1.1 C 5.02 g/m*3 1.1 C 1.6 km/h
1677 30-01-2019 19:40:00 1.1 C 5.02 g/m*3 1.1 C 0 km/h
1678 30-01-2019 19:45:00 1.1 C 5.02 g/m*3 1.1 C 0 km/h
1679 30-01-2019 19:50:00 1 C 4.98 g/m*3 1 C 0 km/h
1680 30-01-2019 19:55:00 1 C 4.98 g/m*3 1 C 0 km/h
1681 30-01-2019 20:00:00 1 C 4.98 g/m*3 1 C 1.6 km/h
1682 30-01-2019 20:05:00 1 C 4.98 g/m*3 1 C 1.6 km/h
1683 30-01-2019 20:10:00 1 C 4.98 g/m*3 -1.03 C 6.4 km/h
1684 30-01-2019 20:15:00 1 C 4.98 g/m*3 -1.59 C 8.1 km/h
1685 30-01-2019 20:20:00 1.1 C 5.02 g/m*3 1.1 C 4.8 km/h
1686 30-01-2019 20:25:00 1.1 C 5.02 g/m*3 -1.92 C 9.7 km/h
1687 30-01-2019 20:30:00 1.1 C 5.02 g/m*3 -2.31 C 11.3 km/h
1688 30-01-2019 20:35:00 1.1 C 5.02 g/m*3 -3.25 C 16.1 km/h
1689 30-01-2019 20:40:00 1 C 4.93 g/m*3 -2.78 C 12.9 km/h
1690 30-01-2019 20:45:00 1 C 4.93 g/m*3 -3.09 C 14.5 km/h
1691 30-01-2019 20:50:00 1 C 4.93 g/m*3 -2.04 C 9.7 km/h
1692 30-01-2019 20:55:00 1 C 4.93 g/m*3 -2.04 C 9.7 km/h
1693 30-01-2019 21:00:00 1 C 4.88 g/m*3 -2.43 C 11.3 km/h
1694 30-01-2019 21:05:00 1 C 4.88 g/m*3 -2.43 C 11.3 km/h
1695 30-01-2019 21:10:00 1 C 4.88 g/m*3 -2.04 C 9.7 km/h
1696 30-01-2019 21:15:00 1 C 4.88 g/m*3 1 C 4.8 km/h
1697 30-01-2019 21:20:00 1 C 4.88 g/m*3 -2.04 C 9.7 km/h
1698 30-01-2019 21:25:00 1 C 4.88 g/m*3 1 C 4.8 km/h
1699 30-01-2019 21:30:00 1 C 4.88 g/m*3 1 C 4.8 km/h
1700 30-01-2019 21:35:00 0.9 C 4.85 g/m*3 0.9 C 4.8 km/h
Sensor: Nr:Datum:Temp:Abs-Feuchte:Windchill:Wind:
Aussen-T/F 1701 30-01-2019 21:40:00 0.9 C 4.85 g/m*3 -2.9 C 12.9 km/h
1702 30-01-2019 21:45:00 0.9 C 4.85 g/m*3 -1.71 C 8.1 km/h
1703 30-01-2019 21:50:00 0.9 C 4.85 g/m*3 -2.9 C 12.9 km/h
1704 30-01-2019 21:55:00 0.9 C 4.85 g/m*3 -1.71 C 8.1 km/h
1705 30-01-2019 22:00:00 0.8 C 4.81 g/m*3 -1.83 C 8.1 km/h
1706 30-01-2019 22:05:00 0.8 C 4.76 g/m*3 -3.02 C 12.9 km/h
1707 30-01-2019 22:10:00 0.8 C 4.76 g/m*3 -2.67 C 11.3 km/h
1708 30-01-2019 22:15:00 0.8 C 4.76 g/m*3 -1.26 C 6.4 km/h
1709 30-01-2019 22:20:00 0.7 C 4.73 g/m*3 -1.37 C 6.4 km/h
1710 30-01-2019 22:25:00 0.7 C 4.73 g/m*3 -2.4 C 9.7 km/h
1711 30-01-2019 22:30:00 0.7 C 4.73 g/m*3 0.7 C 4.8 km/h
1712 30-01-2019 22:35:00 0.7 C 4.73 g/m*3 -2.4 C 9.7 km/h
1713 30-01-2019 22:40:00 0.7 C 4.73 g/m*3 -1.37 C 6.4 km/h
1714 30-01-2019 22:45:00 0.7 C 4.68 g/m*3 -2.4 C 9.7 km/h
1715 30-01-2019 22:50:00 0.6 C 4.65 g/m*3 -2.06 C 8.1 km/h
1716 30-01-2019 22:55:00 0.6 C 4.65 g/m*3 0.6 C 4.8 km/h
1717 30-01-2019 23:00:00 0.6 C 4.65 g/m*3 0.6 C 4.8 km/h
1718 30-01-2019 23:05:00 0.4 C 4.58 g/m*3 -1.72 C 6.4 km/h
1719 30-01-2019 23:10:00 0.4 C 4.58 g/m*3 0.4 C 4.8 km/h
1720 30-01-2019 23:15:00 0.3 C 4.55 g/m*3 -1.84 C 6.4 km/h
1721 30-01-2019 23:20:00 0.3 C 4.55 g/m*3 -1.84 C 6.4 km/h
1722 30-01-2019 23:25:00 0.3 C 4.55 g/m*3 -2.88 C 9.7 km/h
1723 30-01-2019 23:30:00 0.2 C 4.52 g/m*3 0.2 C 4.8 km/h
1724 30-01-2019 23:35:00 0.2 C 4.57 g/m*3 0.2 C 4.8 km/h
1725 30-01-2019 23:40:00 0.1 C 4.49 g/m*3 -2.07 C 6.4 km/h
Sensor: Nr:Datum:Temp:Abs-Feuchte:Windchill:Wind:
Aussen-T/F 1726 30-01-2019 23:45:00 0.1 C 4.54 g/m*3 -2.07 C 6.4 km/h
1727 30-01-2019 23:50:00 0 C 4.51 g/m*3 -2.77 C 8.1 km/h
1728 30-01-2019 23:55:00 -0.1 C 4.47 g/m*3 -0.1 C 4.8 km/h
1729 31-01-2019 00:00:00 -0.2 C 4.44 g/m*3 -0.2 C 4.8 km/h
1730 31-01-2019 00:05:00 -0.2 C 4.44 g/m*3 -0.2 C 4.8 km/h
1731 31-01-2019 00:10:00 -0.2 C 4.44 g/m*3 -3 C 8.1 km/h
1732 31-01-2019 00:15:00 -0.2 C 4.44 g/m*3 -2.41 C 6.4 km/h
1733 31-01-2019 00:20:00 -0.3 C 4.41 g/m*3 -2.53 C 6.4 km/h
1734 31-01-2019 00:25:00 -0.3 C 4.41 g/m*3 -0.3 C 4.8 km/h
1735 31-01-2019 00:30:00 -0.4 C 4.38 g/m*3 -2.64 C 6.4 km/h
1736 31-01-2019 00:35:00 -0.4 C 4.38 g/m*3 -2.64 C 6.4 km/h
1737 31-01-2019 00:40:00 -0.5 C 4.35 g/m*3 -0.5 C 0 km/h
1738 31-01-2019 00:45:00 -0.6 C 4.32 g/m*3 -0.6 C 0 km/h
1739 31-01-2019 00:50:00 -0.7 C 4.29 g/m*3 -0.7 C 0 km/h
1740 31-01-2019 00:55:00 -0.8 C 4.26 g/m*3 -0.8 C 0 km/h
1741 31-01-2019 01:00:00 -1 C 4.2 g/m*3 -1 C 0 km/h
1742 31-01-2019 01:05:00 -1.1 C 4.17 g/m*3 -1.1 C 0 km/h
1743 31-01-2019 01:10:00 -1.2 C 4.15 g/m*3 -1.2 C 0 km/h
1744 31-01-2019 01:15:00 -1.3 C 4.12 g/m*3 -1.3 C 0 km/h
1745 31-01-2019 01:20:00 -1.4 C 4.09 g/m*3 -1.4 C 0 km/h
1746 31-01-2019 01:25:00 -1.4 C 4.13 g/m*3 -1.4 C 0 km/h
1747 31-01-2019 01:30:00 -1.4 C 4.13 g/m*3 -1.4 C 0 km/h
1748 31-01-2019 01:35:00 -1.4 C 4.13 g/m*3 -1.4 C 0 km/h
1749 31-01-2019 01:40:00 -1.3 C 4.16 g/m*3 -1.3 C 0 km/h
1750 31-01-2019 01:45:00 -1.2 C 4.24 g/m*3 -1.2 C 0 km/h
Sensor: Nr:Datum:Temp:Abs-Feuchte:Windchill:Wind:
Aussen-T/F 1751 31-01-2019 01:50:00 -1.1 C 4.26 g/m*3 -1.1 C 0 km/h
1752 31-01-2019 01:55:00 -1.1 C 4.26 g/m*3 -1.1 C 0 km/h
1753 31-01-2019 02:00:00 -1.1 C 4.22 g/m*3 -1.1 C 0 km/h
1754 31-01-2019 02:05:00 -1.2 C 4.19 g/m*3 -1.2 C 0 km/h
1755 31-01-2019 02:10:00 -1.2 C 4.19 g/m*3 -1.2 C 0 km/h
1756 31-01-2019 02:15:00 -1.2 C 4.19 g/m*3 -1.2 C 0 km/h
1757 31-01-2019 02:20:00 -1.3 C 4.16 g/m*3 -1.3 C 0 km/h
1758 31-01-2019 02:25:00 -1.3 C 4.21 g/m*3 -1.3 C 0 km/h
1759 31-01-2019 02:30:00 -1.3 C 4.16 g/m*3 -1.3 C 0 km/h
1760 31-01-2019 02:35:00 -1.3 C 4.21 g/m*3 -1.3 C 0 km/h
1761 31-01-2019 02:40:00 -1.4 C 4.18 g/m*3 -1.4 C 0 km/h
1762 31-01-2019 02:45:00 -1.4 C 4.18 g/m*3 -1.4 C 0 km/h
1763 31-01-2019 02:50:00 -1.4 C 4.18 g/m*3 -1.4 C 0 km/h
1764 31-01-2019 02:55:00 -1.4 C 4.18 g/m*3 -1.4 C 0 km/h
1765 31-01-2019 03:00:00 -1.4 C 4.18 g/m*3 -1.4 C 0 km/h
1766 31-01-2019 03:05:00 -1.4 C 4.18 g/m*3 -1.4 C 0 km/h
1767 31-01-2019 03:10:00 -1.4 C 4.18 g/m*3 -1.4 C 0 km/h
1768 31-01-2019 03:15:00 -1.4 C 4.18 g/m*3 -1.4 C 0 km/h
1769 31-01-2019 03:20:00 -1.4 C 4.18 g/m*3 -1.4 C 0 km/h
1770 31-01-2019 03:25:00 -1.4 C 4.18 g/m*3 -1.4 C 0 km/h
1771 31-01-2019 03:30:00 -1.3 C 4.21 g/m*3 -1.3 C 0 km/h
1772 31-01-2019 03:35:00 -1.3 C 4.21 g/m*3 -1.3 C 0 km/h
1773 31-01-2019 03:40:00 -1.2 C 4.24 g/m*3 -1.2 C 0 km/h
1774 31-01-2019 03:45:00 -1.2 C 4.24 g/m*3 -1.2 C 0 km/h
1775 31-01-2019 03:50:00 -1.2 C 4.24 g/m*3 -1.2 C 0 km/h
Sensor: Nr:Datum:Temp:Abs-Feuchte:Windchill:Wind:
Aussen-T/F 1776 31-01-2019 03:55:00 -1.1 C 4.26 g/m*3 -1.1 C 0 km/h
1777 31-01-2019 04:00:00 -0.9 C 4.37 g/m*3 -0.9 C 0 km/h
1778 31-01-2019 04:05:00 -0.9 C 4.37 g/m*3 -0.9 C 0 km/h
1779 31-01-2019 04:10:00 -0.8 C 4.4 g/m*3 -0.8 C 0 km/h
1780 31-01-2019 04:15:00 -0.8 C 4.4 g/m*3 -0.8 C 0 km/h
1781 31-01-2019 04:20:00 -0.8 C 4.4 g/m*3 -0.8 C 0 km/h
1782 31-01-2019 04:25:00 -0.8 C 4.4 g/m*3 -0.8 C 0 km/h
1783 31-01-2019 04:30:00 -0.8 C 4.35 g/m*3 -0.8 C 0 km/h
1784 31-01-2019 04:35:00 -0.8 C 4.35 g/m*3 -0.8 C 0 km/h
1785 31-01-2019 04:40:00 -0.8 C 4.35 g/m*3 -0.8 C 0 km/h
1786 31-01-2019 04:45:00 -0.8 C 4.35 g/m*3 -0.8 C 0 km/h
1787 31-01-2019 04:50:00 -0.7 C 4.39 g/m*3 -0.7 C 0 km/h
1788 31-01-2019 04:55:00 -0.7 C 4.43 g/m*3 -0.7 C 0 km/h
1789 31-01-2019 05:00:00 -0.7 C 4.43 g/m*3 -0.7 C 0 km/h
1790 31-01-2019 05:05:00 -0.7 C 4.43 g/m*3 -0.7 C 0 km/h
1791 31-01-2019 05:10:00 -0.7 C 4.43 g/m*3 -0.7 C 0 km/h
1792 31-01-2019 05:15:00 -0.7 C 4.43 g/m*3 -0.7 C 0 km/h
1793 31-01-2019 05:20:00 -0.6 C 4.46 g/m*3 -0.6 C 0 km/h
1794 31-01-2019 05:25:00 -0.6 C 4.46 g/m*3 -0.6 C 0 km/h
1795 31-01-2019 05:30:00 -0.6 C 4.46 g/m*3 -0.6 C 0 km/h
1796 31-01-2019 05:35:00 -0.6 C 4.46 g/m*3 -0.6 C 0 km/h
1797 31-01-2019 05:40:00 -0.6 C 4.46 g/m*3 -0.6 C 0 km/h
1798 31-01-2019 05:45:00 -0.6 C 4.46 g/m*3 -0.6 C 0 km/h
1799 31-01-2019 05:50:00 -0.5 C 4.49 g/m*3 -0.5 C 0 km/h
1800 31-01-2019 05:55:00 -0.5 C 4.49 g/m*3 -0.5 C 0 km/h
Sensor: Nr:Datum:Temp:Abs-Feuchte:Windchill:Wind:
Aussen-T/F 1801 31-01-2019 06:00:00 -0.5 C 4.49 g/m*3 -0.5 C 0 km/h
1802 31-01-2019 06:05:00 -0.5 C 4.49 g/m*3 -0.5 C 0 km/h
1803 31-01-2019 06:10:00 -0.4 C 4.52 g/m*3 -0.4 C 0 km/h
1804 31-01-2019 06:15:00 -0.4 C 4.52 g/m*3 -0.4 C 0 km/h
1805 31-01-2019 06:20:00 -0.4 C 4.52 g/m*3 -0.4 C 0 km/h
1806 31-01-2019 06:25:00 -0.4 C 4.52 g/m*3 -0.4 C 0 km/h
1807 31-01-2019 06:30:00 -0.4 C 4.52 g/m*3 -0.4 C 0 km/h
1808 31-01-2019 06:35:00 -0.4 C 4.52 g/m*3 -0.4 C 0 km/h
1809 31-01-2019 06:40:00 -0.4 C 4.52 g/m*3 -0.4 C 0 km/h
1810 31-01-2019 06:45:00 -0.4 C 4.52 g/m*3 -0.4 C 0 km/h
1811 31-01-2019 06:50:00 -0.4 C 4.52 g/m*3 -0.4 C 0 km/h
1812 31-01-2019 06:55:00 -0.4 C 4.52 g/m*3 -0.4 C 0 km/h
1813 31-01-2019 07:00:00 -0.4 C 4.52 g/m*3 -0.4 C 0 km/h
1814 31-01-2019 07:05:00 -0.5 C 4.49 g/m*3 -0.5 C 0 km/h
1815 31-01-2019 07:10:00 -0.4 C 4.52 g/m*3 -0.4 C 0 km/h
1816 31-01-2019 07:15:00 -0.4 C 4.52 g/m*3 -0.4 C 0 km/h
1817 31-01-2019 07:20:00 -0.4 C 4.52 g/m*3 -0.4 C 0 km/h
1818 31-01-2019 07:25:00 -0.4 C 4.52 g/m*3 -0.4 C 0 km/h
1819 31-01-2019 07:30:00 -0.3 C 4.56 g/m*3 -0.3 C 0 km/h
1820 31-01-2019 07:35:00 -0.3 C 4.56 g/m*3 -0.3 C 0 km/h
1821 31-01-2019 07:40:00 -0.3 C 4.56 g/m*3 -0.3 C 0 km/h
1822 31-01-2019 07:45:00 -0.3 C 4.56 g/m*3 -0.3 C 0 km/h
1823 31-01-2019 07:50:00 -0.3 C 4.56 g/m*3 -0.3 C 0 km/h
1824 31-01-2019 07:55:00 -0.3 C 4.56 g/m*3 -0.3 C 0 km/h
1825 31-01-2019 08:00:00 -0.3 C 4.56 g/m*3 -0.3 C 0 km/h
Sensor: Nr:Datum:Temp:Abs-Feuchte:Windchill:Wind:
Aussen-T/F 1826 31-01-2019 08:05:00 -0.3 C 4.56 g/m*3 -0.3 C 0 km/h
1827 31-01-2019 08:10:00 -0.3 C 4.56 g/m*3 -0.3 C 0 km/h
1828 31-01-2019 08:15:00 -0.3 C 4.56 g/m*3 -0.3 C 0 km/h
1829 31-01-2019 08:20:00 -0.3 C 4.56 g/m*3 -0.3 C 0 km/h
1830 31-01-2019 08:25:00 -0.3 C 4.56 g/m*3 -0.3 C 0 km/h
1831 31-01-2019 08:30:00 -0.3 C 4.56 g/m*3 -0.3 C 0 km/h
1832 31-01-2019 08:35:00 -0.3 C 4.56 g/m*3 -0.3 C 0 km/h
1833 31-01-2019 08:40:00 -0.3 C 4.56 g/m*3 -0.3 C 0 km/h
1834 31-01-2019 08:45:00 -0.3 C 4.56 g/m*3 -0.3 C 0 km/h
1835 31-01-2019 08:50:00 -0.3 C 4.56 g/m*3 -0.3 C 0 km/h
1836 31-01-2019 08:55:00 -0.2 C 4.59 g/m*3 -0.2 C 0 km/h
1837 31-01-2019 09:00:00 -0.2 C 4.59 g/m*3 -0.2 C 0 km/h
1838 31-01-2019 09:05:00 -0.1 C 4.62 g/m*3 -0.1 C 0 km/h
1839 31-01-2019 09:10:00 -0.1 C 4.62 g/m*3 -0.1 C 0 km/h
1840 31-01-2019 09:15:00 0.1 C 4.68 g/m*3 0.1 C 0 km/h
1841 31-01-2019 09:20:00 0.1 C 4.68 g/m*3 0.1 C 0 km/h
1842 31-01-2019 09:25:00 0.2 C 4.72 g/m*3 0.2 C 0 km/h
1843 31-01-2019 09:30:00 0.3 C 4.75 g/m*3 0.3 C 0 km/h
1844 31-01-2019 09:35:00 0.3 C 4.75 g/m*3 0.3 C 0 km/h
1845 31-01-2019 09:40:00 0.3 C 4.75 g/m*3 0.3 C 0 km/h
1846 31-01-2019 09:45:00 0.3 C 4.75 g/m*3 0.3 C 3.2 km/h
1847 31-01-2019 09:50:00 0.3 C 4.75 g/m*3 0.3 C 3.2 km/h
1848 31-01-2019 09:55:00 0.4 C 4.78 g/m*3 0.4 C 0 km/h
1849 31-01-2019 10:00:00 0.5 C 4.81 g/m*3 0.5 C 0 km/h
1850 31-01-2019 10:05:00 0.5 C 4.81 g/m*3 0.5 C 0 km/h
Sensor: Nr:Datum:Temp:Abs-Feuchte:Windchill:Wind:
Aussen-T/F 1851 31-01-2019 10:10:00 0.6 C 4.85 g/m*3 0.6 C 1.6 km/h
1852 31-01-2019 10:15:00 0.6 C 4.85 g/m*3 0.6 C 1.6 km/h
1853 31-01-2019 10:20:00 0.6 C 4.8 g/m*3 -3.58 C 14.5 km/h
1854 31-01-2019 10:25:00 0.6 C 4.8 g/m*3 0.6 C 1.6 km/h
1855 31-01-2019 10:30:00 0.7 C 4.83 g/m*3 0.7 C 1.6 km/h
1856 31-01-2019 10:35:00 0.8 C 4.86 g/m*3 0.8 C 3.2 km/h
1857 31-01-2019 10:40:00 0.8 C 4.86 g/m*3 0.8 C 0 km/h
1858 31-01-2019 10:45:00 0.9 C 4.9 g/m*3 0.9 C 3.2 km/h
1859 31-01-2019 10:50:00 1 C 4.93 g/m*3 1 C 0 km/h
1860 31-01-2019 10:55:00 1.1 C 4.91 g/m*3 1.1 C 0 km/h
1861 31-01-2019 11:00:00 1.1 C 4.91 g/m*3 1.1 C 0 km/h
1862 31-01-2019 11:05:00 1.2 C 5 g/m*3 1.2 C 0 km/h
1863 31-01-2019 11:10:00 1.3 C 5.03 g/m*3 1.3 C 0 km/h
1864 31-01-2019 11:15:00 1.3 C 4.98 g/m*3 1.3 C 0 km/h
1865 31-01-2019 11:20:00 1.4 C 5.01 g/m*3 1.4 C 0 km/h
1866 31-01-2019 11:25:00 1.4 C 5.01 g/m*3 1.4 C 4.8 km/h
1867 31-01-2019 11:30:00 1.4 C 5.01 g/m*3 1.4 C 0 km/h
1868 31-01-2019 11:35:00 1.4 C 5.01 g/m*3 1.4 C 1.6 km/h
1869 31-01-2019 11:40:00 1.4 C 5.01 g/m*3 1.4 C 0 km/h
1870 31-01-2019 11:45:00 1.5 C 5.05 g/m*3 1.5 C 0 km/h
1871 31-01-2019 11:50:00 1.6 C 5.08 g/m*3 1.6 C 0 km/h
1872 31-01-2019 11:55:00 1.7 C 5.12 g/m*3 1.7 C 0 km/h
1873 31-01-2019 12:00:00 1.8 C 5.15 g/m*3 1.8 C 0 km/h
1874 31-01-2019 12:05:00 1.7 C 5.12 g/m*3 1.7 C 4.8 km/h
1875 31-01-2019 12:10:00 1.7 C 5.12 g/m*3 1.7 C 0 km/h
Sensor: Nr:Datum:Temp:Abs-Feuchte:Windchill:Wind:
Aussen-T/F 1876 31-01-2019 12:15:00 1.8 C 5.15 g/m*3 1.8 C 0 km/h
1877 31-01-2019 12:20:00 1.8 C 5.15 g/m*3 1.8 C 0 km/h
1878 31-01-2019 12:25:00 1.9 C 5.19 g/m*3 1.9 C 0 km/h
1879 31-01-2019 12:30:00 1.9 C 5.19 g/m*3 1.9 C 0 km/h
1880 31-01-2019 12:35:00 1.9 C 5.19 g/m*3 1.9 C 0 km/h
1881 31-01-2019 12:40:00 1.9 C 5.19 g/m*3 1.9 C 0 km/h
1882 31-01-2019 12:45:00 1.9 C 5.19 g/m*3 1.9 C 0 km/h
1883 31-01-2019 12:50:00 1.8 C 5.15 g/m*3 1.8 C 0 km/h
1884 31-01-2019 12:55:00 1.7 C 5.06 g/m*3 1.7 C 3.2 km/h
1885 31-01-2019 13:00:00 1.7 C 5.06 g/m*3 1.7 C 0 km/h
1886 31-01-2019 13:05:00 1.7 C 5.12 g/m*3 1.7 C 0 km/h
1887 31-01-2019 13:10:00 1.6 C 5.08 g/m*3 1.6 C 0 km/h
1888 31-01-2019 13:15:00 1.6 C 5.03 g/m*3 1.6 C 0 km/h
1889 31-01-2019 13:20:00 1.6 C 5.08 g/m*3 1.6 C 0 km/h
1890 31-01-2019 13:25:00 1.5 C 5.05 g/m*3 1.5 C 0 km/h
1891 31-01-2019 13:30:00 1.5 C 5.05 g/m*3 1.5 C 0 km/h
1892 31-01-2019 13:35:00 1.5 C 5.05 g/m*3 1.5 C 0 km/h
1893 31-01-2019 13:40:00 1.5 C 5.05 g/m*3 1.5 C 0 km/h
1894 31-01-2019 13:45:00 1.4 C 5.01 g/m*3 1.4 C 3.2 km/h
1895 31-01-2019 13:50:00 1.4 C 5.01 g/m*3 1.4 C 0 km/h
1896 31-01-2019 13:55:00 1.4 C 5.01 g/m*3 1.4 C 0 km/h
1897 31-01-2019 14:00:00 1.4 C 5.01 g/m*3 1.4 C 0 km/h
1898 31-01-2019 14:05:00 1.4 C 5.01 g/m*3 1.4 C 0 km/h
1899 31-01-2019 14:10:00 1.5 C 5.05 g/m*3 1.5 C 0 km/h
1900 31-01-2019 14:15:00 1.6 C 5.14 g/m*3 1.6 C 0 km/h
Sensor: Nr:Datum:Temp:Abs-Feuchte:Windchill:Wind:
Aussen-T/F 1901 31-01-2019 14:20:00 1.7 C 5.17 g/m*3 1.7 C 0 km/h
1902 31-01-2019 14:25:00 1.9 C 5.24 g/m*3 1.9 C 0 km/h
1903 31-01-2019 14:30:00 2 C 5.28 g/m*3 2 C 0 km/h
1904 31-01-2019 14:35:00 2.1 C 5.31 g/m*3 2.1 C 0 km/h
1905 31-01-2019 14:40:00 2.1 C 5.31 g/m*3 2.1 C 0 km/h
1906 31-01-2019 14:45:00 2.1 C 5.31 g/m*3 2.1 C 0 km/h
1907 31-01-2019 14:50:00 2.1 C 5.26 g/m*3 2.1 C 0 km/h
1908 31-01-2019 14:55:00 2.1 C 5.26 g/m*3 2.1 C 0 km/h
1909 31-01-2019 15:00:00 2.2 C 5.29 g/m*3 2.2 C 0 km/h
1910 31-01-2019 15:05:00 2.3 C 5.33 g/m*3 2.3 C 0 km/h
1911 31-01-2019 15:10:00 2.4 C 5.37 g/m*3 2.4 C 0 km/h
1912 31-01-2019 15:15:00 2.4 C 5.37 g/m*3 2.4 C 0 km/h
1913 31-01-2019 15:20:00 2.4 C 5.37 g/m*3 2.4 C 0 km/h
1914 31-01-2019 15:25:00 2.3 C 5.27 g/m*3 2.3 C 0 km/h
1915 31-01-2019 15:30:00 2.3 C 5.27 g/m*3 2.3 C 0 km/h
1916 31-01-2019 15:35:00 2.3 C 5.27 g/m*3 2.3 C 0 km/h
1917 31-01-2019 15:40:00 2.2 C 5.24 g/m*3 2.2 C 0 km/h
1918 31-01-2019 15:45:00 2.1 C 5.2 g/m*3 2.1 C 0 km/h
1919 31-01-2019 15:50:00 2.1 C 5.2 g/m*3 2.1 C 0 km/h
1920 31-01-2019 15:55:00 2 C 5.17 g/m*3 2 C 0 km/h
1921 31-01-2019 16:00:00 1.9 C 5.13 g/m*3 1.9 C 0 km/h
1922 31-01-2019 16:05:00 1.8 C 5.1 g/m*3 1.8 C 0 km/h
1923 31-01-2019 16:10:00 1.7 C 5.06 g/m*3 1.7 C 0 km/h
1924 31-01-2019 16:15:00 1.7 C 5.06 g/m*3 1.7 C 0 km/h
1925 31-01-2019 16:20:00 1.6 C 5.03 g/m*3 1.6 C 0 km/h
Sensor: Nr:Datum:Temp:Abs-Feuchte:Windchill:Wind:
Aussen-T/F 1926 31-01-2019 16:25:00 1.6 C 5.03 g/m*3 1.6 C 0 km/h
1927 31-01-2019 16:30:00 1.6 C 5.03 g/m*3 1.6 C 0 km/h
1928 31-01-2019 16:35:00 1.5 C 5.05 g/m*3 1.5 C 0 km/h
1929 31-01-2019 16:40:00 1.4 C 4.96 g/m*3 1.4 C 0 km/h
1930 31-01-2019 16:45:00 1.4 C 4.96 g/m*3 1.4 C 0 km/h
1931 31-01-2019 16:50:00 1.3 C 4.98 g/m*3 1.3 C 0 km/h
1932 31-01-2019 16:55:00 1.3 C 4.98 g/m*3 1.3 C 0 km/h
1933 31-01-2019 17:00:00 1.2 C 4.95 g/m*3 1.2 C 0 km/h
1934 31-01-2019 17:05:00 1.2 C 4.95 g/m*3 1.2 C 0 km/h
1935 31-01-2019 17:10:00 1.1 C 4.91 g/m*3 1.1 C 0 km/h
1936 31-01-2019 17:15:00 1.1 C 4.91 g/m*3 1.1 C 0 km/h
1937 31-01-2019 17:20:00 1.1 C 4.91 g/m*3 1.1 C 0 km/h
1938 31-01-2019 17:25:00 0.9 C 4.85 g/m*3 0.9 C 0 km/h
1939 31-01-2019 17:30:00 0.9 C 4.85 g/m*3 0.9 C 0 km/h
1940 31-01-2019 17:35:00 0.8 C 4.81 g/m*3 0.8 C 0 km/h
1941 31-01-2019 17:40:00 0.8 C 4.81 g/m*3 0.8 C 0 km/h
1942 31-01-2019 17:45:00 0.8 C 4.81 g/m*3 0.8 C 0 km/h
1943 31-01-2019 17:50:00 0.7 C 4.78 g/m*3 0.7 C 0 km/h
1944 31-01-2019 17:55:00 0.6 C 4.75 g/m*3 0.6 C 0 km/h
1945 31-01-2019 18:00:00 0.4 C 4.68 g/m*3 0.4 C 0 km/h
1946 31-01-2019 18:05:00 0.4 C 4.68 g/m*3 0.4 C 3.2 km/h
1947 31-01-2019 18:10:00 0.3 C 4.65 g/m*3 0.3 C 3.2 km/h
1948 31-01-2019 18:15:00 0.3 C 4.65 g/m*3 0.3 C 3.2 km/h
1949 31-01-2019 18:20:00 0.2 C 4.62 g/m*3 0.2 C 4.8 km/h
1950 31-01-2019 18:25:00 0.2 C 4.62 g/m*3 0.2 C 4.8 km/h
Sensor: Nr:Datum:Temp:Abs-Feuchte:Windchill:Wind:
Aussen-T/F 1951 31-01-2019 18:30:00 0 C 4.55 g/m*3 0 C 4.8 km/h
1952 31-01-2019 18:35:00 -0.1 C 4.52 g/m*3 -0.1 C 3.2 km/h
1953 31-01-2019 18:40:00 -0.2 C 4.49 g/m*3 -0.2 C 3.2 km/h
1954 31-01-2019 18:45:00 -0.2 C 4.49 g/m*3 -0.2 C 3.2 km/h
1955 31-01-2019 18:50:00 -0.2 C 4.49 g/m*3 -0.2 C 3.2 km/h
1956 31-01-2019 18:55:00 -0.3 C 4.46 g/m*3 -0.3 C 3.2 km/h
1957 31-01-2019 19:00:00 -0.3 C 4.46 g/m*3 -0.3 C 0 km/h
1958 31-01-2019 19:05:00 -0.4 C 4.43 g/m*3 -0.4 C 1.6 km/h
1959 31-01-2019 19:10:00 -0.6 C 4.37 g/m*3 -0.6 C 1.6 km/h
1960 31-01-2019 19:15:00 -0.8 C 4.26 g/m*3 -0.8 C 3.2 km/h
1961 31-01-2019 19:20:00 -1 C 4.25 g/m*3 -1 C 0 km/h
1962 31-01-2019 19:25:00 -1.2 C 4.15 g/m*3 -1.2 C 1.6 km/h
1963 31-01-2019 19:30:00 -1.3 C 4.16 g/m*3 -1.3 C 1.6 km/h
1964 31-01-2019 19:35:00 -1.4 C 4.13 g/m*3 -1.4 C 3.2 km/h
1965 31-01-2019 19:40:00 -1.5 C 4.1 g/m*3 -1.5 C 3.2 km/h
1966 31-01-2019 19:45:00 -1.6 C 4.07 g/m*3 -1.6 C 3.2 km/h
1967 31-01-2019 19:50:00 -1.6 C 4.07 g/m*3 -1.6 C 3.2 km/h
1968 31-01-2019 19:55:00 -1.7 C 4.05 g/m*3 -1.7 C 3.2 km/h
1969 31-01-2019 20:00:00 -1.7 C 4.05 g/m*3 -1.7 C 3.2 km/h
1970 31-01-2019 20:05:00 -1.8 C 4.02 g/m*3 -1.8 C 3.2 km/h
1971 31-01-2019 20:10:00 -1.8 C 4.02 g/m*3 -1.8 C 3.2 km/h
1972 31-01-2019 20:15:00 -1.9 C 3.99 g/m*3 -1.9 C 1.6 km/h
1973 31-01-2019 20:20:00 -1.9 C 3.99 g/m*3 -1.9 C 0 km/h
1974 31-01-2019 20:25:00 -1.9 C 3.99 g/m*3 -1.9 C 0 km/h
1975 31-01-2019 20:30:00 -2 C 3.96 g/m*3 -2 C 0 km/h
Sensor: Nr:Datum:Temp:Abs-Feuchte:Windchill:Wind:
Aussen-T/F 1976 31-01-2019 20:35:00 -2.1 C 3.93 g/m*3 -2.1 C 0 km/h
1977 31-01-2019 20:40:00 -2.1 C 3.93 g/m*3 -2.1 C 0 km/h
1978 31-01-2019 20:45:00 -2.1 C 3.93 g/m*3 -2.1 C 0 km/h
1979 31-01-2019 20:50:00 -2.1 C 3.98 g/m*3 -2.1 C 0 km/h
1980 31-01-2019 20:55:00 -2.1 C 3.98 g/m*3 -2.1 C 0 km/h
1981 31-01-2019 21:00:00 -2.1 C 3.98 g/m*3 -2.1 C 0 km/h
1982 31-01-2019 21:05:00 -2.1 C 3.98 g/m*3 -2.1 C 0 km/h
1983 31-01-2019 21:10:00 -2.1 C 3.98 g/m*3 -2.1 C 0 km/h
1984 31-01-2019 21:15:00 -2.1 C 3.98 g/m*3 -2.1 C 0 km/h
1985 31-01-2019 21:20:00 -2.1 C 3.98 g/m*3 -2.1 C 0 km/h
1986 31-01-2019 21:25:00 -2.1 C 3.98 g/m*3 -2.1 C 0 km/h
1987 31-01-2019 21:30:00 -2.1 C 3.98 g/m*3 -2.1 C 0 km/h
1988 31-01-2019 21:35:00 -2 C 4 g/m*3 -2 C 0 km/h
1989 31-01-2019 21:40:00 -1.9 C 4.03 g/m*3 -1.9 C 0 km/h
1990 31-01-2019 21:45:00 -1.9 C 4.03 g/m*3 -1.9 C 0 km/h
1991 31-01-2019 21:50:00 -1.8 C 4.06 g/m*3 -1.8 C 0 km/h
1992 31-01-2019 21:55:00 -1.8 C 4.06 g/m*3 -1.8 C 0 km/h
1993 31-01-2019 22:00:00 -1.7 C 4.09 g/m*3 -1.7 C 0 km/h
1994 31-01-2019 22:05:00 -1.7 C 4.13 g/m*3 -1.7 C 0 km/h
1995 31-01-2019 22:10:00 -1.6 C 4.16 g/m*3 -1.6 C 0 km/h
1996 31-01-2019 22:15:00 -1.6 C 4.16 g/m*3 -1.6 C 0 km/h
1997 31-01-2019 22:20:00 -1.6 C 4.16 g/m*3 -1.6 C 0 km/h
1998 31-01-2019 22:25:00 -1.6 C 4.16 g/m*3 -1.6 C 0 km/h
1999 31-01-2019 22:30:00 -1.6 C 4.16 g/m*3 -1.6 C 0 km/h
2000 31-01-2019 22:35:00 -1.6 C 4.16 g/m*3 -1.6 C 0 km/h
Sensor: Nr:Datum:Temp:Abs-Feuchte:Windchill:Wind:
Aussen-T/F 2001 31-01-2019 22:40:00 -1.6 C 4.16 g/m*3 -1.6 C 0 km/h
2002 31-01-2019 22:45:00 -1.6 C 4.16 g/m*3 -1.6 C 0 km/h
2003 31-01-2019 22:50:00 -1.5 C 4.19 g/m*3 -1.5 C 0 km/h
2004 31-01-2019 22:55:00 -1.5 C 4.19 g/m*3 -1.5 C 0 km/h
2005 31-01-2019 23:00:00 -1.4 C 4.22 g/m*3 -1.4 C 0 km/h
2006 31-01-2019 23:05:00 -1.4 C 4.22 g/m*3 -1.4 C 0 km/h
2007 31-01-2019 23:10:00 -1.3 C 4.25 g/m*3 -1.3 C 0 km/h
2008 31-01-2019 23:15:00 -1.3 C 4.25 g/m*3 -1.3 C 0 km/h
2009 31-01-2019 23:20:00 -1.3 C 4.25 g/m*3 -1.3 C 0 km/h
2010 31-01-2019 23:25:00 -1.3 C 4.25 g/m*3 -1.3 C 0 km/h
2011 31-01-2019 23:30:00 -1.2 C 4.28 g/m*3 -1.2 C 0 km/h
2012 31-01-2019 23:35:00 -1.2 C 4.28 g/m*3 -1.2 C 0 km/h
2013 31-01-2019 23:40:00 -1.1 C 4.31 g/m*3 -1.1 C 0 km/h
2014 31-01-2019 23:45:00 -1.1 C 4.31 g/m*3 -1.1 C 0 km/h
2015 31-01-2019 23:50:00 -1.1 C 4.31 g/m*3 -1.1 C 0 km/h
2016 31-01-2019 23:55:00 -1 C 4.34 g/m*3 -1 C 0 km/h
2017 01-02-2019 00:00:00 -0.9 C 4.37 g/m*3 -0.9 C 0 km/h
2018 01-02-2019 00:05:00 -0.9 C 4.37 g/m*3 -0.9 C 0 km/h
2019 01-02-2019 00:10:00 -0.9 C 4.37 g/m*3 -0.9 C 0 km/h
2020 01-02-2019 00:15:00 -0.8 C 4.4 g/m*3 -0.8 C 0 km/h
2021 01-02-2019 00:20:00 -0.8 C 4.4 g/m*3 -0.8 C 0 km/h
2022 01-02-2019 00:25:00 -0.8 C 4.4 g/m*3 -0.8 C 0 km/h
2023 01-02-2019 00:30:00 -0.8 C 4.4 g/m*3 -0.8 C 0 km/h
2024 01-02-2019 00:35:00 -0.7 C 4.43 g/m*3 -0.7 C 0 km/h
2025 01-02-2019 00:40:00 -0.7 C 4.43 g/m*3 -0.7 C 0 km/h
Sensor: Nr:Datum:Temp:Abs-Feuchte:Windchill:Wind:
Aussen-T/F 2026 01-02-2019 00:45:00 -0.7 C 4.43 g/m*3 -0.7 C 0 km/h
2027 01-02-2019 00:50:00 -0.7 C 4.43 g/m*3 -0.7 C 0 km/h
2028 01-02-2019 00:55:00 -0.6 C 4.46 g/m*3 -0.6 C 0 km/h
2029 01-02-2019 01:00:00 -0.6 C 4.46 g/m*3 -0.6 C 0 km/h
2030 01-02-2019 01:05:00 -0.6 C 4.46 g/m*3 -0.6 C 0 km/h
2031 01-02-2019 01:10:00 -0.5 C 4.49 g/m*3 -0.5 C 0 km/h
2032 01-02-2019 01:15:00 -0.5 C 4.49 g/m*3 -0.5 C 0 km/h
2033 01-02-2019 01:20:00 -0.4 C 4.52 g/m*3 -0.4 C 0 km/h
2034 01-02-2019 01:25:00 -0.4 C 4.52 g/m*3 -0.4 C 0 km/h
2035 01-02-2019 01:30:00 -0.4 C 4.52 g/m*3 -0.4 C 0 km/h
2036 01-02-2019 01:35:00 -0.4 C 4.52 g/m*3 -0.4 C 0 km/h
2037 01-02-2019 01:40:00 -0.4 C 4.52 g/m*3 -0.4 C 0 km/h
2038 01-02-2019 01:45:00 -0.4 C 4.52 g/m*3 -0.4 C 0 km/h
2039 01-02-2019 01:50:00 -0.4 C 4.52 g/m*3 -0.4 C 0 km/h
2040 01-02-2019 01:55:00 -0.3 C 4.56 g/m*3 -0.3 C 0 km/h
2041 01-02-2019 02:00:00 -0.3 C 4.56 g/m*3 -0.3 C 0 km/h
2042 01-02-2019 02:05:00 -0.3 C 4.56 g/m*3 -0.3 C 0 km/h
2043 01-02-2019 02:10:00 -0.2 C 4.59 g/m*3 -0.2 C 0 km/h
2044 01-02-2019 02:15:00 -0.2 C 4.59 g/m*3 -0.2 C 0 km/h
2045 01-02-2019 02:20:00 -0.2 C 4.59 g/m*3 -0.2 C 0 km/h
2046 01-02-2019 02:25:00 -0.2 C 4.59 g/m*3 -0.2 C 0 km/h
2047 01-02-2019 02:30:00 -0.1 C 4.62 g/m*3 -0.1 C 0 km/h
2048 01-02-2019 02:35:00 -0.1 C 4.62 g/m*3 -0.1 C 0 km/h
2049 01-02-2019 02:40:00 -0.1 C 4.62 g/m*3 -0.1 C 0 km/h
2050 01-02-2019 02:45:00 0 C 4.65 g/m*3 0 C 0 km/h
Sensor: Nr:Datum:Temp:Abs-Feuchte:Windchill:Wind:
Aussen-T/F 2051 01-02-2019 02:50:00 0.1 C 4.68 g/m*3 0.1 C 0 km/h
2052 01-02-2019 02:55:00 0.1 C 4.68 g/m*3 0.1 C 0 km/h
2053 01-02-2019 03:00:00 0.2 C 4.72 g/m*3 0.2 C 1.6 km/h
2054 01-02-2019 03:05:00 0.3 C 4.75 g/m*3 0.3 C 3.2 km/h
2055 01-02-2019 03:10:00 0.4 C 4.83 g/m*3 0.4 C 1.6 km/h
2056 01-02-2019 03:15:00 0.4 C 4.83 g/m*3 0.4 C 3.2 km/h
2057 01-02-2019 03:20:00 0.5 C 4.86 g/m*3 0.5 C 3.2 km/h
2058 01-02-2019 03:25:00 0.6 C 4.9 g/m*3 0.6 C 1.6 km/h
2059 01-02-2019 03:30:00 0.6 C 4.85 g/m*3 0.6 C 3.2 km/h
2060 01-02-2019 03:35:00 0.7 C 4.93 g/m*3 0.7 C 3.2 km/h
2061 01-02-2019 03:40:00 0.7 C 4.93 g/m*3 0.7 C 0 km/h
2062 01-02-2019 03:45:00 0.8 C 4.97 g/m*3 0.8 C 4.8 km/h
2063 01-02-2019 03:50:00 0.8 C 4.97 g/m*3 0.8 C 1.6 km/h
2064 01-02-2019 03:55:00 0.9 C 5 g/m*3 0.9 C 3.2 km/h
2065 01-02-2019 04:00:00 0.9 C 5 g/m*3 0.9 C 3.2 km/h
2066 01-02-2019 04:05:00 0.9 C 5 g/m*3 0.9 C 3.2 km/h
2067 01-02-2019 04:10:00 0.9 C 5 g/m*3 -1.71 C 8.1 km/h
2068 01-02-2019 04:15:00 1 C 4.98 g/m*3 1 C 3.2 km/h
2069 01-02-2019 04:20:00 1.1 C 5.02 g/m*3 -1.92 C 9.7 km/h
2070 01-02-2019 04:25:00 1.1 C 5.02 g/m*3 -0.91 C 6.4 km/h
2071 01-02-2019 04:30:00 1.1 C 5.02 g/m*3 1.1 C 4.8 km/h
2072 01-02-2019 04:35:00 1.2 C 5.05 g/m*3 -0.8 C 6.4 km/h
2073 01-02-2019 04:40:00 1.2 C 5.05 g/m*3 1.2 C 4.8 km/h
2074 01-02-2019 04:45:00 1.2 C 5.05 g/m*3 -0.8 C 6.4 km/h
2075 01-02-2019 04:50:00 1.2 C 5.05 g/m*3 -1.36 C 8.1 km/h
Sensor: Nr:Datum:Temp:Abs-Feuchte:Windchill:Wind:
Aussen-T/F 2076 01-02-2019 04:55:00 1.2 C 5.05 g/m*3 1.2 C 0 km/h
2077 01-02-2019 05:00:00 1.2 C 5.05 g/m*3 1.2 C 0 km/h
2078 01-02-2019 05:05:00 1.2 C 5 g/m*3 1.2 C 0 km/h
2079 01-02-2019 05:10:00 1.1 C 5.02 g/m*3 1.1 C 4.8 km/h
2080 01-02-2019 05:15:00 1.2 C 5.05 g/m*3 1.2 C 0 km/h
2081 01-02-2019 05:20:00 1.1 C 5.02 g/m*3 1.1 C 0 km/h
2082 01-02-2019 05:25:00 1.2 C 5.05 g/m*3 1.2 C 0 km/h
2083 01-02-2019 05:30:00 1.2 C 5.05 g/m*3 1.2 C 0 km/h
2084 01-02-2019 05:35:00 1.2 C 5.05 g/m*3 1.2 C 0 km/h
2085 01-02-2019 05:40:00 1.2 C 5.05 g/m*3 -1.36 C 8.1 km/h
2086 01-02-2019 05:45:00 1.2 C 5.05 g/m*3 -0.8 C 6.4 km/h
2087 01-02-2019 05:50:00 1.2 C 5.05 g/m*3 1.2 C 4.8 km/h
2088 01-02-2019 05:55:00 1.2 C 5.05 g/m*3 -0.8 C 6.4 km/h
2089 01-02-2019 06:00:00 1.2 C 5.05 g/m*3 1.2 C 4.8 km/h
2090 01-02-2019 06:05:00 1.2 C 5.05 g/m*3 1.2 C 1.6 km/h
2091 01-02-2019 06:10:00 1.2 C 5.05 g/m*3 1.2 C 3.2 km/h
2092 01-02-2019 06:15:00 1.2 C 5.05 g/m*3 1.2 C 0 km/h
2093 01-02-2019 06:20:00 1.1 C 4.96 g/m*3 1.1 C 0 km/h
2094 01-02-2019 06:25:00 1.1 C 4.96 g/m*3 1.1 C 1.6 km/h
2095 01-02-2019 06:30:00 1.1 C 5.02 g/m*3 1.1 C 0 km/h
2096 01-02-2019 06:35:00 1.1 C 5.02 g/m*3 1.1 C 0 km/h
2097 01-02-2019 06:40:00 1.1 C 5.02 g/m*3 1.1 C 0 km/h
2098 01-02-2019 06:45:00 1.1 C 5.02 g/m*3 1.1 C 1.6 km/h
2099 01-02-2019 06:50:00 1.1 C 5.02 g/m*3 1.1 C 1.6 km/h
2100 01-02-2019 06:55:00 1.1 C 5.02 g/m*3 1.1 C 0 km/h
Sensor: Nr:Datum:Temp:Abs-Feuchte:Windchill:Wind:
Aussen-T/F 2101 01-02-2019 07:00:00 1.1 C 5.02 g/m*3 1.1 C 1.6 km/h
2102 01-02-2019 07:05:00 1.1 C 5.02 g/m*3 1.1 C 0 km/h
2103 01-02-2019 07:10:00 1.1 C 5.02 g/m*3 1.1 C 0 km/h
2104 01-02-2019 07:15:00 1.1 C 5.02 g/m*3 1.1 C 0 km/h
2105 01-02-2019 07:20:00 1.1 C 5.02 g/m*3 1.1 C 0 km/h
2106 01-02-2019 07:25:00 1.2 C 5.05 g/m*3 1.2 C 0 km/h
2107 01-02-2019 07:30:00 1.2 C 5.05 g/m*3 1.2 C 0 km/h
2108 01-02-2019 07:35:00 1.2 C 5.05 g/m*3 1.2 C 0 km/h
2109 01-02-2019 07:40:00 1.2 C 5.05 g/m*3 1.2 C 3.2 km/h
2110 01-02-2019 07:45:00 1.3 C 5.09 g/m*3 1.3 C 4.8 km/h
2111 01-02-2019 07:50:00 1.4 C 5.12 g/m*3 1.4 C 4.8 km/h
2112 01-02-2019 07:55:00 1.4 C 5.12 g/m*3 -0.56 C 6.4 km/h
2113 01-02-2019 08:00:00 1.4 C 5.12 g/m*3 1.4 C 0 km/h
2114 01-02-2019 08:05:00 1.3 C 5.09 g/m*3 1.3 C 3.2 km/h
2115 01-02-2019 08:10:00 1.3 C 5.09 g/m*3 1.3 C 0 km/h
2116 01-02-2019 08:15:00 1.3 C 5.09 g/m*3 1.3 C 4.8 km/h
2117 01-02-2019 08:20:00 1.3 C 5.09 g/m*3 1.3 C 3.2 km/h
2118 01-02-2019 08:25:00 1.3 C 5.09 g/m*3 1.3 C 3.2 km/h
2119 01-02-2019 08:30:00 1.3 C 5.09 g/m*3 1.3 C 3.2 km/h
2120 01-02-2019 08:35:00 1.2 C 5.05 g/m*3 1.2 C 0 km/h
2121 01-02-2019 08:40:00 1.2 C 5.05 g/m*3 1.2 C 0 km/h
2122 01-02-2019 08:45:00 1.2 C 5.05 g/m*3 1.2 C 1.6 km/h
2123 01-02-2019 08:50:00 1.4 C 5.12 g/m*3 -0.56 C 6.4 km/h
2124 01-02-2019 08:55:00 1.6 C 5.25 g/m*3 -0.33 C 6.4 km/h
2125 01-02-2019 09:00:00 1.8 C 5.26 g/m*3 -0.65 C 8.1 km/h
Sensor: Nr:Datum:Temp:Abs-Feuchte:Windchill:Wind:
Aussen-T/F 2126 01-02-2019 09:05:00 1.8 C 5.26 g/m*3 1.8 C 1.6 km/h
2127 01-02-2019 09:10:00 1.7 C 5.23 g/m*3 1.7 C 4.8 km/h
2128 01-02-2019 09:15:00 1.7 C 5.23 g/m*3 1.7 C 0 km/h
2129 01-02-2019 09:20:00 1.6 C 5.19 g/m*3 1.6 C 1.6 km/h
2130 01-02-2019 09:25:00 1.5 C 5.16 g/m*3 1.5 C 0 km/h
2131 01-02-2019 09:30:00 1.4 C 5.12 g/m*3 1.4 C 0 km/h
2132 01-02-2019 09:35:00 1.4 C 5.12 g/m*3 1.4 C 0 km/h
2133 01-02-2019 09:40:00 1.4 C 5.12 g/m*3 1.4 C 0 km/h
2134 01-02-2019 09:45:00 1.3 C 5.09 g/m*3 1.3 C 0 km/h
2135 01-02-2019 09:50:00 1.4 C 5.12 g/m*3 1.4 C 3.2 km/h
2136 01-02-2019 09:55:00 1.5 C 5.16 g/m*3 1.5 C 0 km/h
2137 01-02-2019 10:00:00 1.6 C 5.19 g/m*3 1.6 C 1.6 km/h
2138 01-02-2019 10:05:00 1.8 C 5.26 g/m*3 1.8 C 1.6 km/h
2139 01-02-2019 10:10:00 1.9 C 5.3 g/m*3 1.9 C 0 km/h
2140 01-02-2019 10:15:00 2 C 5.33 g/m*3 2 C 3.2 km/h
2141 01-02-2019 10:20:00 2.1 C 5.37 g/m*3 2.1 C 3.2 km/h
2142 01-02-2019 10:25:00 2.2 C 5.41 g/m*3 2.2 C 3.2 km/h
2143 01-02-2019 10:30:00 2.3 C 5.44 g/m*3 2.3 C 3.2 km/h
2144 01-02-2019 10:35:00 2.4 C 5.48 g/m*3 2.4 C 3.2 km/h
2145 01-02-2019 10:40:00 2.4 C 5.48 g/m*3 2.4 C 4.8 km/h
2146 01-02-2019 10:45:00 2.6 C 5.56 g/m*3 2.6 C 3.2 km/h
2147 01-02-2019 10:50:00 2.6 C 5.56 g/m*3 2.6 C 3.2 km/h
2148 01-02-2019 10:55:00 2.7 C 5.59 g/m*3 0.94 C 6.4 km/h
2149 01-02-2019 11:00:00 2.7 C 5.59 g/m*3 2.7 C 4.8 km/h
2150 01-02-2019 11:05:00 2.8 C 5.63 g/m*3 1.05 C 6.4 km/h
Sensor: Nr:Datum:Temp:Abs-Feuchte:Windchill:Wind:
Aussen-T/F 2151 01-02-2019 11:10:00 2.9 C 5.67 g/m*3 2.9 C 0 km/h
2152 01-02-2019 11:15:00 3 C 5.65 g/m*3 3 C 0 km/h
2153 01-02-2019 11:20:00 3.1 C 5.69 g/m*3 3.1 C 0 km/h
2154 01-02-2019 11:25:00 3.1 C 5.69 g/m*3 3.1 C 0 km/h
2155 01-02-2019 11:30:00 3.2 C 5.72 g/m*3 3.2 C 0 km/h
2156 01-02-2019 11:35:00 3.3 C 5.76 g/m*3 3.3 C 3.2 km/h
2157 01-02-2019 11:40:00 3.3 C 5.76 g/m*3 3.3 C 1.6 km/h
2158 01-02-2019 11:45:00 3.4 C 5.74 g/m*3 3.4 C 0 km/h
2159 01-02-2019 11:50:00 3.5 C 5.78 g/m*3 3.5 C 1.6 km/h
2160 01-02-2019 11:55:00 3.6 C 5.82 g/m*3 3.6 C 0 km/h
2161 01-02-2019 12:00:00 3.6 C 5.82 g/m*3 3.6 C 0 km/h
2162 01-02-2019 12:05:00 3.7 C 5.86 g/m*3 3.7 C 0 km/h
2163 01-02-2019 12:10:00 3.7 C 5.86 g/m*3 3.7 C 0 km/h
2164 01-02-2019 12:15:00 3.7 C 5.8 g/m*3 3.7 C 0 km/h
2165 01-02-2019 12:20:00 3.6 C 5.76 g/m*3 3.6 C 1.6 km/h
2166 01-02-2019 12:25:00 3.4 C 5.68 g/m*3 3.4 C 1.6 km/h
2167 01-02-2019 12:30:00 3.2 C 5.6 g/m*3 3.2 C 0 km/h
2168 01-02-2019 12:35:00 3.1 C 5.57 g/m*3 3.1 C 1.6 km/h
2169 01-02-2019 12:40:00 2.8 C 5.46 g/m*3 2.8 C 1.6 km/h
2170 01-02-2019 12:45:00 2.7 C 5.42 g/m*3 2.7 C 4.8 km/h
2171 01-02-2019 12:50:00 2.6 C 5.38 g/m*3 2.6 C 3.2 km/h
2172 01-02-2019 12:55:00 2.6 C 5.44 g/m*3 2.6 C 4.8 km/h
2173 01-02-2019 13:00:00 2.7 C 5.48 g/m*3 2.7 C 1.6 km/h
2174 01-02-2019 13:05:00 2.8 C 5.57 g/m*3 2.8 C 3.2 km/h
2175 01-02-2019 13:10:00 2.8 C 5.51 g/m*3 2.8 C 3.2 km/h
Sensor: Nr:Datum:Temp:Abs-Feuchte:Windchill:Wind:
Aussen-T/F 2176 01-02-2019 13:15:00 2.8 C 5.51 g/m*3 2.8 C 3.2 km/h
2177 01-02-2019 13:20:00 2.7 C 5.48 g/m*3 2.7 C 3.2 km/h
2178 01-02-2019 13:25:00 2.6 C 5.44 g/m*3 2.6 C 0 km/h
2179 01-02-2019 13:30:00 2.6 C 5.5 g/m*3 0.82 C 6.4 km/h
2180 01-02-2019 13:35:00 2.8 C 5.57 g/m*3 2.8 C 3.2 km/h
2181 01-02-2019 13:40:00 2.8 C 5.57 g/m*3 2.8 C 0 km/h
2182 01-02-2019 13:45:00 2.8 C 5.51 g/m*3 2.8 C 4.8 km/h
2183 01-02-2019 13:50:00 2.7 C 5.48 g/m*3 2.7 C 3.2 km/h
2184 01-02-2019 13:55:00 2.7 C 5.48 g/m*3 2.7 C 4.8 km/h
2185 01-02-2019 14:00:00 2.8 C 5.57 g/m*3 2.8 C 3.2 km/h
2186 01-02-2019 14:05:00 2.8 C 5.57 g/m*3 2.8 C 3.2 km/h
2187 01-02-2019 14:10:00 3.1 C 5.69 g/m*3 3.1 C 1.6 km/h
2188 01-02-2019 14:15:00 3.3 C 5.82 g/m*3 3.3 C 4.8 km/h
2189 01-02-2019 14:20:00 3.6 C 5.94 g/m*3 1.98 C 6.4 km/h
2190 01-02-2019 14:25:00 3.8 C 6.02 g/m*3 3.8 C 3.2 km/h
2191 01-02-2019 14:30:00 3.9 C 6 g/m*3 3.9 C 3.2 km/h
2192 01-02-2019 14:35:00 3.8 C 5.9 g/m*3 3.8 C 3.2 km/h
2193 01-02-2019 14:40:00 3.7 C 5.86 g/m*3 3.7 C 1.6 km/h
2194 01-02-2019 14:45:00 3.7 C 5.86 g/m*3 3.7 C 1.6 km/h
2195 01-02-2019 14:50:00 3.7 C 5.86 g/m*3 3.7 C 1.6 km/h
2196 01-02-2019 14:55:00 3.7 C 5.86 g/m*3 3.7 C 3.2 km/h
2197 01-02-2019 15:00:00 3.7 C 5.86 g/m*3 3.7 C 3.2 km/h
2198 01-02-2019 15:05:00 3.5 C 5.72 g/m*3 3.5 C 3.2 km/h
2199 01-02-2019 15:10:00 3.4 C 5.68 g/m*3 3.4 C 1.6 km/h
2200 01-02-2019 15:15:00 3.3 C 5.7 g/m*3 3.3 C 4.8 km/h
Sensor: Nr:Datum:Temp:Abs-Feuchte:Windchill:Wind:
Aussen-T/F 2201 01-02-2019 15:20:00 3.3 C 5.7 g/m*3 3.3 C 3.2 km/h
2202 01-02-2019 15:25:00 3.2 C 5.66 g/m*3 3.2 C 3.2 km/h
2203 01-02-2019 15:30:00 3.1 C 5.63 g/m*3 3.1 C 4.8 km/h
2204 01-02-2019 15:35:00 3 C 5.59 g/m*3 3 C 4.8 km/h
2205 01-02-2019 15:40:00 3 C 5.59 g/m*3 3 C 3.2 km/h
2206 01-02-2019 15:45:00 3.1 C 5.63 g/m*3 3.1 C 3.2 km/h
2207 01-02-2019 15:50:00 3.1 C 5.63 g/m*3 3.1 C 4.8 km/h
2208 01-02-2019 15:55:00 3.1 C 5.69 g/m*3 3.1 C 3.2 km/h
2209 01-02-2019 16:00:00 3.1 C 5.69 g/m*3 3.1 C 4.8 km/h
2210 01-02-2019 16:05:00 3.1 C 5.69 g/m*3 3.1 C 4.8 km/h
2211 01-02-2019 16:10:00 3.1 C 5.69 g/m*3 3.1 C 4.8 km/h
2212 01-02-2019 16:15:00 3.1 C 5.69 g/m*3 3.1 C 4.8 km/h
2213 01-02-2019 16:20:00 3 C 5.65 g/m*3 3 C 4.8 km/h
2214 01-02-2019 16:25:00 2.9 C 5.61 g/m*3 2.9 C 4.8 km/h
2215 01-02-2019 16:30:00 2.8 C 5.57 g/m*3 2.8 C 4.8 km/h
2216 01-02-2019 16:35:00 2.7 C 5.48 g/m*3 2.7 C 4.8 km/h
2217 01-02-2019 16:40:00 2.7 C 5.54 g/m*3 2.7 C 4.8 km/h
2218 01-02-2019 16:45:00 2.7 C 5.54 g/m*3 2.7 C 4.8 km/h
2219 01-02-2019 16:50:00 2.6 C 5.5 g/m*3 2.6 C 4.8 km/h
2220 01-02-2019 16:55:00 2.6 C 5.5 g/m*3 2.6 C 4.8 km/h
2221 01-02-2019 17:00:00 2.5 C 5.46 g/m*3 2.5 C 4.8 km/h
2222 01-02-2019 17:05:00 2.6 C 5.5 g/m*3 2.6 C 4.8 km/h
2223 01-02-2019 17:10:00 2.6 C 5.5 g/m*3 2.6 C 4.8 km/h
2224 01-02-2019 17:15:00 2.6 C 5.5 g/m*3 2.6 C 4.8 km/h
2225 01-02-2019 17:20:00 2.6 C 5.5 g/m*3 2.6 C 4.8 km/h
Sensor: Nr:Datum:Temp:Abs-Feuchte:Windchill:Wind:
Aussen-T/F 2226 01-02-2019 17:25:00 2.5 C 5.46 g/m*3 2.5 C 3.2 km/h
2227 01-02-2019 17:30:00 2.5 C 5.46 g/m*3 2.5 C 4.8 km/h
2228 01-02-2019 17:35:00 2.5 C 5.52 g/m*3 2.5 C 4.8 km/h
2229 01-02-2019 17:40:00 2.5 C 5.52 g/m*3 2.5 C 4.8 km/h
2230 01-02-2019 17:45:00 2.6 C 5.56 g/m*3 2.6 C 4.8 km/h
2231 01-02-2019 17:50:00 2.5 C 5.52 g/m*3 2.5 C 4.8 km/h
2232 01-02-2019 17:55:00 2.5 C 5.52 g/m*3 2.5 C 4.8 km/h
2233 01-02-2019 18:00:00 2.5 C 5.52 g/m*3 2.5 C 4.8 km/h
2234 01-02-2019 18:05:00 2.5 C 5.52 g/m*3 2.5 C 4.8 km/h
2235 01-02-2019 18:10:00 2.6 C 5.56 g/m*3 2.6 C 4.8 km/h
2236 01-02-2019 18:15:00 2.6 C 5.56 g/m*3 2.6 C 3.2 km/h
2237 01-02-2019 18:20:00 2.5 C 5.52 g/m*3 2.5 C 3.2 km/h
2238 01-02-2019 18:25:00 2.5 C 5.52 g/m*3 2.5 C 3.2 km/h
2239 01-02-2019 18:30:00 2.4 C 5.48 g/m*3 2.4 C 4.8 km/h
2240 01-02-2019 18:35:00 2.4 C 5.48 g/m*3 2.4 C 4.8 km/h
2241 01-02-2019 18:40:00 2.4 C 5.48 g/m*3 2.4 C 4.8 km/h
2242 01-02-2019 18:45:00 2.4 C 5.48 g/m*3 2.4 C 3.2 km/h
2243 01-02-2019 18:50:00 2.4 C 5.48 g/m*3 2.4 C 4.8 km/h
2244 01-02-2019 18:55:00 2.4 C 5.48 g/m*3 2.4 C 4.8 km/h
2245 01-02-2019 19:00:00 2.4 C 5.48 g/m*3 2.4 C 4.8 km/h
2246 01-02-2019 19:05:00 2.4 C 5.48 g/m*3 2.4 C 4.8 km/h
2247 01-02-2019 19:10:00 2.3 C 5.44 g/m*3 2.3 C 4.8 km/h
2248 01-02-2019 19:15:00 2.3 C 5.44 g/m*3 2.3 C 4.8 km/h
2249 01-02-2019 19:20:00 2.3 C 5.44 g/m*3 2.3 C 3.2 km/h
2250 01-02-2019 19:25:00 2.3 C 5.44 g/m*3 2.3 C 3.2 km/h
Sensor: Nr:Datum:Temp:Abs-Feuchte:Windchill:Wind:
Aussen-T/F 2251 01-02-2019 19:30:00 2.2 C 5.41 g/m*3 2.2 C 3.2 km/h
2252 01-02-2019 19:35:00 2.2 C 5.41 g/m*3 2.2 C 3.2 km/h
2253 01-02-2019 19:40:00 2.2 C 5.41 g/m*3 2.2 C 4.8 km/h
2254 01-02-2019 19:45:00 2.1 C 5.37 g/m*3 2.1 C 3.2 km/h
2255 01-02-2019 19:50:00 2.1 C 5.37 g/m*3 2.1 C 3.2 km/h
2256 01-02-2019 19:55:00 2.1 C 5.37 g/m*3 2.1 C 3.2 km/h
2257 01-02-2019 20:00:00 2.1 C 5.37 g/m*3 2.1 C 3.2 km/h
2258 01-02-2019 20:05:00 2.1 C 5.37 g/m*3 2.1 C 3.2 km/h
2259 01-02-2019 20:10:00 2 C 5.33 g/m*3 2 C 3.2 km/h
2260 01-02-2019 20:15:00 2 C 5.33 g/m*3 2 C 3.2 km/h
2261 01-02-2019 20:20:00 1.9 C 5.3 g/m*3 1.9 C 4.8 km/h
2262 01-02-2019 20:25:00 2 C 5.33 g/m*3 2 C 4.8 km/h
2263 01-02-2019 20:30:00 2 C 5.33 g/m*3 2 C 4.8 km/h
2264 01-02-2019 20:35:00 2.1 C 5.37 g/m*3 2.1 C 3.2 km/h
2265 01-02-2019 20:40:00 2.1 C 5.37 g/m*3 2.1 C 3.2 km/h
2266 01-02-2019 20:45:00 2 C 5.33 g/m*3 2 C 1.6 km/h
2267 01-02-2019 20:50:00 2 C 5.33 g/m*3 2 C 0 km/h
2268 01-02-2019 20:55:00 1.9 C 5.3 g/m*3 1.9 C 0 km/h
2269 01-02-2019 21:00:00 1.9 C 5.3 g/m*3 1.9 C 0 km/h
2270 01-02-2019 21:05:00 1.9 C 5.3 g/m*3 1.9 C 0 km/h
2271 01-02-2019 21:10:00 1.9 C 5.3 g/m*3 1.9 C 0 km/h
2272 01-02-2019 21:15:00 1.9 C 5.3 g/m*3 1.9 C 0 km/h
2273 01-02-2019 21:20:00 1.9 C 5.3 g/m*3 1.9 C 0 km/h
2274 01-02-2019 21:25:00 1.8 C 5.26 g/m*3 1.8 C 0 km/h
2275 01-02-2019 21:30:00 1.8 C 5.26 g/m*3 1.8 C 0 km/h
Sensor: Nr:Datum:Temp:Abs-Feuchte:Windchill:Wind:
Aussen-T/F 2276 01-02-2019 21:35:00 1.8 C 5.26 g/m*3 1.8 C 0 km/h
2277 01-02-2019 21:40:00 1.7 C 5.23 g/m*3 1.7 C 0 km/h
2278 01-02-2019 21:45:00 1.7 C 5.23 g/m*3 1.7 C 0 km/h
2279 01-02-2019 21:50:00 1.7 C 5.23 g/m*3 1.7 C 0 km/h
2280 01-02-2019 21:55:00 1.7 C 5.23 g/m*3 1.7 C 0 km/h
2281 01-02-2019 22:00:00 1.7 C 5.23 g/m*3 1.7 C 0 km/h
2282 01-02-2019 22:05:00 1.7 C 5.23 g/m*3 1.7 C 0 km/h
2283 01-02-2019 22:10:00 1.7 C 5.23 g/m*3 1.7 C 1.6 km/h
2284 01-02-2019 22:15:00 1.8 C 5.26 g/m*3 1.8 C 0 km/h
2285 01-02-2019 22:20:00 1.7 C 5.23 g/m*3 1.7 C 0 km/h
2286 01-02-2019 22:25:00 1.7 C 5.23 g/m*3 1.7 C 0 km/h
2287 01-02-2019 22:30:00 1.7 C 5.23 g/m*3 1.7 C 0 km/h
2288 01-02-2019 22:35:00 1.7 C 5.23 g/m*3 1.7 C 0 km/h
2289 01-02-2019 22:40:00 1.6 C 5.19 g/m*3 1.6 C 0 km/h
2290 01-02-2019 22:45:00 1.6 C 5.19 g/m*3 1.6 C 0 km/h
2291 01-02-2019 22:50:00 1.6 C 5.19 g/m*3 1.6 C 0 km/h
2292 01-02-2019 22:55:00 1.6 C 5.19 g/m*3 1.6 C 0 km/h
2293 01-02-2019 23:00:00 1.5 C 5.16 g/m*3 1.5 C 0 km/h
2294 01-02-2019 23:05:00 1.5 C 5.16 g/m*3 1.5 C 0 km/h
2295 01-02-2019 23:10:00 1.5 C 5.16 g/m*3 1.5 C 0 km/h
2296 01-02-2019 23:15:00 1.5 C 5.21 g/m*3 1.5 C 0 km/h
2297 01-02-2019 23:20:00 1.6 C 5.25 g/m*3 1.6 C 0 km/h
2298 01-02-2019 23:25:00 1.6 C 5.25 g/m*3 1.6 C 0 km/h
2299 01-02-2019 23:30:00 1.6 C 5.25 g/m*3 1.6 C 0 km/h
2300 01-02-2019 23:35:00 1.6 C 5.25 g/m*3 1.6 C 0 km/h
Sensor: Nr:Datum:Temp:Abs-Feuchte:Windchill:Wind:
Aussen-T/F 2301 01-02-2019 23:40:00 1.6 C 5.25 g/m*3 1.6 C 0 km/h
2302 01-02-2019 23:45:00 1.7 C 5.28 g/m*3 1.7 C 0 km/h
2303 01-02-2019 23:50:00 1.7 C 5.28 g/m*3 1.7 C 0 km/h
2304 01-02-2019 23:55:00 1.7 C 5.28 g/m*3 1.7 C 0 km/h
2305 02-02-2019 00:00:00 1.7 C 5.28 g/m*3 1.7 C 0 km/h
2306 02-02-2019 00:05:00 1.7 C 5.28 g/m*3 1.7 C 0 km/h
2307 02-02-2019 00:10:00 1.7 C 5.28 g/m*3 1.7 C 0 km/h
2308 02-02-2019 00:15:00 1.7 C 5.28 g/m*3 1.7 C 0 km/h
2309 02-02-2019 00:20:00 1.7 C 5.28 g/m*3 1.7 C 0 km/h
2310 02-02-2019 00:25:00 1.7 C 5.28 g/m*3 1.7 C 0 km/h
2311 02-02-2019 00:30:00 1.7 C 5.28 g/m*3 1.7 C 0 km/h
2312 02-02-2019 00:35:00 1.8 C 5.32 g/m*3 1.8 C 0 km/h
2313 02-02-2019 00:40:00 1.8 C 5.32 g/m*3 1.8 C 0 km/h
2314 02-02-2019 00:45:00 1.8 C 5.32 g/m*3 1.8 C 0 km/h
2315 02-02-2019 00:50:00 1.8 C 5.32 g/m*3 1.8 C 0 km/h
2316 02-02-2019 00:55:00 1.8 C 5.32 g/m*3 1.8 C 0 km/h
2317 02-02-2019 01:00:00 1.8 C 5.32 g/m*3 1.8 C 0 km/h
2318 02-02-2019 01:05:00 1.8 C 5.32 g/m*3 1.8 C 0 km/h
2319 02-02-2019 01:10:00 1.8 C 5.32 g/m*3 1.8 C 0 km/h
2320 02-02-2019 01:15:00 1.8 C 5.32 g/m*3 1.8 C 0 km/h
2321 02-02-2019 01:20:00 1.8 C 5.32 g/m*3 1.8 C 0 km/h
2322 02-02-2019 01:25:00 1.8 C 5.32 g/m*3 1.8 C 0 km/h
2323 02-02-2019 01:30:00 1.8 C 5.32 g/m*3 1.8 C 0 km/h
2324 02-02-2019 01:35:00 1.8 C 5.32 g/m*3 1.8 C 0 km/h
2325 02-02-2019 01:40:00 1.8 C 5.32 g/m*3 1.8 C 0 km/h
Sensor: Nr:Datum:Temp:Abs-Feuchte:Windchill:Wind:
Aussen-T/F 2326 02-02-2019 01:45:00 1.9 C 5.35 g/m*3 1.9 C 0 km/h
2327 02-02-2019 01:50:00 1.9 C 5.35 g/m*3 1.9 C 0 km/h
2328 02-02-2019 01:55:00 1.9 C 5.35 g/m*3 1.9 C 0 km/h
2329 02-02-2019 02:00:00 1.9 C 5.35 g/m*3 1.9 C 0 km/h
2330 02-02-2019 02:05:00 1.9 C 5.35 g/m*3 1.9 C 0 km/h
2331 02-02-2019 02:10:00 1.9 C 5.35 g/m*3 1.9 C 0 km/h
2332 02-02-2019 02:15:00 1.8 C 5.32 g/m*3 1.8 C 0 km/h
2333 02-02-2019 02:20:00 1.8 C 5.32 g/m*3 1.8 C 0 km/h
2334 02-02-2019 02:25:00 1.8 C 5.32 g/m*3 1.8 C 0 km/h
2335 02-02-2019 02:30:00 1.8 C 5.32 g/m*3 1.8 C 0 km/h
2336 02-02-2019 02:35:00 1.8 C 5.32 g/m*3 1.8 C 0 km/h
2337 02-02-2019 02:40:00 1.8 C 5.32 g/m*3 1.8 C 0 km/h
2338 02-02-2019 02:45:00 1.8 C 5.32 g/m*3 1.8 C 0 km/h
2339 02-02-2019 02:50:00 1.8 C 5.32 g/m*3 1.8 C 0 km/h
2340 02-02-2019 02:55:00 1.8 C 5.32 g/m*3 1.8 C 0 km/h
2341 02-02-2019 03:00:00 1.8 C 5.32 g/m*3 1.8 C 0 km/h
2342 02-02-2019 03:05:00 1.8 C 5.32 g/m*3 1.8 C 0 km/h
2343 02-02-2019 03:10:00 1.7 C 5.28 g/m*3 1.7 C 0 km/h
2344 02-02-2019 03:15:00 1.7 C 5.28 g/m*3 1.7 C 0 km/h
2345 02-02-2019 03:20:00 1.7 C 5.28 g/m*3 1.7 C 0 km/h
2346 02-02-2019 03:25:00 1.7 C 5.28 g/m*3 1.7 C 0 km/h
2347 02-02-2019 03:30:00 1.7 C 5.28 g/m*3 1.7 C 0 km/h
2348 02-02-2019 03:35:00 1.7 C 5.28 g/m*3 1.7 C 0 km/h
2349 02-02-2019 03:40:00 1.7 C 5.28 g/m*3 1.7 C 0 km/h
2350 02-02-2019 03:45:00 1.8 C 5.32 g/m*3 1.8 C 0 km/h
Sensor: Nr:Datum:Temp:Abs-Feuchte:Windchill:Wind:
Aussen-T/F 2351 02-02-2019 03:50:00 1.9 C 5.35 g/m*3 1.9 C 0 km/h
2352 02-02-2019 03:55:00 1.9 C 5.35 g/m*3 1.9 C 0 km/h
2353 02-02-2019 04:00:00 1.9 C 5.35 g/m*3 1.9 C 0 km/h
2354 02-02-2019 04:05:00 1.9 C 5.35 g/m*3 1.9 C 0 km/h
2355 02-02-2019 04:10:00 1.8 C 5.32 g/m*3 1.8 C 0 km/h
2356 02-02-2019 04:15:00 1.8 C 5.32 g/m*3 1.8 C 0 km/h
2357 02-02-2019 04:20:00 1.8 C 5.32 g/m*3 1.8 C 0 km/h
2358 02-02-2019 04:25:00 1.8 C 5.32 g/m*3 1.8 C 0 km/h
2359 02-02-2019 04:30:00 1.8 C 5.32 g/m*3 1.8 C 0 km/h
2360 02-02-2019 04:35:00 1.8 C 5.32 g/m*3 1.8 C 0 km/h
2361 02-02-2019 04:40:00 1.8 C 5.32 g/m*3 1.8 C 0 km/h
2362 02-02-2019 04:45:00 1.8 C 5.32 g/m*3 1.8 C 0 km/h
2363 02-02-2019 04:50:00 1.8 C 5.32 g/m*3 1.8 C 0 km/h
2364 02-02-2019 04:55:00 1.8 C 5.32 g/m*3 1.8 C 0 km/h
2365 02-02-2019 05:00:00 1.7 C 5.28 g/m*3 1.7 C 0 km/h
2366 02-02-2019 05:05:00 1.7 C 5.28 g/m*3 1.7 C 0 km/h
2367 02-02-2019 05:10:00 1.7 C 5.28 g/m*3 1.7 C 0 km/h
2368 02-02-2019 05:15:00 1.7 C 5.28 g/m*3 1.7 C 0 km/h
2369 02-02-2019 05:20:00 1.7 C 5.28 g/m*3 1.7 C 0 km/h
2370 02-02-2019 05:25:00 1.7 C 5.28 g/m*3 1.7 C 0 km/h
2371 02-02-2019 05:30:00 1.7 C 5.28 g/m*3 1.7 C 0 km/h
2372 02-02-2019 05:35:00 1.7 C 5.28 g/m*3 1.7 C 0 km/h
2373 02-02-2019 05:40:00 1.7 C 5.28 g/m*3 1.7 C 0 km/h
2374 02-02-2019 05:45:00 1.7 C 5.28 g/m*3 1.7 C 0 km/h
2375 02-02-2019 05:50:00 1.7 C 5.28 g/m*3 1.7 C 0 km/h
Sensor: Nr:Datum:Temp:Abs-Feuchte:Windchill:Wind:
Aussen-T/F 2376 02-02-2019 05:55:00 1.8 C 5.32 g/m*3 1.8 C 0 km/h
2377 02-02-2019 06:00:00 1.8 C 5.32 g/m*3 1.8 C 0 km/h
2378 02-02-2019 06:05:00 1.8 C 5.32 g/m*3 1.8 C 0 km/h
2379 02-02-2019 06:10:00 1.8 C 5.32 g/m*3 1.8 C 0 km/h
2380 02-02-2019 06:15:00 1.7 C 5.28 g/m*3 1.7 C 0 km/h
2381 02-02-2019 06:20:00 1.7 C 5.28 g/m*3 1.7 C 0 km/h
2382 02-02-2019 06:25:00 1.7 C 5.28 g/m*3 1.7 C 0 km/h
2383 02-02-2019 06:30:00 1.7 C 5.28 g/m*3 1.7 C 0 km/h
2384 02-02-2019 06:35:00 1.7 C 5.28 g/m*3 1.7 C 0 km/h
2385 02-02-2019 06:40:00 1.7 C 5.28 g/m*3 1.7 C 0 km/h
2386 02-02-2019 06:45:00 1.7 C 5.28 g/m*3 1.7 C 0 km/h
2387 02-02-2019 06:50:00 1.7 C 5.28 g/m*3 1.7 C 0 km/h
2388 02-02-2019 06:55:00 1.7 C 5.28 g/m*3 1.7 C 0 km/h
2389 02-02-2019 07:00:00 1.7 C 5.28 g/m*3 1.7 C 0 km/h
2390 02-02-2019 07:05:00 1.7 C 5.28 g/m*3 1.7 C 0 km/h
2391 02-02-2019 07:10:00 1.7 C 5.28 g/m*3 1.7 C 0 km/h
2392 02-02-2019 07:15:00 1.7 C 5.28 g/m*3 1.7 C 0 km/h
2393 02-02-2019 07:20:00 1.7 C 5.28 g/m*3 1.7 C 0 km/h
2394 02-02-2019 07:25:00 1.8 C 5.32 g/m*3 1.8 C 0 km/h
2395 02-02-2019 07:30:00 1.7 C 5.28 g/m*3 1.7 C 0 km/h
2396 02-02-2019 07:35:00 1.8 C 5.32 g/m*3 1.8 C 0 km/h
2397 02-02-2019 07:40:00 1.7 C 5.28 g/m*3 1.7 C 0 km/h
2398 02-02-2019 07:45:00 1.7 C 5.28 g/m*3 1.7 C 0 km/h
2399 02-02-2019 07:50:00 1.8 C 5.32 g/m*3 1.8 C 0 km/h
2400 02-02-2019 07:55:00 1.8 C 5.32 g/m*3 1.8 C 0 km/h
Sensor: Nr:Datum:Temp:Abs-Feuchte:Windchill:Wind:
Aussen-T/F 2401 02-02-2019 08:00:00 1.8 C 5.32 g/m*3 1.8 C 0 km/h
2402 02-02-2019 08:05:00 1.8 C 5.32 g/m*3 1.8 C 0 km/h
2403 02-02-2019 08:10:00 1.8 C 5.32 g/m*3 1.8 C 0 km/h
2404 02-02-2019 08:15:00 1.8 C 5.32 g/m*3 1.8 C 0 km/h
2405 02-02-2019 08:20:00 1.8 C 5.32 g/m*3 1.8 C 0 km/h
2406 02-02-2019 08:25:00 1.8 C 5.32 g/m*3 1.8 C 0 km/h
2407 02-02-2019 08:30:00 1.8 C 5.32 g/m*3 1.8 C 0 km/h
2408 02-02-2019 08:35:00 1.8 C 5.32 g/m*3 1.8 C 0 km/h
2409 02-02-2019 08:40:00 1.8 C 5.32 g/m*3 1.8 C 0 km/h
2410 02-02-2019 08:45:00 1.8 C 5.32 g/m*3 1.8 C 0 km/h
2411 02-02-2019 08:50:00 1.8 C 5.32 g/m*3 1.8 C 0 km/h
2412 02-02-2019 08:55:00 1.8 C 5.32 g/m*3 1.8 C 0 km/h
2413 02-02-2019 09:00:00 1.8 C 5.32 g/m*3 1.8 C 0 km/h
2414 02-02-2019 09:05:00 1.9 C 5.35 g/m*3 1.9 C 0 km/h
2415 02-02-2019 09:10:00 1.9 C 5.35 g/m*3 1.9 C 0 km/h
2416 02-02-2019 09:15:00 1.9 C 5.35 g/m*3 1.9 C 0 km/h
2417 02-02-2019 09:20:00 2 C 5.39 g/m*3 2 C 0 km/h
2418 02-02-2019 09:25:00 2.1 C 5.43 g/m*3 2.1 C 0 km/h
2419 02-02-2019 09:30:00 2.1 C 5.43 g/m*3 2.1 C 0 km/h
2420 02-02-2019 09:35:00 2.2 C 5.46 g/m*3 2.2 C 0 km/h
2421 02-02-2019 09:40:00 2.2 C 5.46 g/m*3 2.2 C 0 km/h
2422 02-02-2019 09:45:00 2.3 C 5.5 g/m*3 2.3 C 0 km/h
2423 02-02-2019 09:50:00 2.3 C 5.5 g/m*3 2.3 C 0 km/h
2424 02-02-2019 09:55:00 2.4 C 5.54 g/m*3 2.4 C 0 km/h
2425 02-02-2019 10:00:00 2.5 C 5.63 g/m*3 2.5 C 0 km/h
Sensor: Nr:Datum:Temp:Abs-Feuchte:Windchill:Wind:
Aussen-T/F 2426 02-02-2019 10:05:00 2.6 C 5.67 g/m*3 2.6 C 0 km/h
2427 02-02-2019 10:10:00 2.6 C 5.61 g/m*3 2.6 C 0 km/h
2428 02-02-2019 10:15:00 2.7 C 5.65 g/m*3 2.7 C 0 km/h
2429 02-02-2019 10:20:00 2.7 C 5.71 g/m*3 2.7 C 0 km/h
2430 02-02-2019 10:25:00 2.7 C 5.71 g/m*3 2.7 C 0 km/h
2431 02-02-2019 10:30:00 2.8 C 5.75 g/m*3 2.8 C 0 km/h
2432 02-02-2019 10:35:00 2.8 C 5.75 g/m*3 2.8 C 0 km/h
2433 02-02-2019 10:40:00 2.8 C 5.69 g/m*3 2.8 C 0 km/h
2434 02-02-2019 10:45:00 2.8 C 5.69 g/m*3 2.8 C 0 km/h
2435 02-02-2019 10:50:00 2.8 C 5.69 g/m*3 2.8 C 3.2 km/h
2436 02-02-2019 10:55:00 2.8 C 5.69 g/m*3 2.8 C 0 km/h
2437 02-02-2019 11:00:00 2.9 C 5.73 g/m*3 2.9 C 0 km/h
2438 02-02-2019 11:05:00 2.9 C 5.73 g/m*3 2.9 C 0 km/h
2439 02-02-2019 11:10:00 3 C 5.77 g/m*3 3 C 0 km/h
2440 02-02-2019 11:15:00 3 C 5.77 g/m*3 3 C 0 km/h
2441 02-02-2019 11:20:00 3.1 C 5.81 g/m*3 3.1 C 0 km/h
2442 02-02-2019 11:25:00 3.1 C 5.81 g/m*3 3.1 C 0 km/h
2443 02-02-2019 11:30:00 3.1 C 5.81 g/m*3 3.1 C 3.2 km/h
2444 02-02-2019 11:35:00 3.1 C 5.81 g/m*3 3.1 C 0 km/h
2445 02-02-2019 11:40:00 3.1 C 5.81 g/m*3 3.1 C 0 km/h
2446 02-02-2019 11:45:00 3.1 C 5.81 g/m*3 3.1 C 0 km/h
2447 02-02-2019 11:50:00 3.1 C 5.81 g/m*3 3.1 C 0 km/h
2448 02-02-2019 11:55:00 3.1 C 5.81 g/m*3 3.1 C 0 km/h
2449 02-02-2019 12:00:00 3.1 C 5.81 g/m*3 3.1 C 0 km/h
2450 02-02-2019 12:05:00 3.2 C 5.85 g/m*3 3.2 C 0 km/h
Sensor: Nr:Datum:Temp:Abs-Feuchte:Windchill:Wind:
Aussen-T/F 2451 02-02-2019 12:10:00 3.2 C 5.85 g/m*3 3.2 C 0 km/h
2452 02-02-2019 12:15:00 3.2 C 5.85 g/m*3 3.2 C 0 km/h
2453 02-02-2019 12:20:00 3.3 C 5.88 g/m*3 3.3 C 0 km/h
2454 02-02-2019 12:25:00 3.3 C 5.88 g/m*3 3.3 C 0 km/h
2455 02-02-2019 12:30:00 3.3 C 5.88 g/m*3 3.3 C 0 km/h
2456 02-02-2019 12:35:00 3.4 C 5.92 g/m*3 3.4 C 0 km/h
2457 02-02-2019 12:40:00 3.4 C 5.92 g/m*3 3.4 C 0 km/h
2458 02-02-2019 12:45:00 3.4 C 5.92 g/m*3 3.4 C 0 km/h
2459 02-02-2019 12:50:00 3.5 C 5.96 g/m*3 3.5 C 0 km/h
2460 02-02-2019 12:55:00 3.5 C 5.96 g/m*3 3.5 C 0 km/h
2461 02-02-2019 13:00:00 3.5 C 5.96 g/m*3 3.5 C 1.6 km/h
2462 02-02-2019 13:05:00 3.4 C 5.92 g/m*3 3.4 C 0 km/h
2463 02-02-2019 13:10:00 3.5 C 5.96 g/m*3 3.5 C 0 km/h
2464 02-02-2019 13:15:00 3.6 C 6 g/m*3 3.6 C 0 km/h
2465 02-02-2019 13:20:00 3.7 C 6.04 g/m*3 3.7 C 0 km/h
2466 02-02-2019 13:25:00 3.7 C 6.04 g/m*3 3.7 C 3.2 km/h
2467 02-02-2019 13:30:00 3.8 C 6.09 g/m*3 3.8 C 1.6 km/h
2468 02-02-2019 13:35:00 3.7 C 6.04 g/m*3 3.7 C 0 km/h
2469 02-02-2019 13:40:00 3.8 C 6.09 g/m*3 3.8 C 0 km/h
2470 02-02-2019 13:45:00 3.8 C 6.09 g/m*3 3.8 C 0 km/h
2471 02-02-2019 13:50:00 3.8 C 6.09 g/m*3 3.8 C 0 km/h
2472 02-02-2019 13:55:00 3.8 C 6.09 g/m*3 3.8 C 0 km/h
2473 02-02-2019 14:00:00 3.8 C 6.09 g/m*3 3.8 C 0 km/h
2474 02-02-2019 14:05:00 3.8 C 6.09 g/m*3 3.8 C 0 km/h
2475 02-02-2019 14:10:00 3.8 C 6.09 g/m*3 3.8 C 0 km/h
Sensor: Nr:Datum:Temp:Abs-Feuchte:Windchill:Wind:
Aussen-T/F 2476 02-02-2019 14:15:00 3.8 C 6.09 g/m*3 3.8 C 0 km/h
2477 02-02-2019 14:20:00 3.8 C 6.09 g/m*3 3.8 C 0 km/h
2478 02-02-2019 14:25:00 3.8 C 6.09 g/m*3 3.8 C 0 km/h
2479 02-02-2019 14:30:00 3.7 C 6.04 g/m*3 3.7 C 0 km/h
2480 02-02-2019 14:35:00 3.7 C 6.04 g/m*3 3.7 C 0 km/h
2481 02-02-2019 14:40:00 3.7 C 6.04 g/m*3 3.7 C 0 km/h
2482 02-02-2019 14:45:00 3.6 C 6 g/m*3 3.6 C 0 km/h
2483 02-02-2019 14:50:00 3.6 C 6 g/m*3 3.6 C 0 km/h
2484 02-02-2019 14:55:00 3.6 C 6 g/m*3 3.6 C 0 km/h
2485 02-02-2019 15:00:00 3.6 C 6 g/m*3 3.6 C 0 km/h
2486 02-02-2019 15:05:00 3.7 C 6.04 g/m*3 3.7 C 0 km/h
2487 02-02-2019 15:10:00 3.8 C 6.09 g/m*3 3.8 C 0 km/h
2488 02-02-2019 15:15:00 3.8 C 6.09 g/m*3 3.8 C 0 km/h
2489 02-02-2019 15:20:00 3.9 C 6.13 g/m*3 3.9 C 0 km/h
2490 02-02-2019 15:25:00 4 C 6.17 g/m*3 4 C 0 km/h
2491 02-02-2019 15:30:00 4 C 6.17 g/m*3 4 C 0 km/h
2492 02-02-2019 15:35:00 4.1 C 6.21 g/m*3 4.1 C 0 km/h
2493 02-02-2019 15:40:00 4.1 C 6.21 g/m*3 4.1 C 0 km/h
2494 02-02-2019 15:45:00 4 C 6.17 g/m*3 4 C 0 km/h
2495 02-02-2019 15:50:00 4 C 6.17 g/m*3 4 C 0 km/h
2496 02-02-2019 15:55:00 3.9 C 6.13 g/m*3 3.9 C 0 km/h
2497 02-02-2019 16:00:00 3.9 C 6.13 g/m*3 3.9 C 0 km/h
2498 02-02-2019 16:05:00 3.8 C 6.09 g/m*3 3.8 C 0 km/h
2499 02-02-2019 16:10:00 3.8 C 6.09 g/m*3 3.8 C 0 km/h
2500 02-02-2019 16:15:00 3.7 C 6.04 g/m*3 3.7 C 0 km/h
Sensor: Nr:Datum:Temp:Abs-Feuchte:Windchill:Wind:
Aussen-T/F 2501 02-02-2019 16:20:00 3.7 C 6.04 g/m*3 3.7 C 0 km/h
2502 02-02-2019 16:25:00 3.7 C 6.04 g/m*3 3.7 C 0 km/h
2503 02-02-2019 16:30:00 3.7 C 6.04 g/m*3 3.7 C 0 km/h
2504 02-02-2019 16:35:00 3.7 C 6.04 g/m*3 3.7 C 0 km/h
2505 02-02-2019 16:40:00 3.6 C 6 g/m*3 3.6 C 0 km/h
2506 02-02-2019 16:45:00 3.6 C 6 g/m*3 3.6 C 0 km/h
2507 02-02-2019 16:50:00 3.5 C 5.96 g/m*3 3.5 C 0 km/h
2508 02-02-2019 16:55:00 3.4 C 5.92 g/m*3 3.4 C 0 km/h
2509 02-02-2019 17:00:00 3.3 C 5.88 g/m*3 3.3 C 0 km/h
2510 02-02-2019 17:05:00 3.3 C 5.88 g/m*3 3.3 C 0 km/h
2511 02-02-2019 17:10:00 3.2 C 5.85 g/m*3 3.2 C 0 km/h
2512 02-02-2019 17:15:00 3.2 C 5.85 g/m*3 3.2 C 0 km/h
2513 02-02-2019 17:20:00 3.2 C 5.85 g/m*3 3.2 C 0 km/h
2514 02-02-2019 17:25:00 3.2 C 5.85 g/m*3 3.2 C 0 km/h
2515 02-02-2019 17:30:00 3.2 C 5.85 g/m*3 3.2 C 0 km/h
2516 02-02-2019 17:35:00 3.1 C 5.81 g/m*3 3.1 C 0 km/h
2517 02-02-2019 17:40:00 3.2 C 5.85 g/m*3 3.2 C 0 km/h
2518 02-02-2019 17:45:00 3.3 C 5.88 g/m*3 3.3 C 0 km/h
2519 02-02-2019 17:50:00 3.4 C 5.92 g/m*3 3.4 C 3.2 km/h
2520 02-02-2019 17:55:00 3.4 C 5.92 g/m*3 3.4 C 3.2 km/h
2521 02-02-2019 18:00:00 3.4 C 5.92 g/m*3 3.4 C 4.8 km/h
2522 02-02-2019 18:05:00 3.4 C 5.92 g/m*3 3.4 C 1.6 km/h
2523 02-02-2019 18:10:00 3.3 C 5.88 g/m*3 1.63 C 6.4 km/h
2524 02-02-2019 18:15:00 3.3 C 5.88 g/m*3 1.63 C 6.4 km/h
2525 02-02-2019 18:20:00 3.2 C 5.85 g/m*3 1.51 C 6.4 km/h
Sensor: Nr:Datum:Temp:Abs-Feuchte:Windchill:Wind:
Aussen-T/F 2526 02-02-2019 18:25:00 3.2 C 5.85 g/m*3 1.51 C 6.4 km/h
2527 02-02-2019 18:30:00 3.2 C 5.85 g/m*3 3.2 C 3.2 km/h
2528 02-02-2019 18:35:00 3.1 C 5.81 g/m*3 0.87 C 8.1 km/h
2529 02-02-2019 18:40:00 3.1 C 5.81 g/m*3 3.1 C 4.8 km/h
2530 02-02-2019 18:45:00 3 C 5.77 g/m*3 3 C 4.8 km/h
2531 02-02-2019 18:50:00 2.9 C 5.73 g/m*3 2.9 C 4.8 km/h
2532 02-02-2019 18:55:00 2.8 C 5.69 g/m*3 2.8 C 3.2 km/h
2533 02-02-2019 19:00:00 2.8 C 5.63 g/m*3 2.8 C 1.6 km/h
2534 02-02-2019 19:05:00 2.8 C 5.69 g/m*3 2.8 C 3.2 km/h
2535 02-02-2019 19:10:00 2.7 C 5.59 g/m*3 2.7 C 3.2 km/h
2536 02-02-2019 19:15:00 2.7 C 5.59 g/m*3 2.7 C 3.2 km/h
2537 02-02-2019 19:20:00 2.7 C 5.65 g/m*3 -0.02 C 9.7 km/h
2538 02-02-2019 19:25:00 2.6 C 5.61 g/m*3 2.6 C 0 km/h
2539 02-02-2019 19:30:00 2.6 C 5.61 g/m*3 2.6 C 3.2 km/h
2540 02-02-2019 19:35:00 2.6 C 5.56 g/m*3 2.6 C 4.8 km/h
2541 02-02-2019 19:40:00 2.6 C 5.61 g/m*3 0.82 C 6.4 km/h
2542 02-02-2019 19:45:00 2.5 C 5.58 g/m*3 2.5 C 3.2 km/h
2543 02-02-2019 19:50:00 2.5 C 5.58 g/m*3 2.5 C 1.6 km/h
2544 02-02-2019 19:55:00 2.4 C 5.54 g/m*3 2.4 C 3.2 km/h
2545 02-02-2019 20:00:00 2.4 C 5.54 g/m*3 0.59 C 6.4 km/h
2546 02-02-2019 20:05:00 2.4 C 5.54 g/m*3 2.4 C 3.2 km/h
2547 02-02-2019 20:10:00 2.4 C 5.48 g/m*3 0.05 C 8.1 km/h
2548 02-02-2019 20:15:00 2.3 C 5.44 g/m*3 2.3 C 4.8 km/h
2549 02-02-2019 20:20:00 2.3 C 5.44 g/m*3 2.3 C 3.2 km/h
2550 02-02-2019 20:25:00 2.3 C 5.44 g/m*3 -0.07 C 8.1 km/h
Sensor: Nr:Datum:Temp:Abs-Feuchte:Windchill:Wind:
Aussen-T/F 2551 02-02-2019 20:30:00 2.3 C 5.44 g/m*3 2.3 C 0 km/h
2552 02-02-2019 20:35:00 2.3 C 5.44 g/m*3 0.47 C 6.4 km/h
2553 02-02-2019 20:40:00 2.3 C 5.44 g/m*3 2.3 C 3.2 km/h
2554 02-02-2019 20:45:00 2.3 C 5.44 g/m*3 0.47 C 6.4 km/h
2555 02-02-2019 20:50:00 2.2 C 5.41 g/m*3 2.2 C 4.8 km/h
2556 02-02-2019 20:55:00 2.2 C 5.41 g/m*3 2.2 C 3.2 km/h
2557 02-02-2019 21:00:00 2.2 C 5.41 g/m*3 2.2 C 0 km/h
2558 02-02-2019 21:05:00 2.2 C 5.41 g/m*3 2.2 C 1.6 km/h
2559 02-02-2019 21:10:00 2.2 C 5.41 g/m*3 2.2 C 0 km/h
2560 02-02-2019 21:15:00 2.1 C 5.37 g/m*3 2.1 C 0 km/h
2561 02-02-2019 21:20:00 2.1 C 5.37 g/m*3 2.1 C 1.6 km/h
2562 02-02-2019 21:25:00 2.1 C 5.37 g/m*3 2.1 C 0 km/h
2563 02-02-2019 21:30:00 2.1 C 5.37 g/m*3 2.1 C 0 km/h
2564 02-02-2019 21:35:00 2.1 C 5.37 g/m*3 2.1 C 0 km/h
2565 02-02-2019 21:40:00 2.1 C 5.37 g/m*3 2.1 C 1.6 km/h
2566 02-02-2019 21:45:00 2 C 5.33 g/m*3 2 C 0 km/h
2567 02-02-2019 21:50:00 2 C 5.33 g/m*3 2 C 0 km/h
2568 02-02-2019 21:55:00 2 C 5.33 g/m*3 2 C 1.6 km/h
2569 02-02-2019 22:00:00 1.9 C 5.3 g/m*3 -0.97 C 9.7 km/h
2570 02-02-2019 22:05:00 1.9 C 5.3 g/m*3 0.01 C 6.4 km/h
2571 02-02-2019 22:10:00 1.9 C 5.3 g/m*3 1.9 C 0 km/h
2572 02-02-2019 22:15:00 1.9 C 5.3 g/m*3 0.01 C 6.4 km/h
2573 02-02-2019 22:20:00 1.9 C 5.3 g/m*3 0.01 C 6.4 km/h
2574 02-02-2019 22:25:00 1.9 C 5.3 g/m*3 1.9 C 4.8 km/h
2575 02-02-2019 22:30:00 1.9 C 5.3 g/m*3 1.9 C 3.2 km/h
Sensor: Nr:Datum:Temp:Abs-Feuchte:Windchill:Wind:
Aussen-T/F 2576 02-02-2019 22:35:00 1.9 C 5.3 g/m*3 1.9 C 4.8 km/h
2577 02-02-2019 22:40:00 1.9 C 5.3 g/m*3 -1.35 C 11.3 km/h
2578 02-02-2019 22:45:00 1.8 C 5.26 g/m*3 -1.47 C 11.3 km/h
2579 02-02-2019 22:50:00 1.8 C 5.26 g/m*3 1.8 C 4.8 km/h
2580 02-02-2019 22:55:00 1.8 C 5.26 g/m*3 1.8 C 4.8 km/h
2581 02-02-2019 23:00:00 1.8 C 5.26 g/m*3 1.8 C 3.2 km/h
2582 02-02-2019 23:05:00 1.8 C 5.26 g/m*3 1.8 C 4.8 km/h
2583 02-02-2019 23:10:00 1.8 C 5.26 g/m*3 1.8 C 3.2 km/h
2584 02-02-2019 23:15:00 1.8 C 5.26 g/m*3 1.8 C 4.8 km/h
2585 02-02-2019 23:20:00 1.8 C 5.26 g/m*3 1.8 C 1.6 km/h
2586 02-02-2019 23:25:00 1.8 C 5.26 g/m*3 1.8 C 4.8 km/h
2587 02-02-2019 23:30:00 1.8 C 5.32 g/m*3 -1.09 C 9.7 km/h
2588 02-02-2019 23:35:00 1.8 C 5.32 g/m*3 1.8 C 4.8 km/h
2589 02-02-2019 23:40:00 1.8 C 5.32 g/m*3 1.8 C 4.8 km/h
2590 02-02-2019 23:45:00 1.8 C 5.32 g/m*3 -0.65 C 8.1 km/h
2591 02-02-2019 23:50:00 1.8 C 5.26 g/m*3 1.8 C 3.2 km/h
2592 02-02-2019 23:55:00 1.8 C 5.26 g/m*3 -0.1 C 6.4 km/h
2593 03-02-2019 00:00:00 1.8 C 5.32 g/m*3 1.8 C 4.8 km/h
2594 03-02-2019 00:05:00 1.8 C 5.26 g/m*3 1.8 C 1.6 km/h
2595 03-02-2019 00:10:00 1.8 C 5.32 g/m*3 1.8 C 4.8 km/h
2596 03-02-2019 00:15:00 1.8 C 5.32 g/m*3 1.8 C 4.8 km/h
2597 03-02-2019 00:20:00 1.9 C 5.35 g/m*3 -0.54 C 8.1 km/h
2598 03-02-2019 00:25:00 1.9 C 5.35 g/m*3 -0.54 C 8.1 km/h
2599 03-02-2019 00:30:00 1.9 C 5.35 g/m*3 1.9 C 1.6 km/h
2600 03-02-2019 00:35:00 1.9 C 5.3 g/m*3 1.9 C 4.8 km/h
Sensor: Nr:Datum:Temp:Abs-Feuchte:Windchill:Wind:
Aussen-T/F 2601 03-02-2019 00:40:00 1.9 C 5.3 g/m*3 -0.97 C 9.7 km/h
2602 03-02-2019 00:45:00 1.9 C 5.3 g/m*3 1.9 C 4.8 km/h
2603 03-02-2019 00:50:00 1.9 C 5.3 g/m*3 1.9 C 4.8 km/h
2604 03-02-2019 00:55:00 2 C 5.33 g/m*3 2 C 4.8 km/h
2605 03-02-2019 01:00:00 2 C 5.33 g/m*3 2 C 0 km/h
2606 03-02-2019 01:05:00 2 C 5.33 g/m*3 0.13 C 6.4 km/h
2607 03-02-2019 01:10:00 2 C 5.33 g/m*3 2 C 4.8 km/h
2608 03-02-2019 01:15:00 2 C 5.33 g/m*3 0.13 C 6.4 km/h
2609 03-02-2019 01:20:00 2.1 C 5.37 g/m*3 2.1 C 3.2 km/h
2610 03-02-2019 01:25:00 2.1 C 5.37 g/m*3 2.1 C 4.8 km/h
2611 03-02-2019 01:30:00 2.1 C 5.37 g/m*3 0.24 C 6.4 km/h
2612 03-02-2019 01:35:00 2.1 C 5.37 g/m*3 -2.01 C 16.1 km/h
2613 03-02-2019 01:40:00 2.1 C 5.37 g/m*3 0.24 C 6.4 km/h
2614 03-02-2019 01:45:00 2.1 C 5.37 g/m*3 -1.44 C 12.9 km/h
2615 03-02-2019 01:50:00 2.1 C 5.37 g/m*3 -1.44 C 12.9 km/h
2616 03-02-2019 01:55:00 2.1 C 5.37 g/m*3 -1.44 C 12.9 km/h
2617 03-02-2019 02:00:00 2.1 C 5.37 g/m*3 0.24 C 6.4 km/h
2618 03-02-2019 02:05:00 2.1 C 5.31 g/m*3 -0.3 C 8.1 km/h
2619 03-02-2019 02:10:00 2.1 C 5.31 g/m*3 -0.73 C 9.7 km/h
2620 03-02-2019 02:15:00 2.1 C 5.31 g/m*3 -1.44 C 12.9 km/h
2621 03-02-2019 02:20:00 2.1 C 5.31 g/m*3 -2.26 C 17.7 km/h
2622 03-02-2019 02:25:00 2.2 C 5.35 g/m*3 -1.32 C 12.9 km/h
2623 03-02-2019 02:30:00 2.2 C 5.29 g/m*3 -1.32 C 12.9 km/h
2624 03-02-2019 02:35:00 2.2 C 5.29 g/m*3 -1.32 C 12.9 km/h
2625 03-02-2019 02:40:00 2.2 C 5.29 g/m*3 -0.99 C 11.3 km/h
Sensor: Nr:Datum:Temp:Abs-Feuchte:Windchill:Wind:
Aussen-T/F 2626 03-02-2019 02:45:00 2.2 C 5.24 g/m*3 -1.89 C 16.1 km/h
2627 03-02-2019 02:50:00 2.2 C 5.24 g/m*3 -0.61 C 9.7 km/h
2628 03-02-2019 02:55:00 2.2 C 5.24 g/m*3 -1.62 C 14.5 km/h
2629 03-02-2019 03:00:00 2.2 C 5.24 g/m*3 -1.32 C 12.9 km/h
2630 03-02-2019 03:05:00 2.2 C 5.24 g/m*3 -0.18 C 8.1 km/h
2631 03-02-2019 03:10:00 2.2 C 5.24 g/m*3 -0.18 C 8.1 km/h
2632 03-02-2019 03:15:00 2.2 C 5.24 g/m*3 -0.99 C 11.3 km/h
2633 03-02-2019 03:20:00 2.2 C 5.24 g/m*3 -1.62 C 14.5 km/h
2634 03-02-2019 03:25:00 2.2 C 5.24 g/m*3 -1.62 C 14.5 km/h
2635 03-02-2019 03:30:00 2.2 C 5.24 g/m*3 -0.18 C 8.1 km/h
2636 03-02-2019 03:35:00 2.2 C 5.24 g/m*3 -0.61 C 9.7 km/h
2637 03-02-2019 03:40:00 2.2 C 5.24 g/m*3 -1.89 C 16.1 km/h
2638 03-02-2019 03:45:00 2.2 C 5.24 g/m*3 -0.18 C 8.1 km/h
2639 03-02-2019 03:50:00 2.1 C 5.2 g/m*3 -0.3 C 8.1 km/h
2640 03-02-2019 03:55:00 2.1 C 5.2 g/m*3 -0.73 C 9.7 km/h
2641 03-02-2019 04:00:00 2.1 C 5.2 g/m*3 -2.01 C 16.1 km/h
2642 03-02-2019 04:05:00 2.1 C 5.2 g/m*3 -0.73 C 9.7 km/h
2643 03-02-2019 04:10:00 2.1 C 5.2 g/m*3 -0.73 C 9.7 km/h
2644 03-02-2019 04:15:00 2.1 C 5.2 g/m*3 -0.73 C 9.7 km/h
2645 03-02-2019 04:20:00 2.1 C 5.2 g/m*3 -1.44 C 12.9 km/h
2646 03-02-2019 04:25:00 2.1 C 5.2 g/m*3 -0.73 C 9.7 km/h
2647 03-02-2019 04:30:00 2.1 C 5.26 g/m*3 -0.73 C 9.7 km/h
2648 03-02-2019 04:35:00 2.1 C 5.26 g/m*3 0.24 C 6.4 km/h
2649 03-02-2019 04:40:00 2.1 C 5.26 g/m*3 -0.3 C 8.1 km/h
2650 03-02-2019 04:45:00 2.1 C 5.26 g/m*3 0.24 C 6.4 km/h
Sensor: Nr:Datum:Temp:Abs-Feuchte:Windchill:Wind:
Aussen-T/F 2651 03-02-2019 04:50:00 2.1 C 5.26 g/m*3 2.1 C 4.8 km/h
2652 03-02-2019 04:55:00 2.1 C 5.26 g/m*3 2.1 C 3.2 km/h
2653 03-02-2019 05:00:00 2.1 C 5.26 g/m*3 0.24 C 6.4 km/h
2654 03-02-2019 05:05:00 2.1 C 5.2 g/m*3 2.1 C 4.8 km/h
2655 03-02-2019 05:10:00 2.2 C 5.24 g/m*3 0.36 C 6.4 km/h
2656 03-02-2019 05:15:00 2.2 C 5.24 g/m*3 0.36 C 6.4 km/h
2657 03-02-2019 05:20:00 2.2 C 5.24 g/m*3 2.2 C 3.2 km/h
2658 03-02-2019 05:25:00 2.2 C 5.24 g/m*3 2.2 C 3.2 km/h
2659 03-02-2019 05:30:00 2.2 C 5.24 g/m*3 2.2 C 1.6 km/h
2660 03-02-2019 05:35:00 2.2 C 5.24 g/m*3 2.2 C 3.2 km/h
2661 03-02-2019 05:40:00 2.2 C 5.24 g/m*3 2.2 C 4.8 km/h
2662 03-02-2019 05:45:00 2.2 C 5.24 g/m*3 2.2 C 1.6 km/h
2663 03-02-2019 05:50:00 2.2 C 5.24 g/m*3 2.2 C 0 km/h
2664 03-02-2019 05:55:00 2.2 C 5.24 g/m*3 0.36 C 6.4 km/h
2665 03-02-2019 06:00:00 2.2 C 5.24 g/m*3 2.2 C 3.2 km/h
2666 03-02-2019 06:05:00 2.2 C 5.24 g/m*3 2.2 C 4.8 km/h
2667 03-02-2019 06:10:00 2.2 C 5.24 g/m*3 0.36 C 6.4 km/h
2668 03-02-2019 06:15:00 2.3 C 5.22 g/m*3 0.47 C 6.4 km/h
2669 03-02-2019 06:20:00 2.3 C 5.22 g/m*3 0.47 C 6.4 km/h
2670 03-02-2019 06:25:00 2.3 C 5.27 g/m*3 -0.07 C 8.1 km/h
2671 03-02-2019 06:30:00 2.2 C 5.18 g/m*3 -0.61 C 9.7 km/h
2672 03-02-2019 06:35:00 2.2 C 5.18 g/m*3 -0.61 C 9.7 km/h
2673 03-02-2019 06:40:00 2.2 C 5.18 g/m*3 2.2 C 4.8 km/h
2674 03-02-2019 06:45:00 2.1 C 5.15 g/m*3 -1.44 C 12.9 km/h
2675 03-02-2019 06:50:00 2.1 C 5.2 g/m*3 -1.11 C 11.3 km/h
Sensor: Nr:Datum:Temp:Abs-Feuchte:Windchill:Wind:
Aussen-T/F 2676 03-02-2019 06:55:00 2 C 5.17 g/m*3 0.13 C 6.4 km/h
2677 03-02-2019 07:00:00 1.9 C 5.13 g/m*3 0.01 C 6.4 km/h
2678 03-02-2019 07:05:00 1.9 C 5.13 g/m*3 -0.97 C 9.7 km/h
2679 03-02-2019 07:10:00 1.9 C 5.13 g/m*3 -0.54 C 8.1 km/h
2680 03-02-2019 07:15:00 1.9 C 5.13 g/m*3 -1.35 C 11.3 km/h
2681 03-02-2019 07:20:00 1.9 C 5.13 g/m*3 0.01 C 6.4 km/h
2682 03-02-2019 07:25:00 1.9 C 5.13 g/m*3 -0.97 C 9.7 km/h
2683 03-02-2019 07:30:00 1.9 C 5.13 g/m*3 -0.54 C 8.1 km/h
2684 03-02-2019 07:35:00 1.9 C 5.13 g/m*3 -0.54 C 8.1 km/h
2685 03-02-2019 07:40:00 1.9 C 5.13 g/m*3 1.9 C 1.6 km/h
2686 03-02-2019 07:45:00 1.9 C 5.13 g/m*3 1.9 C 4.8 km/h
2687 03-02-2019 07:50:00 1.9 C 5.13 g/m*3 1.9 C 3.2 km/h
2688 03-02-2019 07:55:00 1.9 C 5.13 g/m*3 -0.97 C 9.7 km/h
2689 03-02-2019 08:00:00 1.9 C 5.13 g/m*3 -0.54 C 8.1 km/h
2690 03-02-2019 08:05:00 1.9 C 5.13 g/m*3 1.9 C 4.8 km/h
2691 03-02-2019 08:10:00 1.8 C 5.1 g/m*3 -0.1 C 6.4 km/h
2692 03-02-2019 08:15:00 1.8 C 5.1 g/m*3 1.8 C 4.8 km/h
2693 03-02-2019 08:20:00 1.8 C 5.1 g/m*3 1.8 C 1.6 km/h
2694 03-02-2019 08:25:00 1.9 C 5.13 g/m*3 -0.54 C 8.1 km/h
2695 03-02-2019 08:30:00 1.9 C 5.13 g/m*3 -0.54 C 8.1 km/h
2696 03-02-2019 08:35:00 1.9 C 5.13 g/m*3 1.9 C 3.2 km/h
2697 03-02-2019 08:40:00 1.9 C 5.13 g/m*3 -0.54 C 8.1 km/h
2698 03-02-2019 08:45:00 1.9 C 5.13 g/m*3 1.9 C 3.2 km/h
2699 03-02-2019 08:50:00 1.9 C 5.13 g/m*3 1.9 C 1.6 km/h
2700 03-02-2019 08:55:00 1.9 C 5.13 g/m*3 1.9 C 1.6 km/h
Sensor: Nr:Datum:Temp:Abs-Feuchte:Windchill:Wind:
Aussen-T/F 2701 03-02-2019 09:00:00 1.9 C 5.13 g/m*3 1.9 C 4.8 km/h
2702 03-02-2019 09:05:00 1.9 C 5.13 g/m*3 1.9 C 0 km/h
2703 03-02-2019 09:10:00 2 C 5.17 g/m*3 2 C 0 km/h
2704 03-02-2019 09:15:00 2 C 5.22 g/m*3 2 C 0 km/h
2705 03-02-2019 09:20:00 2 C 5.22 g/m*3 2 C 0 km/h
2706 03-02-2019 09:25:00 2 C 5.22 g/m*3 2 C 0 km/h
2707 03-02-2019 09:30:00 2 C 5.17 g/m*3 2 C 1.6 km/h
2708 03-02-2019 09:35:00 2 C 5.17 g/m*3 2 C 0 km/h
2709 03-02-2019 09:40:00 2 C 5.17 g/m*3 2 C 3.2 km/h
2710 03-02-2019 09:45:00 2 C 5.17 g/m*3 0.13 C 6.4 km/h
2711 03-02-2019 09:50:00 2.1 C 5.2 g/m*3 2.1 C 4.8 km/h
2712 03-02-2019 09:55:00 2.2 C 5.18 g/m*3 -0.61 C 9.7 km/h
2713 03-02-2019 10:00:00 2.2 C 5.18 g/m*3 0.36 C 6.4 km/h
2714 03-02-2019 10:05:00 2.3 C 5.22 g/m*3 -0.49 C 9.7 km/h
2715 03-02-2019 10:10:00 2.3 C 5.22 g/m*3 0.47 C 6.4 km/h
2716 03-02-2019 10:15:00 2.4 C 5.25 g/m*3 0.59 C 6.4 km/h
2717 03-02-2019 10:20:00 2.4 C 5.25 g/m*3 0.05 C 8.1 km/h
2718 03-02-2019 10:25:00 2.4 C 5.25 g/m*3 -1.07 C 12.9 km/h
2719 03-02-2019 10:30:00 2.5 C 5.23 g/m*3 -0.26 C 9.7 km/h
2720 03-02-2019 10:35:00 2.5 C 5.23 g/m*3 -0.95 C 12.9 km/h
2721 03-02-2019 10:40:00 2.6 C 5.27 g/m*3 0.82 C 6.4 km/h
2722 03-02-2019 10:45:00 2.6 C 5.27 g/m*3 -0.14 C 9.7 km/h
2723 03-02-2019 10:50:00 2.7 C 5.24 g/m*3 0.94 C 6.4 km/h
2724 03-02-2019 10:55:00 2.7 C 5.24 g/m*3 0.4 C 8.1 km/h
2725 03-02-2019 11:00:00 2.7 C 5.24 g/m*3 2.7 C 1.6 km/h
Sensor: Nr:Datum:Temp:Abs-Feuchte:Windchill:Wind:
Aussen-T/F 2726 03-02-2019 11:05:00 2.8 C 5.28 g/m*3 0.52 C 8.1 km/h
2727 03-02-2019 11:10:00 2.9 C 5.32 g/m*3 2.9 C 4.8 km/h
2728 03-02-2019 11:15:00 2.9 C 5.26 g/m*3 0.64 C 8.1 km/h
2729 03-02-2019 11:20:00 3.1 C 5.33 g/m*3 1.4 C 6.4 km/h
2730 03-02-2019 11:25:00 3.2 C 5.36 g/m*3 3.2 C 3.2 km/h
2731 03-02-2019 11:30:00 3.2 C 5.3 g/m*3 -0.1 C 12.9 km/h
2732 03-02-2019 11:35:00 3.3 C 5.34 g/m*3 1.11 C 8.1 km/h
2733 03-02-2019 11:40:00 3.3 C 5.34 g/m*3 1.11 C 8.1 km/h
2734 03-02-2019 11:45:00 3.3 C 5.34 g/m*3 1.11 C 8.1 km/h
2735 03-02-2019 11:50:00 3.3 C 5.34 g/m*3 3.3 C 4.8 km/h
2736 03-02-2019 11:55:00 3.3 C 5.34 g/m*3 0.7 C 9.7 km/h
2737 03-02-2019 12:00:00 3.3 C 5.34 g/m*3 1.63 C 6.4 km/h
2738 03-02-2019 12:05:00 3.3 C 5.28 g/m*3 0.7 C 9.7 km/h
2739 03-02-2019 12:10:00 3.3 C 5.28 g/m*3 0.7 C 9.7 km/h
2740 03-02-2019 12:15:00 3.4 C 5.25 g/m*3 0.82 C 9.7 km/h
2741 03-02-2019 12:20:00 3.4 C 5.25 g/m*3 0.82 C 9.7 km/h
2742 03-02-2019 12:25:00 3.6 C 5.26 g/m*3 0.7 C 11.3 km/h
2743 03-02-2019 12:30:00 3.7 C 5.3 g/m*3 0.51 C 12.9 km/h
2744 03-02-2019 12:35:00 3.7 C 5.3 g/m*3 0.82 C 11.3 km/h
2745 03-02-2019 12:40:00 3.8 C 5.27 g/m*3 0.94 C 11.3 km/h
2746 03-02-2019 12:45:00 3.8 C 5.33 g/m*3 0.63 C 12.9 km/h
2747 03-02-2019 12:50:00 3.9 C 5.37 g/m*3 2.32 C 6.4 km/h
2748 03-02-2019 12:55:00 3.8 C 5.33 g/m*3 -0.14 C 17.7 km/h
2749 03-02-2019 13:00:00 3.8 C 5.27 g/m*3 1.29 C 9.7 km/h
2750 03-02-2019 13:05:00 3.8 C 5.33 g/m*3 -0.14 C 17.7 km/h
Sensor: Nr:Datum:Temp:Abs-Feuchte:Windchill:Wind:
Aussen-T/F 2751 03-02-2019 13:10:00 3.8 C 5.33 g/m*3 0.63 C 12.9 km/h
2752 03-02-2019 13:15:00 3.8 C 5.27 g/m*3 0.94 C 11.3 km/h
2753 03-02-2019 13:20:00 3.9 C 5.37 g/m*3 1.82 C 8.1 km/h
2754 03-02-2019 13:25:00 3.9 C 5.24 g/m*3 0.47 C 14.5 km/h
2755 03-02-2019 13:30:00 3.9 C 5.24 g/m*3 0.22 C 16.1 km/h
2756 03-02-2019 13:35:00 4 C 5.28 g/m*3 1.18 C 11.3 km/h
2757 03-02-2019 13:40:00 4.1 C 5.31 g/m*3 1 C 12.9 km/h
2758 03-02-2019 13:45:00 4.2 C 5.28 g/m*3 1.43 C 11.3 km/h
2759 03-02-2019 13:50:00 4.2 C 5.22 g/m*3 0.84 C 14.5 km/h
2760 03-02-2019 13:55:00 4.2 C 5.28 g/m*3 1.77 C 9.7 km/h
2761 03-02-2019 14:00:00 4.2 C 5.28 g/m*3 1.12 C 12.9 km/h
2762 03-02-2019 14:05:00 4.2 C 5.35 g/m*3 1.12 C 12.9 km/h
2763 03-02-2019 14:10:00 4.1 C 5.31 g/m*3 1.31 C 11.3 km/h
2764 03-02-2019 14:15:00 4.1 C 5.38 g/m*3 1.65 C 9.7 km/h
2765 03-02-2019 14:20:00 3.9 C 5.31 g/m*3 0.22 C 16.1 km/h
2766 03-02-2019 14:25:00 3.9 C 5.31 g/m*3 0.22 C 16.1 km/h
2767 03-02-2019 14:30:00 3.9 C 5.31 g/m*3 1.06 C 11.3 km/h
2768 03-02-2019 14:35:00 4 C 5.34 g/m*3 1.53 C 9.7 km/h
2769 03-02-2019 14:40:00 4.1 C 5.31 g/m*3 1.65 C 9.7 km/h
2770 03-02-2019 14:45:00 4.2 C 5.35 g/m*3 1.12 C 12.9 km/h
2771 03-02-2019 14:50:00 4.2 C 5.28 g/m*3 1.43 C 11.3 km/h
2772 03-02-2019 14:55:00 4.4 C 5.29 g/m*3 1.36 C 12.9 km/h
2773 03-02-2019 15:00:00 4.4 C 5.16 g/m*3 1.67 C 11.3 km/h
2774 03-02-2019 15:05:00 4.4 C 5.09 g/m*3 1.36 C 12.9 km/h
2775 03-02-2019 15:10:00 4.4 C 5.09 g/m*3 1.67 C 11.3 km/h
Sensor: Nr:Datum:Temp:Abs-Feuchte:Windchill:Wind:
Aussen-T/F 2776 03-02-2019 15:15:00 4.5 C 5.13 g/m*3 2.13 C 9.7 km/h
2777 03-02-2019 15:20:00 4.5 C 5.06 g/m*3 1.21 C 14.5 km/h
2778 03-02-2019 15:25:00 4.6 C 5.03 g/m*3 2.25 C 9.7 km/h
2779 03-02-2019 15:30:00 4.6 C 5.16 g/m*3 1.91 C 11.3 km/h
2780 03-02-2019 15:35:00 4.5 C 5.06 g/m*3 1.79 C 11.3 km/h
2781 03-02-2019 15:40:00 4.6 C 5.03 g/m*3 2.25 C 9.7 km/h
2782 03-02-2019 15:45:00 4.6 C 4.96 g/m*3 1.61 C 12.9 km/h
2783 03-02-2019 15:50:00 4.5 C 4.93 g/m*3 2.52 C 8.1 km/h
2784 03-02-2019 15:55:00 4.5 C 4.93 g/m*3 1.79 C 11.3 km/h
2785 03-02-2019 16:00:00 4.4 C 4.9 g/m*3 2.4 C 8.1 km/h
2786 03-02-2019 16:05:00 4.4 C 4.9 g/m*3 2.9 C 6.4 km/h
2787 03-02-2019 16:10:00 4.4 C 4.96 g/m*3 4.4 C 3.2 km/h
2788 03-02-2019 16:15:00 4.4 C 4.96 g/m*3 4.4 C 4.8 km/h
2789 03-02-2019 16:20:00 4.4 C 4.96 g/m*3 2.4 C 8.1 km/h
2790 03-02-2019 16:25:00 4.4 C 4.96 g/m*3 4.4 C 3.2 km/h
2791 03-02-2019 16:30:00 4.4 C 4.96 g/m*3 2.9 C 6.4 km/h
2792 03-02-2019 16:35:00 4.5 C 5 g/m*3 4.5 C 4.8 km/h
2793 03-02-2019 16:40:00 4.5 C 5.06 g/m*3 4.5 C 4.8 km/h
2794 03-02-2019 16:45:00 4.5 C 5 g/m*3 3.02 C 6.4 km/h
2795 03-02-2019 16:50:00 4.5 C 5.06 g/m*3 4.5 C 3.2 km/h
2796 03-02-2019 16:55:00 4.4 C 5.03 g/m*3 4.4 C 4.8 km/h
2797 03-02-2019 17:00:00 4.4 C 5.03 g/m*3 2.9 C 6.4 km/h
2798 03-02-2019 17:05:00 4.4 C 5.03 g/m*3 2.9 C 6.4 km/h
2799 03-02-2019 17:10:00 4.3 C 4.99 g/m*3 4.3 C 4.8 km/h
2800 03-02-2019 17:15:00 4.3 C 4.99 g/m*3 4.3 C 4.8 km/h
Sensor: Nr:Datum:Temp:Abs-Feuchte:Windchill:Wind:
Aussen-T/F 2801 03-02-2019 17:20:00 4.3 C 4.99 g/m*3 2.78 C 6.4 km/h
2802 03-02-2019 17:25:00 4.3 C 4.99 g/m*3 4.3 C 4.8 km/h
2803 03-02-2019 17:30:00 4.3 C 5.06 g/m*3 4.3 C 0 km/h
2804 03-02-2019 17:35:00 4.3 C 5.12 g/m*3 4.3 C 3.2 km/h
2805 03-02-2019 17:40:00 4.2 C 5.09 g/m*3 4.2 C 3.2 km/h
2806 03-02-2019 17:45:00 4.2 C 5.09 g/m*3 4.2 C 0 km/h
2807 03-02-2019 17:50:00 4.1 C 5.06 g/m*3 4.1 C 3.2 km/h
2808 03-02-2019 17:55:00 4.1 C 5.12 g/m*3 2.55 C 6.4 km/h
2809 03-02-2019 18:00:00 4.1 C 5.12 g/m*3 4.1 C 1.6 km/h
2810 03-02-2019 18:05:00 4 C 5.15 g/m*3 4 C 0 km/h
2811 03-02-2019 18:10:00 3.9 C 5.12 g/m*3 3.9 C 0 km/h
2812 03-02-2019 18:15:00 3.9 C 5.18 g/m*3 2.32 C 6.4 km/h
2813 03-02-2019 18:20:00 3.9 C 5.18 g/m*3 3.9 C 3.2 km/h
2814 03-02-2019 18:25:00 3.9 C 5.24 g/m*3 3.9 C 1.6 km/h
2815 03-02-2019 18:30:00 3.8 C 5.21 g/m*3 3.8 C 4.8 km/h
2816 03-02-2019 18:35:00 3.8 C 5.21 g/m*3 3.8 C 3.2 km/h
2817 03-02-2019 18:40:00 3.8 C 5.21 g/m*3 1.7 C 8.1 km/h
2818 03-02-2019 18:45:00 3.8 C 5.21 g/m*3 2.21 C 6.4 km/h
2819 03-02-2019 18:50:00 3.8 C 5.21 g/m*3 3.8 C 3.2 km/h
2820 03-02-2019 18:55:00 3.8 C 5.21 g/m*3 3.8 C 1.6 km/h
2821 03-02-2019 19:00:00 3.8 C 5.27 g/m*3 3.8 C 1.6 km/h
2822 03-02-2019 19:05:00 3.7 C 5.23 g/m*3 3.7 C 3.2 km/h
2823 03-02-2019 19:10:00 3.7 C 5.23 g/m*3 3.7 C 4.8 km/h
2824 03-02-2019 19:15:00 3.7 C 5.23 g/m*3 3.7 C 0 km/h
2825 03-02-2019 19:20:00 3.6 C 5.2 g/m*3 3.6 C 4.8 km/h
Sensor: Nr:Datum:Temp:Abs-Feuchte:Windchill:Wind:
Aussen-T/F 2826 03-02-2019 19:25:00 3.6 C 5.26 g/m*3 3.6 C 3.2 km/h
2827 03-02-2019 19:30:00 3.6 C 5.26 g/m*3 3.6 C 1.6 km/h
2828 03-02-2019 19:35:00 3.6 C 5.26 g/m*3 3.6 C 1.6 km/h
2829 03-02-2019 19:40:00 3.5 C 5.23 g/m*3 3.5 C 0 km/h
2830 03-02-2019 19:45:00 3.4 C 5.25 g/m*3 3.4 C 1.6 km/h
2831 03-02-2019 19:50:00 3.4 C 5.25 g/m*3 3.4 C 1.6 km/h
2832 03-02-2019 19:55:00 3.4 C 5.25 g/m*3 3.4 C 1.6 km/h
2833 03-02-2019 20:00:00 3.3 C 5.22 g/m*3 3.3 C 1.6 km/h
2834 03-02-2019 20:05:00 3.3 C 5.28 g/m*3 3.3 C 3.2 km/h
2835 03-02-2019 20:10:00 3.3 C 5.28 g/m*3 3.3 C 1.6 km/h
2836 03-02-2019 20:15:00 3.3 C 5.28 g/m*3 3.3 C 1.6 km/h
2837 03-02-2019 20:20:00 3.3 C 5.28 g/m*3 3.3 C 3.2 km/h
2838 03-02-2019 20:25:00 3.2 C 5.3 g/m*3 3.2 C 3.2 km/h
2839 03-02-2019 20:30:00 3.2 C 5.3 g/m*3 3.2 C 1.6 km/h
2840 03-02-2019 20:35:00 3.2 C 5.3 g/m*3 3.2 C 3.2 km/h
2841 03-02-2019 20:40:00 3.1 C 5.21 g/m*3 3.1 C 3.2 km/h
2842 03-02-2019 20:45:00 3.1 C 5.21 g/m*3 3.1 C 3.2 km/h
2843 03-02-2019 20:50:00 3.1 C 5.21 g/m*3 3.1 C 0 km/h
2844 03-02-2019 20:55:00 2.9 C 5.14 g/m*3 2.9 C 3.2 km/h
2845 03-02-2019 21:00:00 2.7 C 5.07 g/m*3 2.7 C 3.2 km/h
2846 03-02-2019 21:05:00 2.4 C 4.97 g/m*3 2.4 C 3.2 km/h
2847 03-02-2019 21:10:00 2.3 C 4.99 g/m*3 2.3 C 3.2 km/h
2848 03-02-2019 21:15:00 2.1 C 4.92 g/m*3 2.1 C 3.2 km/h
2849 03-02-2019 21:20:00 2 C 4.95 g/m*3 2 C 3.2 km/h
2850 03-02-2019 21:25:00 1.9 C 4.91 g/m*3 1.9 C 1.6 km/h
Sensor: Nr:Datum:Temp:Abs-Feuchte:Windchill:Wind:
Aussen-T/F 2851 03-02-2019 21:30:00 1.8 C 4.88 g/m*3 1.8 C 0 km/h
2852 03-02-2019 21:35:00 1.7 C 4.9 g/m*3 1.7 C 0 km/h
2853 03-02-2019 21:40:00 1.6 C 4.87 g/m*3 1.6 C 0 km/h
2854 03-02-2019 21:45:00 1.6 C 4.87 g/m*3 1.6 C 0 km/h
2855 03-02-2019 21:50:00 1.5 C 4.89 g/m*3 1.5 C 0 km/h
2856 03-02-2019 21:55:00 1.5 C 4.89 g/m*3 1.5 C 0 km/h
2857 03-02-2019 22:00:00 1.4 C 4.85 g/m*3 1.4 C 0 km/h
2858 03-02-2019 22:05:00 1.4 C 4.85 g/m*3 1.4 C 0 km/h
2859 03-02-2019 22:10:00 1.3 C 4.82 g/m*3 1.3 C 0 km/h
2860 03-02-2019 22:15:00 1.2 C 4.79 g/m*3 1.2 C 0 km/h
2861 03-02-2019 22:20:00 1.1 C 4.76 g/m*3 1.1 C 0 km/h
2862 03-02-2019 22:25:00 1.1 C 4.76 g/m*3 1.1 C 0 km/h
2863 03-02-2019 22:30:00 0.9 C 4.69 g/m*3 0.9 C 0 km/h
2864 03-02-2019 22:35:00 0.8 C 4.66 g/m*3 0.8 C 0 km/h
2865 03-02-2019 22:40:00 0.8 C 4.66 g/m*3 0.8 C 0 km/h
2866 03-02-2019 22:45:00 0.7 C 4.68 g/m*3 0.7 C 0 km/h
2867 03-02-2019 22:50:00 0.6 C 4.65 g/m*3 0.6 C 0 km/h
2868 03-02-2019 22:55:00 0.6 C 4.65 g/m*3 0.6 C 0 km/h
2869 03-02-2019 23:00:00 0.6 C 4.65 g/m*3 0.6 C 0 km/h
2870 03-02-2019 23:05:00 0.5 C 4.66 g/m*3 0.5 C 0 km/h
2871 03-02-2019 23:10:00 0.5 C 4.66 g/m*3 0.5 C 0 km/h
2872 03-02-2019 23:15:00 0.4 C 4.63 g/m*3 0.4 C 0 km/h
2873 03-02-2019 23:20:00 0.4 C 4.58 g/m*3 0.4 C 0 km/h
2874 03-02-2019 23:25:00 0.3 C 4.6 g/m*3 0.3 C 3.2 km/h
2875 03-02-2019 23:30:00 0.3 C 4.6 g/m*3 0.3 C 0 km/h
Sensor: Nr:Datum:Temp:Abs-Feuchte:Windchill:Wind:
Aussen-T/F 2876 03-02-2019 23:35:00 0.2 C 4.57 g/m*3 0.2 C 0 km/h
2877 03-02-2019 23:40:00 0.1 C 4.54 g/m*3 0.1 C 1.6 km/h
2878 03-02-2019 23:45:00 0 C 4.51 g/m*3 0 C 0 km/h
2879 03-02-2019 23:50:00 -0.1 C 4.47 g/m*3 -0.1 C 0 km/h
2880 03-02-2019 23:55:00 -0.1 C 4.47 g/m*3 -0.1 C 0 km/h
2881 04-02-2019 00:00:00 -0.1 C 4.47 g/m*3 -0.1 C 0 km/h
2882 04-02-2019 00:05:00 -0.2 C 4.44 g/m*3 -0.2 C 3.2 km/h
2883 04-02-2019 00:10:00 -0.2 C 4.44 g/m*3 -0.2 C 1.6 km/h
2884 04-02-2019 00:15:00 -0.2 C 4.44 g/m*3 -0.2 C 0 km/h
2885 04-02-2019 00:20:00 -0.3 C 4.46 g/m*3 -0.3 C 0 km/h
2886 04-02-2019 00:25:00 -0.3 C 4.46 g/m*3 -0.3 C 3.2 km/h
2887 04-02-2019 00:30:00 -0.3 C 4.46 g/m*3 -0.3 C 1.6 km/h
2888 04-02-2019 00:35:00 -0.4 C 4.43 g/m*3 -0.4 C 1.6 km/h
2889 04-02-2019 00:40:00 -0.4 C 4.43 g/m*3 -0.4 C 1.6 km/h
2890 04-02-2019 00:45:00 -0.4 C 4.43 g/m*3 -0.4 C 0 km/h
2891 04-02-2019 00:50:00 -0.5 C 4.4 g/m*3 -0.5 C 0 km/h
2892 04-02-2019 00:55:00 -0.5 C 4.4 g/m*3 -0.5 C 0 km/h
2893 04-02-2019 01:00:00 -0.5 C 4.4 g/m*3 -0.5 C 0 km/h
2894 04-02-2019 01:05:00 -0.4 C 4.48 g/m*3 -0.4 C 1.6 km/h
2895 04-02-2019 01:10:00 -0.3 C 4.51 g/m*3 -0.3 C 0 km/h
2896 04-02-2019 01:15:00 -0.2 C 4.54 g/m*3 -0.2 C 4.8 km/h
2897 04-02-2019 01:20:00 0 C 4.6 g/m*3 0 C 4.8 km/h
2898 04-02-2019 01:25:00 0.1 C 4.63 g/m*3 0.1 C 1.6 km/h
2899 04-02-2019 01:30:00 0.1 C 4.63 g/m*3 0.1 C 3.2 km/h
2900 04-02-2019 01:35:00 0.1 C 4.63 g/m*3 0.1 C 0 km/h
Sensor: Nr:Datum:Temp:Abs-Feuchte:Windchill:Wind:
Aussen-T/F 2901 04-02-2019 01:40:00 0.1 C 4.63 g/m*3 0.1 C 1.6 km/h
2902 04-02-2019 01:45:00 0.1 C 4.63 g/m*3 0.1 C 0 km/h
2903 04-02-2019 01:50:00 0.1 C 4.63 g/m*3 0.1 C 0 km/h
2904 04-02-2019 01:55:00 0.1 C 4.63 g/m*3 0.1 C 3.2 km/h
2905 04-02-2019 02:00:00 0.1 C 4.63 g/m*3 0.1 C 0 km/h
2906 04-02-2019 02:05:00 0.1 C 4.63 g/m*3 0.1 C 0 km/h
2907 04-02-2019 02:10:00 0.1 C 4.63 g/m*3 0.1 C 0 km/h
2908 04-02-2019 02:15:00 0.1 C 4.59 g/m*3 0.1 C 1.6 km/h
2909 04-02-2019 02:20:00 0.1 C 4.59 g/m*3 0.1 C 1.6 km/h
2910 04-02-2019 02:25:00 0.1 C 4.63 g/m*3 0.1 C 1.6 km/h
2911 04-02-2019 02:30:00 0.1 C 4.59 g/m*3 0.1 C 1.6 km/h
2912 04-02-2019 02:35:00 0 C 4.55 g/m*3 0 C 1.6 km/h
2913 04-02-2019 02:40:00 -0.1 C 4.52 g/m*3 -0.1 C 0 km/h
2914 04-02-2019 02:45:00 -0.2 C 4.49 g/m*3 -0.2 C 4.8 km/h
2915 04-02-2019 02:50:00 -0.2 C 4.49 g/m*3 -0.2 C 4.8 km/h
2916 04-02-2019 02:55:00 -0.2 C 4.49 g/m*3 -0.2 C 3.2 km/h
2917 04-02-2019 03:00:00 -0.3 C 4.46 g/m*3 -0.3 C 4.8 km/h
2918 04-02-2019 03:05:00 -0.2 C 4.49 g/m*3 -3 C 8.1 km/h
2919 04-02-2019 03:10:00 -0.2 C 4.49 g/m*3 -0.2 C 4.8 km/h
2920 04-02-2019 03:15:00 -0.2 C 4.49 g/m*3 -0.2 C 4.8 km/h
2921 04-02-2019 03:20:00 -0.2 C 4.49 g/m*3 -2.41 C 6.4 km/h
2922 04-02-2019 03:25:00 -0.2 C 4.49 g/m*3 -3.47 C 9.7 km/h
2923 04-02-2019 03:30:00 -0.2 C 4.49 g/m*3 -4.86 C 16.1 km/h
2924 04-02-2019 03:35:00 -0.2 C 4.49 g/m*3 -3.88 C 11.3 km/h
2925 04-02-2019 03:40:00 -0.2 C 4.49 g/m*3 -0.2 C 4.8 km/h
Sensor: Nr:Datum:Temp:Abs-Feuchte:Windchill:Wind:
Aussen-T/F 2926 04-02-2019 03:45:00 -0.1 C 4.52 g/m*3 -0.1 C 4.8 km/h
2927 04-02-2019 03:50:00 -0.2 C 4.49 g/m*3 -2.41 C 6.4 km/h
2928 04-02-2019 03:55:00 -0.2 C 4.49 g/m*3 -3 C 8.1 km/h
2929 04-02-2019 04:00:00 -0.3 C 4.46 g/m*3 -0.3 C 1.6 km/h
2930 04-02-2019 04:05:00 -0.3 C 4.46 g/m*3 -0.3 C 0 km/h
2931 04-02-2019 04:10:00 -0.3 C 4.46 g/m*3 -0.3 C 0 km/h
2932 04-02-2019 04:15:00 -0.4 C 4.43 g/m*3 -0.4 C 1.6 km/h
2933 04-02-2019 04:20:00 -0.5 C 4.4 g/m*3 -0.5 C 0 km/h
2934 04-02-2019 04:25:00 -0.6 C 4.37 g/m*3 -0.6 C 1.6 km/h
2935 04-02-2019 04:30:00 -0.6 C 4.37 g/m*3 -0.6 C 0 km/h
2936 04-02-2019 04:35:00 -0.6 C 4.37 g/m*3 -0.6 C 0 km/h
2937 04-02-2019 04:40:00 -0.6 C 4.37 g/m*3 -0.6 C 0 km/h
2938 04-02-2019 04:45:00 -0.5 C 4.4 g/m*3 -0.5 C 0 km/h
2939 04-02-2019 04:50:00 -0.5 C 4.4 g/m*3 -0.5 C 0 km/h
2940 04-02-2019 04:55:00 -0.5 C 4.45 g/m*3 -0.5 C 0 km/h
2941 04-02-2019 05:00:00 -0.4 C 4.43 g/m*3 -0.4 C 0 km/h
2942 04-02-2019 05:05:00 -0.4 C 4.48 g/m*3 -0.4 C 0 km/h
2943 04-02-2019 05:10:00 -0.3 C 4.51 g/m*3 -0.3 C 0 km/h
2944 04-02-2019 05:15:00 -0.2 C 4.54 g/m*3 -0.2 C 0 km/h
2945 04-02-2019 05:20:00 -0.2 C 4.54 g/m*3 -0.2 C 0 km/h
2946 04-02-2019 05:25:00 -0.1 C 4.57 g/m*3 -0.1 C 0 km/h
2947 04-02-2019 05:30:00 0.1 C 4.63 g/m*3 0.1 C 0 km/h
2948 04-02-2019 05:35:00 0.1 C 4.63 g/m*3 0.1 C 1.6 km/h
2949 04-02-2019 05:40:00 0.2 C 4.67 g/m*3 0.2 C 1.6 km/h
2950 04-02-2019 05:45:00 0.2 C 4.67 g/m*3 0.2 C 0 km/h
Sensor: Nr:Datum:Temp:Abs-Feuchte:Windchill:Wind:
Aussen-T/F 2951 04-02-2019 05:50:00 0.3 C 4.7 g/m*3 0.3 C 1.6 km/h
2952 04-02-2019 05:55:00 0.3 C 4.7 g/m*3 0.3 C 0 km/h
2953 04-02-2019 06:00:00 0.3 C 4.7 g/m*3 0.3 C 0 km/h
2954 04-02-2019 06:05:00 0.3 C 4.7 g/m*3 0.3 C 0 km/h
2955 04-02-2019 06:10:00 0.3 C 4.7 g/m*3 0.3 C 0 km/h
2956 04-02-2019 06:15:00 0.3 C 4.7 g/m*3 0.3 C 0 km/h
2957 04-02-2019 06:20:00 0.4 C 4.73 g/m*3 0.4 C 0 km/h
2958 04-02-2019 06:25:00 0.4 C 4.73 g/m*3 0.4 C 0 km/h
2959 04-02-2019 06:30:00 0.4 C 4.73 g/m*3 0.4 C 0 km/h
2960 04-02-2019 06:35:00 0.4 C 4.73 g/m*3 0.4 C 0 km/h
2961 04-02-2019 06:40:00 0.4 C 4.73 g/m*3 0.4 C 0 km/h
2962 04-02-2019 06:45:00 0.4 C 4.73 g/m*3 0.4 C 0 km/h
2963 04-02-2019 06:50:00 0.4 C 4.73 g/m*3 0.4 C 0 km/h
2964 04-02-2019 06:55:00 0.4 C 4.73 g/m*3 0.4 C 0 km/h
2965 04-02-2019 07:00:00 0.4 C 4.73 g/m*3 0.4 C 0 km/h
2966 04-02-2019 07:05:00 0.4 C 4.73 g/m*3 0.4 C 0 km/h
2967 04-02-2019 07:10:00 0.5 C 4.76 g/m*3 0.5 C 0 km/h
2968 04-02-2019 07:15:00 0.5 C 4.76 g/m*3 0.5 C 0 km/h
2969 04-02-2019 07:20:00 0.5 C 4.76 g/m*3 0.5 C 0 km/h
2970 04-02-2019 07:25:00 0.6 C 4.8 g/m*3 0.6 C 0 km/h
2971 04-02-2019 07:30:00 0.5 C 4.76 g/m*3 0.5 C 0 km/h
2972 04-02-2019 07:35:00 0.5 C 4.76 g/m*3 0.5 C 1.6 km/h
2973 04-02-2019 07:40:00 0.5 C 4.76 g/m*3 0.5 C 1.6 km/h
2974 04-02-2019 07:45:00 0.6 C 4.8 g/m*3 0.6 C 0 km/h
2975 04-02-2019 07:50:00 0.6 C 4.75 g/m*3 0.6 C 0 km/h
Sensor: Nr:Datum:Temp:Abs-Feuchte:Windchill:Wind:
Aussen-T/F 2976 04-02-2019 07:55:00 0.6 C 4.8 g/m*3 0.6 C 0 km/h
2977 04-02-2019 08:00:00 0.6 C 4.8 g/m*3 0.6 C 0 km/h
2978 04-02-2019 08:05:00 0.6 C 4.8 g/m*3 0.6 C 0 km/h
2979 04-02-2019 08:10:00 0.6 C 4.8 g/m*3 0.6 C 0 km/h
2980 04-02-2019 08:15:00 0.6 C 4.8 g/m*3 0.6 C 0 km/h
2981 04-02-2019 08:20:00 0.7 C 4.83 g/m*3 0.7 C 3.2 km/h
2982 04-02-2019 08:25:00 0.7 C 4.78 g/m*3 0.7 C 0 km/h
2983 04-02-2019 08:30:00 0.7 C 4.78 g/m*3 0.7 C 0 km/h
2984 04-02-2019 08:35:00 0.7 C 4.78 g/m*3 0.7 C 0 km/h
2985 04-02-2019 08:40:00 0.8 C 4.81 g/m*3 0.8 C 0 km/h
2986 04-02-2019 08:45:00 0.8 C 4.81 g/m*3 0.8 C 0 km/h
2987 04-02-2019 08:50:00 0.8 C 4.81 g/m*3 0.8 C 0 km/h
2988 04-02-2019 08:55:00 0.8 C 4.81 g/m*3 0.8 C 0 km/h
2989 04-02-2019 09:00:00 0.8 C 4.81 g/m*3 0.8 C 0 km/h
2990 04-02-2019 09:05:00 0.8 C 4.81 g/m*3 0.8 C 1.6 km/h
2991 04-02-2019 09:10:00 0.7 C 4.78 g/m*3 0.7 C 0 km/h
2992 04-02-2019 09:15:00 0.7 C 4.78 g/m*3 0.7 C 0 km/h
2993 04-02-2019 09:20:00 0.6 C 4.7 g/m*3 0.6 C 0 km/h
2994 04-02-2019 09:25:00 0.6 C 4.75 g/m*3 0.6 C 0 km/h
2995 04-02-2019 09:30:00 0.5 C 4.71 g/m*3 0.5 C 0 km/h
2996 04-02-2019 09:35:00 0.5 C 4.71 g/m*3 0.5 C 0 km/h
2997 04-02-2019 09:40:00 0.5 C 4.71 g/m*3 0.5 C 0 km/h
2998 04-02-2019 09:45:00 0.6 C 4.75 g/m*3 0.6 C 0 km/h
2999 04-02-2019 09:50:00 0.5 C 4.71 g/m*3 0.5 C 0 km/h
3000 04-02-2019 09:55:00 0.5 C 4.71 g/m*3 0.5 C 0 km/h
Sensor: Nr:Datum:Temp:Abs-Feuchte:Windchill:Wind:
Aussen-T/F 3001 04-02-2019 10:00:00 0.6 C 4.75 g/m*3 0.6 C 0 km/h
3002 04-02-2019 10:05:00 0.6 C 4.75 g/m*3 0.6 C 0 km/h
3003 04-02-2019 10:10:00 0.6 C 4.75 g/m*3 0.6 C 0 km/h
3004 04-02-2019 10:15:00 0.7 C 4.78 g/m*3 0.7 C 0 km/h
3005 04-02-2019 10:20:00 0.8 C 4.81 g/m*3 0.8 C 0 km/h
3006 04-02-2019 10:25:00 0.8 C 4.86 g/m*3 0.8 C 0 km/h
3007 04-02-2019 10:30:00 0.9 C 4.85 g/m*3 0.9 C 0 km/h
3008 04-02-2019 10:35:00 1 C 4.88 g/m*3 1 C 0 km/h
3009 04-02-2019 10:40:00 1.1 C 4.91 g/m*3 1.1 C 0 km/h
3010 04-02-2019 10:45:00 1.2 C 4.95 g/m*3 1.2 C 0 km/h
3011 04-02-2019 10:50:00 1.2 C 4.95 g/m*3 1.2 C 0 km/h
3012 04-02-2019 10:55:00 1.3 C 4.98 g/m*3 1.3 C 0 km/h
3013 04-02-2019 11:00:00 1.4 C 5.01 g/m*3 1.4 C 0 km/h
3014 04-02-2019 11:05:00 1.6 C 5.03 g/m*3 1.6 C 0 km/h
3015 04-02-2019 11:10:00 1.7 C 5.06 g/m*3 1.7 C 0 km/h
3016 04-02-2019 11:15:00 1.8 C 5.1 g/m*3 1.8 C 0 km/h
3017 04-02-2019 11:20:00 1.9 C 5.08 g/m*3 1.9 C 0 km/h
3018 04-02-2019 11:25:00 2 C 5.06 g/m*3 2 C 0 km/h
3019 04-02-2019 11:30:00 2.1 C 5.09 g/m*3 2.1 C 0 km/h
3020 04-02-2019 11:35:00 2.2 C 5.07 g/m*3 2.2 C 0 km/h
3021 04-02-2019 11:40:00 2.3 C 5.1 g/m*3 2.3 C 0 km/h
3022 04-02-2019 11:45:00 2.4 C 5.14 g/m*3 2.4 C 0 km/h
3023 04-02-2019 11:50:00 2.5 C 5.12 g/m*3 2.5 C 0 km/h
3024 04-02-2019 11:55:00 2.6 C 5.15 g/m*3 2.6 C 0 km/h
3025 04-02-2019 12:00:00 2.7 C 5.19 g/m*3 2.7 C 0 km/h
Sensor: Nr:Datum:Temp:Abs-Feuchte:Windchill:Wind:
Aussen-T/F 3026 04-02-2019 12:05:00 2.9 C 5.26 g/m*3 2.9 C 0 km/h
3027 04-02-2019 12:10:00 3.1 C 5.27 g/m*3 3.1 C 0 km/h
3028 04-02-2019 12:15:00 3.2 C 5.3 g/m*3 3.2 C 0 km/h
3029 04-02-2019 12:20:00 3.3 C 5.16 g/m*3 1.63 C 6.4 km/h
3030 04-02-2019 12:25:00 3.6 C 5.08 g/m*3 3.6 C 3.2 km/h
3031 04-02-2019 12:30:00 3.9 C 5.05 g/m*3 1.41 C 9.7 km/h
3032 04-02-2019 12:35:00 4.2 C 5.03 g/m*3 2.67 C 6.4 km/h
3033 04-02-2019 12:40:00 4.3 C 4.99 g/m*3 4.3 C 4.8 km/h
3034 04-02-2019 12:45:00 4.5 C 5.06 g/m*3 2.52 C 8.1 km/h
3035 04-02-2019 12:50:00 4.6 C 4.96 g/m*3 3.13 C 6.4 km/h
3036 04-02-2019 12:55:00 4.7 C 4.93 g/m*3 2.76 C 8.1 km/h
3037 04-02-2019 13:00:00 4.8 C 4.96 g/m*3 2.49 C 9.7 km/h
3038 04-02-2019 13:05:00 4.8 C 4.9 g/m*3 2.15 C 11.3 km/h
3039 04-02-2019 13:10:00 4.8 C 4.96 g/m*3 2.87 C 8.1 km/h
3040 04-02-2019 13:15:00 4.8 C 4.9 g/m*3 3.36 C 6.4 km/h
3041 04-02-2019 13:20:00 4.8 C 4.83 g/m*3 2.49 C 9.7 km/h
3042 04-02-2019 13:25:00 4.8 C 4.83 g/m*3 4.8 C 4.8 km/h
3043 04-02-2019 13:30:00 4.8 C 4.83 g/m*3 2.49 C 9.7 km/h
3044 04-02-2019 13:35:00 4.7 C 4.8 g/m*3 2.37 C 9.7 km/h
3045 04-02-2019 13:40:00 4.7 C 4.86 g/m*3 3.25 C 6.4 km/h
3046 04-02-2019 13:45:00 4.7 C 4.8 g/m*3 3.25 C 6.4 km/h
3047 04-02-2019 13:50:00 4.8 C 4.83 g/m*3 3.36 C 6.4 km/h
3048 04-02-2019 13:55:00 4.9 C 4.86 g/m*3 2.27 C 11.3 km/h
3049 04-02-2019 14:00:00 4.9 C 4.79 g/m*3 2.61 C 9.7 km/h
3050 04-02-2019 14:05:00 5 C 4.89 g/m*3 5 C 3.2 km/h
Sensor: Nr:Datum:Temp:Abs-Feuchte:Windchill:Wind:
Aussen-T/F 3051 04-02-2019 14:10:00 5.2 C 4.89 g/m*3 5.2 C 3.2 km/h
3052 04-02-2019 14:15:00 5.2 C 4.75 g/m*3 5.2 C 4.8 km/h
3053 04-02-2019 14:20:00 5.3 C 4.78 g/m*3 2.2 C 14.5 km/h
3054 04-02-2019 14:25:00 5.4 C 4.88 g/m*3 4.06 C 6.4 km/h
3055 04-02-2019 14:30:00 5.4 C 4.67 g/m*3 3.58 C 8.1 km/h
3056 04-02-2019 14:35:00 5.4 C 4.67 g/m*3 3.58 C 8.1 km/h
3057 04-02-2019 14:40:00 5.4 C 4.67 g/m*3 5.4 C 3.2 km/h
3058 04-02-2019 14:45:00 5.5 C 4.64 g/m*3 4.17 C 6.4 km/h
3059 04-02-2019 14:50:00 5.5 C 4.71 g/m*3 5.5 C 3.2 km/h
3060 04-02-2019 14:55:00 5.5 C 4.64 g/m*3 4.17 C 6.4 km/h
3061 04-02-2019 15:00:00 5.4 C 4.6 g/m*3 4.06 C 6.4 km/h
3062 04-02-2019 15:05:00 5.4 C 4.6 g/m*3 2.87 C 11.3 km/h
3063 04-02-2019 15:10:00 5.4 C 4.67 g/m*3 3.58 C 8.1 km/h
3064 04-02-2019 15:15:00 5.3 C 4.71 g/m*3 5.3 C 4.8 km/h
3065 04-02-2019 15:20:00 5.3 C 4.57 g/m*3 3.46 C 8.1 km/h
3066 04-02-2019 15:25:00 5.3 C 4.57 g/m*3 5.3 C 3.2 km/h
3067 04-02-2019 15:30:00 5.3 C 4.51 g/m*3 5.3 C 1.6 km/h
3068 04-02-2019 15:35:00 5.3 C 4.64 g/m*3 5.3 C 3.2 km/h
3069 04-02-2019 15:40:00 5.3 C 4.71 g/m*3 5.3 C 3.2 km/h
3070 04-02-2019 15:45:00 5.3 C 4.71 g/m*3 5.3 C 0 km/h
3071 04-02-2019 15:50:00 5.3 C 4.71 g/m*3 5.3 C 3.2 km/h
3072 04-02-2019 15:55:00 5.3 C 4.57 g/m*3 5.3 C 1.6 km/h
3073 04-02-2019 16:00:00 5.3 C 4.64 g/m*3 5.3 C 3.2 km/h
3074 04-02-2019 16:05:00 5.3 C 4.78 g/m*3 5.3 C 0 km/h
3075 04-02-2019 16:10:00 5.3 C 4.85 g/m*3 5.3 C 1.6 km/h
Sensor: Nr:Datum:Temp:Abs-Feuchte:Windchill:Wind:
Aussen-T/F 3076 04-02-2019 16:15:00 5.3 C 4.71 g/m*3 5.3 C 4.8 km/h
3077 04-02-2019 16:20:00 5.3 C 4.64 g/m*3 5.3 C 1.6 km/h
3078 04-02-2019 16:25:00 5.2 C 4.82 g/m*3 5.2 C 0 km/h
3079 04-02-2019 16:30:00 5.2 C 5.03 g/m*3 5.2 C 1.6 km/h
3080 04-02-2019 16:35:00 5 C 4.96 g/m*3 5 C 1.6 km/h
3081 04-02-2019 16:40:00 4.8 C 4.96 g/m*3 4.8 C 1.6 km/h
3082 04-02-2019 16:45:00 4.7 C 5.06 g/m*3 4.7 C 0 km/h
3083 04-02-2019 16:50:00 4.4 C 5.03 g/m*3 4.4 C 3.2 km/h
3084 04-02-2019 16:55:00 4.2 C 5.03 g/m*3 4.2 C 0 km/h
3085 04-02-2019 17:00:00 3.9 C 4.99 g/m*3 3.9 C 0 km/h
3086 04-02-2019 17:05:00 3.6 C 5.01 g/m*3 3.6 C 0 km/h
3087 04-02-2019 17:10:00 3.3 C 4.91 g/m*3 3.3 C 0 km/h
3088 04-02-2019 17:15:00 3.1 C 4.91 g/m*3 3.1 C 0 km/h
3089 04-02-2019 17:20:00 2.9 C 4.9 g/m*3 2.9 C 0 km/h
3090 04-02-2019 17:25:00 2.7 C 4.89 g/m*3 2.7 C 0 km/h
3091 04-02-2019 17:30:00 2.6 C 4.86 g/m*3 2.6 C 0 km/h
3092 04-02-2019 17:35:00 2.4 C 4.85 g/m*3 2.4 C 0 km/h
3093 04-02-2019 17:40:00 2.3 C 4.82 g/m*3 2.3 C 0 km/h
3094 04-02-2019 17:45:00 2.2 C 4.79 g/m*3 2.2 C 0 km/h
3095 04-02-2019 17:50:00 2.1 C 4.81 g/m*3 2.1 C 4.8 km/h
3096 04-02-2019 17:55:00 1.9 C 4.75 g/m*3 1.9 C 4.8 km/h
3097 04-02-2019 18:00:00 1.8 C 4.71 g/m*3 1.8 C 3.2 km/h
3098 04-02-2019 18:05:00 1.7 C 4.74 g/m*3 1.7 C 4.8 km/h
3099 04-02-2019 18:10:00 1.6 C 4.7 g/m*3 1.6 C 4.8 km/h
3100 04-02-2019 18:15:00 1.6 C 4.7 g/m*3 1.6 C 3.2 km/h
Sensor: Nr:Datum:Temp:Abs-Feuchte:Windchill:Wind:
Aussen-T/F 3101 04-02-2019 18:20:00 1.5 C 4.67 g/m*3 1.5 C 3.2 km/h
3102 04-02-2019 18:25:00 1.4 C 4.64 g/m*3 1.4 C 3.2 km/h
3103 04-02-2019 18:30:00 1.3 C 4.61 g/m*3 1.3 C 4.8 km/h
3104 04-02-2019 18:35:00 1.3 C 4.66 g/m*3 1.3 C 3.2 km/h
3105 04-02-2019 18:40:00 1.2 C 4.63 g/m*3 1.2 C 3.2 km/h
3106 04-02-2019 18:45:00 1.2 C 4.63 g/m*3 1.2 C 4.8 km/h
3107 04-02-2019 18:50:00 1.1 C 4.65 g/m*3 1.1 C 3.2 km/h
3108 04-02-2019 18:55:00 1.1 C 4.65 g/m*3 1.1 C 1.6 km/h
3109 04-02-2019 19:00:00 1.1 C 4.65 g/m*3 1.1 C 3.2 km/h
3110 04-02-2019 19:05:00 1.1 C 4.65 g/m*3 1.1 C 1.6 km/h
3111 04-02-2019 19:10:00 1.2 C 4.68 g/m*3 1.2 C 3.2 km/h
3112 04-02-2019 19:15:00 1.2 C 4.68 g/m*3 1.2 C 3.2 km/h
3113 04-02-2019 19:20:00 1.3 C 4.77 g/m*3 1.3 C 3.2 km/h
3114 04-02-2019 19:25:00 1.3 C 4.77 g/m*3 1.3 C 1.6 km/h
3115 04-02-2019 19:30:00 1.4 C 4.8 g/m*3 1.4 C 0 km/h
3116 04-02-2019 19:35:00 1.5 C 4.83 g/m*3 1.5 C 0 km/h
3117 04-02-2019 19:40:00 1.6 C 4.87 g/m*3 1.6 C 3.2 km/h
3118 04-02-2019 19:45:00 1.7 C 4.85 g/m*3 1.7 C 0 km/h
3119 04-02-2019 19:50:00 1.7 C 4.9 g/m*3 1.7 C 0 km/h
3120 04-02-2019 19:55:00 1.8 C 4.93 g/m*3 1.8 C 0 km/h
3121 04-02-2019 20:00:00 1.8 C 4.88 g/m*3 1.8 C 0 km/h
3122 04-02-2019 20:05:00 1.9 C 4.91 g/m*3 1.9 C 1.6 km/h
3123 04-02-2019 20:10:00 1.9 C 4.91 g/m*3 1.9 C 0 km/h
3124 04-02-2019 20:15:00 1.9 C 4.91 g/m*3 1.9 C 0 km/h
3125 04-02-2019 20:20:00 1.9 C 4.86 g/m*3 1.9 C 0 km/h
Sensor: Nr:Datum:Temp:Abs-Feuchte:Windchill:Wind:
Aussen-T/F 3126 04-02-2019 20:25:00 2 C 4.89 g/m*3 2 C 0 km/h
3127 04-02-2019 20:30:00 2 C 4.89 g/m*3 2 C 0 km/h
3128 04-02-2019 20:35:00 2 C 4.89 g/m*3 2 C 0 km/h
3129 04-02-2019 20:40:00 2 C 4.89 g/m*3 -0.42 C 8.1 km/h
3130 04-02-2019 20:45:00 2.2 C 4.84 g/m*3 2.2 C 0 km/h
3131 04-02-2019 20:50:00 2.2 C 4.79 g/m*3 2.2 C 4.8 km/h
3132 04-02-2019 20:55:00 2.3 C 4.76 g/m*3 2.3 C 3.2 km/h
3133 04-02-2019 21:00:00 2.3 C 4.71 g/m*3 2.3 C 4.8 km/h
3134 04-02-2019 21:05:00 2.4 C 4.74 g/m*3 2.4 C 1.6 km/h
3135 04-02-2019 21:10:00 2.5 C 4.77 g/m*3 2.5 C 3.2 km/h
3136 04-02-2019 21:15:00 2.6 C 4.8 g/m*3 2.6 C 3.2 km/h
3137 04-02-2019 21:20:00 2.7 C 4.78 g/m*3 2.7 C 3.2 km/h
3138 04-02-2019 21:25:00 2.7 C 4.84 g/m*3 2.7 C 0 km/h
3139 04-02-2019 21:30:00 2.7 C 4.84 g/m*3 2.7 C 1.6 km/h
3140 04-02-2019 21:35:00 2.7 C 4.84 g/m*3 2.7 C 0 km/h
3141 04-02-2019 21:40:00 2.7 C 4.84 g/m*3 2.7 C 0 km/h
3142 04-02-2019 21:45:00 2.7 C 4.78 g/m*3 2.7 C 1.6 km/h
3143 04-02-2019 21:50:00 2.7 C 4.78 g/m*3 2.7 C 0 km/h
3144 04-02-2019 21:55:00 2.8 C 4.75 g/m*3 2.8 C 0 km/h
3145 04-02-2019 22:00:00 2.8 C 4.81 g/m*3 2.8 C 0 km/h
3146 04-02-2019 22:05:00 2.9 C 4.9 g/m*3 2.9 C 0 km/h
3147 04-02-2019 22:10:00 2.9 C 4.84 g/m*3 2.9 C 1.6 km/h
3148 04-02-2019 22:15:00 2.9 C 4.9 g/m*3 2.9 C 3.2 km/h
3149 04-02-2019 22:20:00 2.9 C 4.84 g/m*3 2.9 C 0 km/h
3150 04-02-2019 22:25:00 2.9 C 4.9 g/m*3 2.9 C 1.6 km/h
Sensor: Nr:Datum:Temp:Abs-Feuchte:Windchill:Wind:
Aussen-T/F 3151 04-02-2019 22:30:00 2.8 C 4.87 g/m*3 2.8 C 0 km/h
3152 04-02-2019 22:35:00 2.8 C 4.81 g/m*3 2.8 C 1.6 km/h
3153 04-02-2019 22:40:00 2.8 C 4.87 g/m*3 2.8 C 0 km/h
3154 04-02-2019 22:45:00 2.8 C 4.87 g/m*3 2.8 C 0 km/h
3155 04-02-2019 22:50:00 2.9 C 4.96 g/m*3 2.9 C 0 km/h
3156 04-02-2019 22:55:00 2.8 C 4.99 g/m*3 2.8 C 0 km/h
3157 04-02-2019 23:00:00 2.8 C 4.99 g/m*3 2.8 C 0 km/h
3158 04-02-2019 23:05:00 2.8 C 4.99 g/m*3 2.8 C 0 km/h
3159 04-02-2019 23:10:00 2.7 C 5.01 g/m*3 2.7 C 0 km/h
3160 04-02-2019 23:15:00 2.7 C 4.95 g/m*3 2.7 C 0 km/h
3161 04-02-2019 23:20:00 2.7 C 4.95 g/m*3 2.7 C 0 km/h
3162 04-02-2019 23:25:00 2.7 C 5.01 g/m*3 2.7 C 0 km/h
3163 04-02-2019 23:30:00 2.7 C 5.01 g/m*3 2.7 C 0 km/h
3164 04-02-2019 23:35:00 2.7 C 4.95 g/m*3 2.7 C 0 km/h
3165 04-02-2019 23:40:00 2.7 C 4.95 g/m*3 2.7 C 0 km/h
3166 04-02-2019 23:45:00 2.7 C 4.95 g/m*3 2.7 C 0 km/h
3167 04-02-2019 23:50:00 2.7 C 4.84 g/m*3 2.7 C 0 km/h
3168 04-02-2019 23:55:00 2.7 C 4.84 g/m*3 2.7 C 3.2 km/h
3169 05-02-2019 00:00:00 2.8 C 4.87 g/m*3 2.8 C 0 km/h
3170 05-02-2019 00:05:00 2.8 C 4.87 g/m*3 2.8 C 0 km/h
3171 05-02-2019 00:10:00 2.9 C 4.9 g/m*3 2.9 C 0 km/h
3172 05-02-2019 00:15:00 2.9 C 4.9 g/m*3 2.9 C 0 km/h
3173 05-02-2019 00:20:00 2.9 C 4.9 g/m*3 2.9 C 3.2 km/h
3174 05-02-2019 00:25:00 3 C 4.93 g/m*3 3 C 0 km/h
3175 05-02-2019 00:30:00 3 C 4.93 g/m*3 3 C 0 km/h
Sensor: Nr:Datum:Temp:Abs-Feuchte:Windchill:Wind:
Aussen-T/F 3176 05-02-2019 00:35:00 3 C 4.99 g/m*3 1.28 C 6.4 km/h
3177 05-02-2019 00:40:00 3.1 C 4.91 g/m*3 3.1 C 0 km/h
3178 05-02-2019 00:45:00 3.1 C 4.91 g/m*3 3.1 C 4.8 km/h
3179 05-02-2019 00:50:00 3.2 C 4.94 g/m*3 3.2 C 1.6 km/h
3180 05-02-2019 00:55:00 3.2 C 4.88 g/m*3 3.2 C 0 km/h
3181 05-02-2019 01:00:00 3.2 C 5 g/m*3 3.2 C 0 km/h
3182 05-02-2019 01:05:00 3.2 C 4.88 g/m*3 0.99 C 8.1 km/h
3183 05-02-2019 01:10:00 3.3 C 4.91 g/m*3 3.3 C 3.2 km/h
3184 05-02-2019 01:15:00 3.3 C 4.85 g/m*3 3.3 C 0 km/h
3185 05-02-2019 01:20:00 3.3 C 4.91 g/m*3 3.3 C 1.6 km/h
3186 05-02-2019 01:25:00 3.3 C 4.85 g/m*3 3.3 C 3.2 km/h
3187 05-02-2019 01:30:00 3.4 C 4.95 g/m*3 3.4 C 3.2 km/h
3188 05-02-2019 01:35:00 3.3 C 4.79 g/m*3 3.3 C 3.2 km/h
3189 05-02-2019 01:40:00 3.4 C 4.89 g/m*3 3.4 C 0 km/h
3190 05-02-2019 01:45:00 3.4 C 4.95 g/m*3 3.4 C 0 km/h
3191 05-02-2019 01:50:00 3.4 C 5.01 g/m*3 3.4 C 0 km/h
3192 05-02-2019 01:55:00 3.3 C 4.91 g/m*3 3.3 C 3.2 km/h
3193 05-02-2019 02:00:00 3.3 C 4.97 g/m*3 3.3 C 1.6 km/h
3194 05-02-2019 02:05:00 3.3 C 4.85 g/m*3 1.63 C 6.4 km/h
3195 05-02-2019 02:10:00 3.3 C 4.85 g/m*3 3.3 C 4.8 km/h
3196 05-02-2019 02:15:00 3.3 C 4.91 g/m*3 3.3 C 1.6 km/h
3197 05-02-2019 02:20:00 3.3 C 4.85 g/m*3 1.63 C 6.4 km/h
3198 05-02-2019 02:25:00 3.4 C 4.89 g/m*3 3.4 C 3.2 km/h
3199 05-02-2019 02:30:00 3.4 C 4.83 g/m*3 3.4 C 4.8 km/h
3200 05-02-2019 02:35:00 3.4 C 4.76 g/m*3 3.4 C 4.8 km/h
Sensor: Nr:Datum:Temp:Abs-Feuchte:Windchill:Wind:
Aussen-T/F 3201 05-02-2019 02:40:00 3.5 C 4.8 g/m*3 3.5 C 4.8 km/h
3202 05-02-2019 02:45:00 3.6 C 4.83 g/m*3 3.6 C 0 km/h
3203 05-02-2019 02:50:00 3.6 C 4.83 g/m*3 3.6 C 1.6 km/h
3204 05-02-2019 02:55:00 3.6 C 4.77 g/m*3 3.6 C 1.6 km/h
3205 05-02-2019 03:00:00 3.6 C 4.77 g/m*3 3.6 C 3.2 km/h
3206 05-02-2019 03:05:00 3.6 C 4.77 g/m*3 3.6 C 3.2 km/h
3207 05-02-2019 03:10:00 3.7 C 4.8 g/m*3 3.7 C 0 km/h
3208 05-02-2019 03:15:00 3.7 C 4.8 g/m*3 3.7 C 1.6 km/h
3209 05-02-2019 03:20:00 3.6 C 4.7 g/m*3 3.6 C 1.6 km/h
3210 05-02-2019 03:25:00 3.6 C 4.77 g/m*3 3.6 C 3.2 km/h
3211 05-02-2019 03:30:00 3.6 C 4.83 g/m*3 3.6 C 0 km/h
3212 05-02-2019 03:35:00 3.6 C 4.83 g/m*3 3.6 C 0 km/h
3213 05-02-2019 03:40:00 3.6 C 4.95 g/m*3 3.6 C 0 km/h
3214 05-02-2019 03:45:00 3.6 C 4.89 g/m*3 3.6 C 0 km/h
3215 05-02-2019 03:50:00 3.5 C 4.92 g/m*3 3.5 C 0 km/h
3216 05-02-2019 03:55:00 3.5 C 4.8 g/m*3 3.5 C 0 km/h
3217 05-02-2019 04:00:00 3.5 C 4.98 g/m*3 3.5 C 0 km/h
3218 05-02-2019 04:05:00 3.5 C 4.92 g/m*3 3.5 C 0 km/h
3219 05-02-2019 04:10:00 3.4 C 4.83 g/m*3 3.4 C 0 km/h
3220 05-02-2019 04:15:00 3.4 C 4.83 g/m*3 3.4 C 1.6 km/h
3221 05-02-2019 04:20:00 3.4 C 4.89 g/m*3 3.4 C 4.8 km/h
3222 05-02-2019 04:25:00 3.4 C 4.89 g/m*3 3.4 C 1.6 km/h
3223 05-02-2019 04:30:00 3.4 C 4.83 g/m*3 3.4 C 1.6 km/h
3224 05-02-2019 04:35:00 3.4 C 4.76 g/m*3 3.4 C 4.8 km/h
3225 05-02-2019 04:40:00 3.4 C 4.76 g/m*3 3.4 C 1.6 km/h
Sensor: Nr:Datum:Temp:Abs-Feuchte:Windchill:Wind:
Aussen-T/F